GFSSE_sfc_temp_000.txt.gz
Temp
67 69 73 74 74 74 74 74 74 75 75 76 76 75 74 74 74 74 76 76 77 78 77 75 76 76 76 76 76 75 74 74 73 75 77 78 78 78 75 75 74 76 75
68 70 72 73 73 74 74 74 74 75 76 76 75 74 73 73 74 75 75 75 75 77 76 75 74 75 75 73 72 74 74 72 73 73 75 77 77 77 76 74 74 74 75
69 70 71 72 73 74 74 75 75 75 76 76 75 74 74 74 74 74 74 72 73 74 73 74 73 75 73 71 70 71 73 72 71 72 73 69 69 75 75 74 75 75 75
71 71 70 72 73 73 73 74 74 75 75 75 75 74 74 74 74 74 73 72 72 72 73 73 74 73 72 71 69 69 71 73 71 72 70 71 72 75 75 75 74 75 75
68 68 70 71 72 73 73 73 73 73 73 73 73 74 74 74 74 74 72 70 72 72 73 73 73 73 70 69 70 70 70 71 71 72 69 69 69 75 75 75 75 75 74
65 66 69 70 71 72 73 73 73 72 72 72 73 73 73 74 74 73 72 71 72 72 73 73 72 72 69 69 71 69 70 71 70 70 69 70 71 75 76 74 73 73 73
66 67 68 69 71 72 73 73 72 72 71 72 72 72 73 73 72 71 71 71 71 71 72 72 72 71 69 69 69 69 68 68 68 68 68 68 70 74 76 74 73 73 73
67 68 69 71 71 71 72 71 71 71 70 70 71 71 71 71 70 70 71 70 70 70 69 69 69 70 69 68 68 67 67 68 69 68 68 68 70 75 77 74 73 72 72
69 67 67 68 70 69 69 70 69 70 70 70 69 69 69 68 69 69 69 69 69 70 70 70 68 68 69 68 67 67 67 68 67 66 68 68 72 74 76 74 73 72 72
68 67 65 66 66 65 65 68 68 69 69 69 68 67 67 67 68 68 68 68 68 69 68 68 68 68 68 68 67 66 66 66 64 65 66 67 72 75 76 74 73 72 72
68 66 66 66 66 65 65 68 68 69 69 68 68 66 65 63 63 63 65 67 67 67 67 66 66 66 65 65 66 65 66 63 63 63 64 67 72 75 75 73 73 72 72
65 64 64 64 65 65 72 66 64 67 65 65 65 64 63 61 60 63 64 66 66 65 65 64 64 64 62 58 58 61 60 61 61 62 63 67 70 75 75 73 72 72 72
66 65 65 65 64 64 65 63 63 63 63 63 63 62 61 61 60 59 59 59 58 61 57 58 57 56 57 57 57 57 58 59 59 60 64 66 69 73 75 73 72 72 71
64 63 63 64 64 63 62 63 62 62 62 61 61 61 59 58 57 57 57 58 57 57 56 55 55 55 54 55 56 55 56 56 57 60 63 64 66 71 73 75 72 72 72
63 63 62 63 63 63 62 60 60 60 60 59 59 60 59 58 57 57 57 57 56 56 56 54 55 58 57 58 57 56 56 56 57 58 58 63 64 67 70 73 74 74 72
64 62 61 62 63 63 60 60 59 59 58 58 58 59 59 57 56 56 56 56 55 55 54 54 53 52 52 53 55 59 59 58 58 58 58 60 62 64 67 69 71 72 72
63 62 61 61 61 61 61 60 59 59 59 57 58 58 58 57 56 55 54 54 54 54 54 53 52 51 51 52 52 53 54 55 55 57 58 59 61 62 63 66 68 69 70
62 63 62 67 61 60 59 59 59 59 56 57 57 57 58 59 58 55 53 53 53 53 52 51 50 50 49 48 48 49 51 53 53 55 55 57 60 62 62 63 64 66 67
62 62 61 61 61 60 58 57 57 58 56 56 55 56 58 58 58 55 54 53 54 53 51 52 50 50 49 49 50 51 50 49 51 55 55 56 58 60 61 62 62 62 64
60 60 61 61 61 60 57 56 55 55 55 54 55 55 58 58 58 54 54 53 53 52 51 50 50 50 49 49 53 52 48 50 49 49 50 55 55 58 59 61 61 60 60
60 61 60 60 60 57 55 54 53 54 54 54 54 57 56 57 57 55 53 53 52 51 51 51 50 49 48 48 46 47 47 48 49 52 50 50 53 55 57 58 60 61 62
60 60 60 60 59 58 55 55 55 54 54 55 55 54 55 56 56 56 53 52 52 50 50 50 50 48 47 47 45 42 41 47 48 50 52 50 49 51 56 57 57 61 61
59 59 61 60 60 58 57 55 53 52 52 52 53 53 54 55 56 55 54 52 51 50 49 50 49 48 45 46 47 45 39 38 44 48 48 50 50 48 50 52 56 58 58
58 57 58 60 59 59 57 54 53 58 57 59 59 53 54 56 55 55 54 52 50 49 49 48 50 46 45 43 45 49 45 42 39 41 46 49 50 51 49 49 52 56 57
58 57 57 58 58 60 58 55 53 54 56 58 51 52 51 51 53 53 53 51 49 49 49 48 48 46 46 44 44 42 42 42 41 40 39 45 50 50 50 48 47 50 54
56 56 57 56 58 58 57 56 52 52 55 53 52 51 49 47 47 48 50 48 48 47 48 47 48 46 46 46 44 43 41 40 42 39 40 41 43 48 50 52 51 47 47

GFSSE_sfc_temp_003.txt.gz
Temp
65 68 72 74 74 74 74 74 74 74 75 75 75 74 74 74 75 75 75 75 76 77 78 78 77 77 77 77 76 75 75 74 74 75 76 77 77 77 76 75 74 73 75
66 68 72 73 74 74 74 74 74 75 75 75 74 74 74 74 75 75 75 74 74 76 75 75 76 76 76 74 73 74 74 73 73 74 75 77 77 77 76 75 72 73 75
66 68 70 72 73 74 74 75 75 75 75 75 74 74 74 74 75 75 73 72 73 73 74 74 75 75 74 73 73 72 72 73 72 73 74 70 70 76 76 75 72 74 74
68 68 69 72 73 73 73 74 74 75 75 75 74 74 74 74 74 74 73 71 72 73 73 74 75 75 74 74 73 72 72 72 72 72 71 70 72 76 77 75 75 75 75
66 67 69 71 72 72 73 73 73 73 73 73 73 74 73 74 73 73 71 71 71 72 73 74 75 74 72 70 70 71 72 71 71 71 68 69 69 74 76 75 75 75 74
64 65 68 70 71 72 73 73 73 72 72 72 72 73 73 73 73 72 70 70 71 72 73 73 73 72 71 69 69 70 70 70 69 66 67 70 70 74 76 74 73 73 73
64 66 67 69 71 72 73 72 72 71 71 71 72 72 72 72 72 70 70 71 71 71 72 72 72 71 70 69 69 68 68 68 67 65 66 66 68 73 75 74 73 73 73
66 66 67 70 71 71 71 71 70 70 70 70 70 71 72 71 70 70 70 70 70 70 70 70 69 69 69 68 68 67 67 67 68 66 66 65 68 73 75 75 72 72 72
66 66 66 67 69 69 69 69 69 69 69 69 69 69 69 68 68 68 69 69 69 70 69 69 68 68 68 68 67 66 66 67 64 65 66 66 70 74 74 74 73 72 72
65 65 65 65 65 64 64 68 68 68 68 68 68 68 67 67 68 68 67 68 68 68 68 67 67 67 67 66 66 65 65 65 63 64 64 65 70 73 75 75 74 72 72
66 65 64 64 64 63 63 66 68 69 68 67 67 67 65 62 61 62 65 67 67 66 66 65 65 65 64 63 63 64 64 60 61 61 63 66 70 73 75 74 73 72 72
63 64 65 64 64 63 69 65 63 65 64 64 64 63 61 60 59 62 64 66 66 65 65 64 63 62 60 56 56 60 57 59 59 60 61 66 68 72 74 73 72 72 72
64 63 63 63 63 63 64 62 61 61 61 62 62 61 60 59 59 58 57 58 57 61 56 57 56 54 54 54 54 54 56 56 58 60 61 64 67 70 72 74 72 72 72
63 63 63 62 61 60 61 62 62 61 61 61 60 60 58 56 56 57 57 57 56 56 55 55 54 54 54 55 55 54 55 55 55 56 58 62 65 68 70 72 73 72 72
63 62 61 61 60 61 60 58 59 59 61 60 59 59 59 57 56 56 56 56 55 55 54 53 53 54 54 55 55 56 56 56 57 57 57 61 62 65 68 71 72 73 72
61 61 60 60 60 60 59 58 58 58 58 57 57 58 59 57 56 56 56 55 55 54 53 52 51 50 50 51 52 54 54 55 55 56 56 57 61 63 65 66 70 71 72
62 62 60 59 59 59 59 58 57 57 57 56 56 57 57 56 55 55 54 54 54 53 53 52 50 50 49 50 50 50 51 52 53 53 54 56 58 61 62 64 65 67 69
59 60 59 64 59 58 57 57 57 56 55 55 55 55 56 56 55 53 52 52 52 52 52 50 49 49 48 47 47 48 49 50 51 51 52 52 54 58 60 62 63 65 66
59 59 59 59 58 58 57 56 56 56 55 55 54 54 55 56 56 54 52 52 52 51 50 50 49 48 48 48 49 49 48 48 49 53 52 52 52 53 56 60 61 62 63
58 59 59 58 58 57 56 54 53 53 53 53 54 54 56 55 56 53 52 52 51 50 49 48 49 48 48 48 52 51 48 48 48 48 48 52 51 53 53 55 57 60 60
56 57 58 58 57 55 53 53 52 53 53 53 53 55 55 56 55 53 52 52 51 50 50 49 48 48 47 46 45 45 46 46 48 48 48 47 48 51 51 52 52 55 59
57 57 57 58 58 56 54 54 54 52 52 53 53 53 55 56 56 54 53 53 52 50 49 48 48 46 46 45 44 41 40 43 45 48 47 48 48 48 50 52 51 53 54
56 56 58 59 58 57 56 53 52 51 51 50 52 51 54 55 57 55 54 53 52 51 50 48 47 47 45 44 45 43 38 36 39 44 46 46 46 46 47 48 51 53 54
56 55 56 56 56 57 56 54 52 54 55 59 57 56 56 52 56 57 56 52 51 48 47 46 47 45 44 42 42 47 43 42 36 36 41 44 45 47 46 47 48 51 52
54 54 53 55 56 57 55 54 52 51 54 56 54 49 51 51 51 54 55 53 49 49 49 48 46 45 44 43 43 41 40 39 39 36 35 41 43 44 45 45 47 47 51
53 53 54 55 56 57 56 54 51 49 51 50 50 48 50 46 47 48 49 50 48 48 47 45 46 47 46 45 43 42 41 40 38 36 34 38 39 41 44 45 45 45 48

GFSSE_sfc_temp_006.txt.gz
Temp
63 67 73 74 74 74 73 74 74 74 75 75 75 75 75 75 74 75 75 75 76 77 77 77 77 77 77 77 77 76 76 75 75 76 76 77 77 77 77 75 75 75 75
64 66 72 73 74 74 74 75 74 74 75 75 74 74 74 75 75 75 73 73 74 74 75 76 76 77 76 75 74 75 75 74 73 74 75 77 77 77 77 75 74 74 75
65 67 68 72 73 74 75 75 75 75 75 75 74 74 74 75 75 74 73 72 73 73 74 75 76 76 75 74 73 73 74 74 73 74 75 71 71 77 77 74 74 74 75
66 67 68 72 73 73 73 74 75 75 75 74 74 74 74 74 74 73 73 72 72 73 74 74 75 75 74 72 72 72 72 73 72 72 71 71 72 75 77 75 74 75 75
65 66 68 71 72 73 73 73 73 73 73 73 73 74 73 74 73 73 72 71 72 72 73 74 75 74 73 71 70 70 71 71 70 69 67 69 70 74 77 76 74 74 74
63 65 68 70 71 72 73 73 73 72 72 72 72 73 73 73 73 72 71 71 72 72 73 73 73 72 70 69 69 69 69 69 68 67 68 69 70 72 75 75 73 73 73
63 64 66 69 71 72 73 73 72 71 71 71 72 72 72 72 71 71 70 70 71 71 71 71 71 70 69 69 69 68 68 68 67 66 67 67 69 72 74 75 73 73 73
64 65 66 70 71 71 71 71 70 70 70 70 71 71 71 70 70 70 70 70 70 70 70 69 69 68 68 68 68 67 66 67 67 65 66 66 68 74 74 75 73 72 73
64 64 64 66 68 69 69 69 69 69 69 69 69 69 69 68 68 68 69 69 69 69 68 68 67 67 67 67 66 65 65 66 63 63 65 66 69 72 74 75 74 72 73
64 64 63 64 64 63 64 68 68 68 68 68 68 68 67 67 67 67 66 68 68 68 67 66 66 66 65 64 64 64 64 63 62 62 63 64 68 72 74 73 73 73 72
64 64 63 63 63 62 62 65 68 69 68 67 67 67 64 61 60 60 65 67 67 66 66 65 65 64 63 62 63 63 62 59 61 62 61 65 68 71 73 73 73 72 72
63 63 63 63 63 62 67 63 62 64 64 64 63 62 61 59 59 61 63 66 66 65 65 64 63 62 59 55 55 58 55 57 58 59 61 65 67 70 72 72 72 72 71
62 63 64 63 63 62 62 61 60 60 61 61 62 61 59 59 57 57 56 57 56 61 55 56 55 54 54 53 54 54 55 55 55 57 60 63 65 68 70 71 72 72 71
62 63 63 62 61 61 61 61 60 60 60 60 60 60 58 56 55 56 55 56 56 55 54 54 54 54 54 55 55 55 55 55 55 56 58 61 63 66 68 70 71 72 71
61 61 61 60 60 59 60 59 59 60 60 60 59 59 58 56 55 55 56 55 55 55 54 54 53 52 52 53 53 54 54 55 55 55 55 60 62 65 67 69 69 70 72
60 61 59 59 59 58 57 57 57 57 58 58 57 58 58 57 55 55 55 55 54 54 53 52 50 50 49 50 52 52 53 53 53 54 53 54 60 62 63 66 68 69 69
61 59 58 58 58 58 57 57 55 56 56 55 55 56 56 57 55 55 54 54 54 53 52 51 50 49 48 50 50 50 50 51 52 52 52 53 54 58 60 63 64 66 67
58 59 58 62 57 57 56 56 55 55 54 54 54 54 55 56 55 53 52 52 53 51 51 50 48 48 48 47 47 48 49 50 51 51 52 51 52 54 56 60 63 64 65
59 58 58 58 57 56 55 55 54 55 53 54 53 53 54 54 54 52 51 51 51 50 49 49 47 48 47 47 48 48 48 48 49 52 51 52 52 52 54 58 59 60 62
55 57 58 57 56 55 54 52 52 51 52 52 52 52 54 54 54 52 51 51 50 49 48 47 47 46 47 47 51 50 47 48 47 48 49 52 50 52 52 53 53 54 58
54 56 57 56 56 54 52 52 51 52 52 52 52 53 53 54 54 53 52 51 50 50 51 48 47 47 46 45 45 45 45 46 46 48 48 48 50 50 51 51 51 52 53
56 56 56 57 56 54 52 52 51 50 51 51 51 52 53 53 54 54 53 53 51 51 48 48 46 45 45 44 44 41 41 43 45 47 47 48 47 48 49 51 50 52 52
55 54 55 55 55 54 54 52 52 50 51 51 54 52 54 53 54 54 55 54 52 51 51 50 48 46 45 43 43 43 37 37 39 43 46 46 46 45 46 47 49 51 51
53 53 54 54 54 56 54 52 50 49 49 52 52 53 55 52 51 53 54 52 52 52 51 48 48 46 44 42 42 46 43 42 38 37 42 45 45 46 45 45 47 48 50
50 50 50 53 54 53 52 51 50 50 49 50 50 48 50 50 48 50 51 51 49 46 46 48 46 44 46 43 43 41 40 40 40 38 36 39 44 45 45 44 44 45 48
50 50 50 52 53 53 51 50 48 46 46 47 49 46 47 46 44 44 45 45 44 43 43 43 45 45 42 44 43 42 41 41 39 37 35 36 38 42 44 44 44 44 45

GFSSE_sfc_temp_009.txt.gz
Temp
74 75 72 74 74 75 74 74 74 74 75 75 75 75 75 76 75 74 73 73 75 74 76 77 77 77 77 77 76 76 76 76 76 77 77 78 78 78 77 76 75 83 76
76 76 72 74 74 74 75 74 74 74 75 75 75 75 74 75 74 73 72 73 72 73 74 76 76 76 76 75 75 75 75 75 74 75 76 77 77 77 77 75 75 79 75
75 76 76 73 74 74 75 75 75 75 75 75 75 74 75 75 74 74 73 73 73 74 75 75 75 76 75 73 73 73 73 73 73 74 74 82 82 77 77 74 74 75 75
75 76 76 72 73 74 74 74 75 75 75 75 74 74 74 74 74 74 73 72 73 74 74 75 75 75 73 72 71 71 71 72 71 71 80 82 80 76 77 75 74 75 75
74 75 76 71 72 73 73 74 74 74 74 74 74 74 74 74 73 73 72 72 72 73 74 74 74 73 71 70 70 70 70 70 70 74 79 79 80 77 77 76 75 74 74
75 75 72 70 71 73 73 73 73 72 72 72 72 73 73 73 73 72 71 71 72 72 73 72 72 71 69 69 69 69 69 69 70 77 78 77 78 74 75 74 74 74 73
74 74 76 69 71 72 73 73 72 71 71 71 72 72 72 72 71 71 71 71 71 71 71 71 70 69 69 69 69 68 68 68 75 77 77 77 75 74 75 74 73 73 73
74 74 75 71 71 71 72 71 71 70 71 71 71 71 71 70 70 70 70 70 70 69 69 69 69 69 68 68 67 66 66 67 73 73 73 73 71 72 75 74 74 72 72
74 75 75 76 74 69 69 70 69 69 70 70 69 69 69 69 68 69 69 69 69 69 68 68 67 67 66 66 66 65 65 65 73 73 72 76 69 72 74 74 73 73 72
74 75 73 74 76 74 75 68 68 68 68 69 69 68 68 67 67 68 67 68 68 67 67 67 66 65 65 64 64 64 63 65 72 72 72 73 69 72 72 71 72 73 72
72 74 74 73 73 73 74 73 70 69 68 68 69 67 68 74 73 71 67 67 67 67 66 66 65 64 63 63 63 62 64 73 73 74 74 65 68 71 72 71 71 71 72
72 73 74 73 73 72 74 74 73 73 75 74 74 72 74 71 71 70 68 66 66 65 64 64 63 62 65 71 71 66 72 70 73 72 74 64 67 69 71 71 71 71 71
76 75 74 73 72 72 73 75 75 75 74 74 71 71 71 71 70 71 70 71 70 66 69 67 68 68 67 67 68 68 69 69 72 73 69 63 65 68 69 70 71 71 71
73 75 74 73 71 71 74 74 74 73 73 73 73 70 70 70 69 68 69 69 68 70 67 67 67 66 66 66 66 66 67 69 72 72 69 62 64 67 69 70 70 71 71
73 74 74 72 71 71 70 72 71 71 72 72 72 71 70 70 69 69 68 68 68 69 68 67 67 66 65 65 66 66 66 66 67 71 71 60 62 64 66 68 69 69 70
73 73 72 71 70 70 70 69 71 70 71 71 71 71 69 69 68 69 68 69 69 68 68 66 65 66 65 64 64 65 65 67 67 67 70 69 60 61 63 65 66 67 68
73 73 70 70 70 69 69 69 70 71 69 70 70 69 68 68 68 67 68 68 69 68 66 65 64 64 64 64 63 64 64 65 67 66 68 69 69 61 60 63 64 65 66
71 71 70 71 70 69 68 70 70 71 69 69 69 69 67 67 67 67 67 67 68 66 66 65 65 64 64 64 64 66 66 65 65 65 67 67 68 69 64 61 62 63 63
71 71 71 70 70 69 68 69 68 67 68 69 68 69 67 67 66 66 67 67 65 66 64 64 64 62 64 64 64 65 65 65 64 66 64 65 64 66 68 60 59 59 61
69 69 71 70 69 67 68 67 68 67 68 67 68 68 66 67 65 65 66 64 65 65 64 63 61 63 63 64 64 64 64 65 64 64 65 66 66 64 65 64 65 65 58
66 68 70 69 67 67 67 67 68 67 67 68 69 67 65 66 65 64 65 65 64 62 63 63 62 59 61 61 60 61 62 62 61 63 64 64 64 64 63 63 65 65 66
67 67 66 65 65 65 67 66 65 64 66 65 65 65 66 64 65 64 63 64 64 63 62 62 60 61 60 61 60 60 56 60 60 60 62 62 60 63 63 62 61 61 62
64 62 64 64 65 64 64 66 66 65 65 66 67 67 66 64 64 63 62 62 62 62 60 62 61 59 60 60 59 60 55 53 59 59 57 60 58 60 61 62 60 60 60
61 62 64 64 65 64 63 62 60 60 60 62 62 63 63 62 62 62 60 60 60 60 59 60 62 60 59 59 56 57 56 55 54 54 56 57 58 57 57 60 60 60 60
60 60 61 63 63 62 61 60 60 59 60 60 60 59 59 60 60 59 58 57 57 58 58 57 57 55 57 57 55 54 53 54 53 52 50 53 54 56 56 57 57 58 58
61 60 61 62 62 62 61 59 58 56 56 57 58 58 59 59 58 55 55 54 53 53 52 53 53 52 52 53 52 53 53 51 50 49 46 47 47 52 55 55 55 57 58

GFSSE_sfc_temp_012.txt.gz
Temp
84 85 73 75 76 75 75 75 75 75 76 76 76 76 76 75 74 73 74 72 74 75 76 77 77 77 78 77 76 76 76 76 77 77 78 78 78 78 77 76 76 86 76
86 86 73 74 75 76 75 75 75 75 76 76 76 75 75 74 74 74 73 74 74 75 76 76 76 77 77 74 74 73 74 74 75 75 77 77 79 78 77 76 77 81 75
86 87 85 73 75 76 75 75 75 76 76 75 75 75 75 75 74 74 74 73 73 75 75 76 76 75 74 73 72 72 72 72 73 73 75 88 89 78 77 75 75 75 76
85 86 85 72 74 75 75 75 75 76 75 75 75 75 75 75 75 74 73 73 73 74 75 75 75 74 72 71 71 71 72 72 72 73 86 87 89 77 77 76 75 75 75
85 86 82 72 73 73 74 74 74 74 74 74 74 75 74 74 74 73 72 72 73 73 74 74 74 72 71 70 70 70 70 71 71 75 88 86 87 81 76 76 76 75 74
86 86 75 72 72 73 73 73 73 73 73 73 73 74 74 73 73 72 72 72 72 72 72 72 72 71 70 70 70 70 70 70 69 87 86 84 83 77 76 75 74 74 73
86 86 85 70 72 73 74 73 73 72 72 72 73 73 73 72 72 71 71 71 71 71 71 71 70 70 69 69 68 68 68 68 80 85 85 86 82 72 75 75 74 74 73
85 84 84 72 72 72 73 72 72 71 71 72 72 72 71 71 71 71 70 70 70 70 70 69 69 68 68 67 67 67 66 67 79 83 82 83 71 72 74 75 73 73 73
86 86 86 86 78 70 70 70 70 70 70 71 70 70 70 69 69 69 69 70 69 69 68 68 68 67 67 66 66 66 65 66 79 81 81 84 69 72 73 73 73 73 72
85 86 85 84 85 84 84 70 70 70 70 70 70 69 68 69 69 68 69 69 68 68 68 67 66 66 65 65 65 65 65 67 81 82 84 79 68 72 73 71 70 69 71
84 84 84 85 84 84 85 80 71 70 70 69 71 69 71 84 81 78 68 67 67 67 66 66 65 64 64 64 64 63 64 82 80 83 84 66 68 71 72 72 70 68 69
82 84 85 83 82 82 85 83 84 83 86 84 82 80 83 79 80 75 71 66 66 66 65 64 64 64 66 81 80 69 81 78 80 80 81 65 66 69 71 71 71 71 70
86 86 85 82 81 81 85 87 88 87 86 85 80 80 81 79 80 80 80 80 79 70 79 76 77 79 75 76 77 76 77 76 80 81 74 64 66 68 70 70 70 71 70
86 86 85 83 81 80 85 86 87 85 85 83 83 78 79 80 79 78 79 79 78 79 76 77 77 74 74 74 74 74 74 76 80 80 73 63 64 66 68 69 70 70 70
85 85 85 83 81 81 79 84 82 81 83 82 81 81 79 79 77 78 78 78 78 78 77 76 77 76 74 74 74 73 74 74 74 78 79 62 62 64 66 68 68 69 69
85 86 85 83 81 82 81 80 81 82 82 82 82 81 78 77 77 78 77 78 78 79 78 77 76 75 75 74 73 73 73 74 74 74 78 73 61 62 64 66 67 67 68
86 86 84 82 82 81 80 80 82 84 81 82 82 79 77 77 77 76 77 77 78 78 75 75 74 74 73 75 73 73 73 72 73 72 74 76 70 60 62 64 65 65 66
86 84 84 82 81 80 81 82 83 84 81 82 81 79 77 76 75 75 76 76 77 76 76 75 75 74 73 73 73 74 74 74 72 72 73 73 75 77 62 61 63 63 64
85 83 82 81 82 81 80 81 80 78 80 82 81 81 78 76 75 74 75 76 75 75 74 74 73 73 72 73 73 73 73 73 73 74 72 71 71 73 76 60 60 60 61
81 80 82 82 79 78 81 79 81 80 80 80 81 80 77 77 74 73 74 73 73 73 73 73 71 73 72 71 73 73 73 73 73 72 72 73 72 70 71 71 71 68 60
77 77 79 77 73 79 80 77 79 77 78 79 79 75 74 75 73 72 73 72 72 71 71 70 70 68 68 71 67 68 70 71 69 71 72 72 72 71 70 70 72 74 71
74 75 75 75 75 76 79 77 75 73 76 75 76 75 75 72 72 72 70 70 70 70 69 68 67 67 68 69 65 65 62 67 70 69 71 70 69 71 69 68 68 68 69
72 73 74 74 74 73 73 77 77 77 76 75 72 73 72 71 71 70 69 69 68 68 68 68 67 66 64 68 68 63 61 59 66 70 66 68 67 67 68 67 66 66 66
70 72 73 73 73 72 71 72 68 70 67 69 69 70 70 70 69 69 68 67 66 67 65 66 68 66 65 63 66 68 66 65 60 59 64 65 66 64 64 65 66 65 65
71 70 72 72 72 71 70 68 69 67 68 69 68 66 67 68 68 68 67 64 64 65 64 63 62 62 63 62 62 62 58 61 61 55 58 57 63 64 64 63 63 64 64
72 70 70 71 70 70 69 67 64 64 64 64 65 64 65 65 66 66 65 62 61 61 60 60 59 56 56 55 56 56 54 48 50 50 54 57 58 60 63 63 61 62 63

GFSSE_sfc_temp_015.txt.gz
Temp
90 85 74 76 77 76 76 76 76 76 76 77 76 76 75 74 74 74 74 74 75 77 77 77 77 77 77 76 75 75 75 75 76 77 78 79 79 78 77 77 77 81 75
91 88 73 75 77 76 76 76 76 76 76 76 75 75 75 74 74 74 74 74 75 76 76 76 76 76 75 74 73 73 73 73 74 75 76 78 79 78 77 77 76 80 75
91 89 85 74 75 76 76 76 76 76 76 76 75 75 75 75 75 74 74 73 74 75 76 76 76 75 74 73 72 72 73 73 73 74 75 84 82 78 78 76 77 76 76
92 92 84 73 74 75 75 75 76 76 76 75 75 75 75 75 74 74 73 73 74 75 75 75 75 74 72 71 71 71 72 73 73 73 82 84 82 77 78 76 76 76 76
91 89 80 72 73 74 74 74 75 75 75 75 75 75 75 75 74 73 73 73 73 74 74 74 73 72 71 70 71 71 71 71 71 74 86 82 87 78 77 77 76 75 75
91 88 75 72 73 74 74 74 74 73 73 73 74 74 74 74 73 73 72 72 73 73 73 73 72 71 70 70 70 70 70 70 69 84 84 79 84 77 76 76 75 75 74
91 89 84 72 73 74 74 74 73 73 73 73 73 73 73 73 72 72 71 71 71 71 71 71 70 70 69 69 68 68 68 69 77 83 76 79 73 74 75 75 74 74 74
89 88 85 73 73 73 73 73 72 72 72 72 72 72 72 71 71 71 71 71 71 70 70 69 69 68 68 68 68 67 67 67 78 83 77 74 71 73 74 74 73 72 72
90 90 89 87 78 71 71 71 71 71 71 71 71 71 70 70 70 70 70 70 70 69 69 68 68 67 67 67 67 66 66 68 75 84 83 76 70 72 73 73 72 71 72
90 90 89 89 90 87 81 70 71 71 71 70 70 70 69 70 70 70 71 69 69 68 68 67 67 66 66 66 66 66 66 66 77 83 84 70 69 71 73 73 71 71 70
89 88 89 89 88 87 88 79 71 70 71 70 71 70 72 82 83 80 68 68 68 68 67 66 66 66 67 66 66 68 66 81 81 83 83 67 69 70 71 72 71 71 70
86 88 89 87 86 86 89 86 86 86 87 85 85 83 85 82 82 79 72 69 69 68 68 67 67 67 66 80 77 68 78 80 79 82 79 66 67 69 70 71 71 71 71
88 89 89 85 85 85 86 88 90 90 87 87 84 82 82 82 82 82 82 82 80 72 80 75 77 79 78 77 78 77 79 78 81 82 70 65 66 68 70 70 70 71 71
89 89 89 87 84 84 88 89 88 88 87 86 84 82 81 81 80 80 81 81 80 81 78 79 79 78 76 76 76 75 75 76 80 80 72 64 64 66 68 69 70 70 70
89 89 89 87 84 85 84 86 85 84 86 83 84 83 82 80 78 80 79 80 80 80 80 78 78 78 77 76 77 75 75 75 75 77 79 64 63 64 67 68 69 69 69
89 89 89 88 85 86 84 83 83 84 84 84 85 82 80 79 78 78 78 79 79 80 80 78 77 76 76 77 76 75 74 75 76 76 78 71 63 63 65 67 68 68 68
90 91 89 87 87 84 84 84 85 86 84 85 84 82 80 79 78 77 78 78 79 79 78 78 77 77 76 77 75 76 75 74 74 74 75 76 70 61 63 65 66 66 67
90 89 90 88 86 84 85 85 86 87 84 84 84 83 80 79 78 76 77 77 78 77 77 77 76 75 75 75 75 75 76 76 75 74 74 74 76 76 63 63 64 64 65
90 88 87 86 84 84 84 85 83 82 82 84 83 83 81 79 78 76 76 76 76 75 75 75 75 74 73 73 74 76 75 75 75 77 74 73 72 74 75 62 62 62 63
86 85 86 85 84 82 84 82 83 82 82 83 82 82 79 78 76 75 75 74 74 74 74 74 72 73 73 72 73 74 74 76 75 74 74 75 73 72 72 70 66 66 61
82 83 84 81 78 82 83 79 80 78 80 81 82 79 77 77 75 73 74 73 73 72 71 71 71 69 69 72 70 70 71 72 72 74 74 74 73 73 71 71 71 73 66
79 80 80 79 78 79 81 79 77 75 78 78 79 77 77 75 73 72 71 71 71 70 69 69 68 67 69 70 66 66 62 67 72 72 72 72 70 73 72 71 70 70 71
76 77 78 78 77 76 76 80 78 78 78 77 77 75 75 73 72 71 70 69 68 68 68 68 67 66 65 68 68 64 59 58 65 72 71 70 69 70 71 71 69 68 68
74 76 77 76 77 76 74 74 71 72 70 72 72 73 72 71 71 71 70 68 67 65 64 65 68 65 64 62 66 68 66 63 56 55 67 66 66 66 68 69 69 67 67
75 74 75 76 75 75 74 71 69 68 69 71 70 69 68 69 69 69 68 66 64 64 63 62 61 61 61 59 59 59 56 57 57 49 51 59 58 62 63 64 67 67 66
75 74 74 74 75 74 72 71 68 66 67 66 66 65 66 65 66 66 65 63 62 62 61 61 56 55 53 52 50 48 45 44 44 45 43 51 50 53 58 59 61 62 64

GFSSE_sfc_temp_018.txt.gz
Temp
81 79 75 76 76 76 76 76 76 75 76 76 75 75 74 74 74 74 75 75 76 77 77 77 77 76 76 75 74 74 74 74 74 75 76 78 79 78 77 77 76 78 76
82 79 74 76 76 76 76 76 75 75 75 75 75 74 74 74 74 75 74 75 76 76 77 77 76 76 75 74 73 73 73 73 73 73 74 76 78 78 77 75 74 75 74
82 82 79 74 75 76 76 76 76 76 76 76 75 75 75 75 74 74 74 74 75 76 76 76 76 74 74 73 72 72 72 72 72 72 73 73 77 78 77 76 75 76 75
85 82 78 73 74 74 75 75 75 76 75 75 75 75 75 75 74 74 74 74 74 75 75 75 74 74 72 71 71 71 72 72 71 71 72 77 78 74 77 76 76 76 76
82 79 75 72 73 74 74 74 74 74 74 74 75 75 75 74 74 73 73 73 73 74 74 74 73 72 71 70 70 70 70 70 70 70 73 76 71 72 73 75 75 75 75
81 77 72 71 72 73 74 74 74 73 73 73 74 74 74 74 73 72 72 72 72 73 72 72 71 70 69 69 69 69 69 69 69 70 74 71 72 75 74 74 74 74 73
81 78 75 71 72 73 74 73 73 72 72 73 73 73 73 73 72 72 71 71 71 71 71 70 70 69 69 68 69 68 68 68 68 70 72 68 70 73 76 74 74 73 73
83 78 77 72 72 72 72 72 72 72 72 72 72 72 72 72 71 71 71 71 70 70 70 69 69 68 68 68 68 67 67 67 71 71 76 68 71 74 74 73 72 72 72
85 83 79 75 73 71 71 71 70 71 71 71 71 70 70 70 70 71 70 70 70 69 69 68 68 68 68 67 67 67 66 67 65 70 77 68 72 73 74 73 72 72 71
85 85 81 78 77 74 70 70 70 70 70 70 70 70 70 70 70 70 70 70 69 69 68 68 68 68 68 68 68 68 66 66 65 69 68 68 71 72 73 72 72 71 71
85 82 81 83 80 79 75 73 70 71 70 70 70 70 69 72 71 70 69 69 69 69 68 68 68 67 66 66 66 66 66 66 70 70 66 67 70 71 71 71 71 71 71
80 82 82 79 78 79 86 74 74 77 74 74 76 74 75 74 74 76 71 68 68 68 68 67 67 66 66 66 65 65 63 69 68 69 63 67 69 70 70 71 71 71 71
83 83 82 79 79 79 78 77 78 78 76 76 76 74 74 74 72 71 69 68 65 66 67 66 66 64 69 67 67 66 67 67 66 68 64 66 68 68 69 70 70 70 70
83 83 82 80 78 78 78 77 76 77 75 75 74 74 72 70 70 69 69 69 68 68 68 68 67 68 68 69 68 67 66 65 65 65 60 65 66 67 68 70 70 70 70
82 82 82 80 78 77 76 75 75 74 74 74 74 73 72 70 68 69 68 68 68 68 67 67 67 67 67 68 67 67 67 66 66 65 62 64 65 66 67 69 70 70 70
84 83 81 81 79 79 77 75 74 74 74 74 73 72 73 70 68 68 67 68 67 68 67 66 66 65 65 66 66 67 66 66 66 65 65 59 63 65 66 67 69 69 69
84 85 74 68 79 77 77 76 75 75 75 73 73 73 73 72 69 68 66 66 67 67 67 66 66 65 64 67 66 66 65 65 64 65 64 64 60 62 63 65 67 67 68
86 79 82 84 79 76 76 75 76 75 73 73 73 72 72 72 71 67 66 65 66 66 65 64 63 63 63 63 62 63 64 65 65 64 64 64 63 65 61 63 65 66 66
85 83 83 80 79 77 76 76 74 74 72 73 71 71 70 71 70 66 65 64 65 64 63 63 63 62 61 61 63 64 63 63 63 70 65 63 62 64 61 61 62 63 64
80 81 81 77 74 73 75 74 73 72 72 72 71 70 70 69 68 65 64 63 64 62 61 61 60 61 60 60 67 67 65 65 65 61 62 67 63 63 63 61 58 58 61
78 77 77 72 72 73 72 69 68 67 68 70 70 70 69 69 67 64 62 62 61 60 59 60 59 58 59 59 59 60 61 64 63 65 65 61 63 64 63 62 59 59 59
73 74 74 74 72 72 72 70 69 67 69 69 69 69 69 66 65 66 62 61 60 58 57 57 56 57 57 57 55 56 53 57 61 64 65 65 63 66 65 64 63 62 59
70 70 73 72 71 69 68 71 69 68 68 67 66 66 67 65 65 63 61 59 58 58 55 54 56 55 54 55 55 53 50 48 53 58 60 59 58 61 61 63 63 64 61
68 70 72 72 72 71 68 66 63 63 62 63 63 64 64 63 62 62 61 58 56 56 54 54 58 53 52 50 52 53 49 48 45 46 53 56 58 55 60 59 61 62 61
69 68 69 71 72 70 68 66 62 61 61 62 61 60 59 59 59 60 59 56 55 55 54 53 51 50 49 47 45 45 44 44 46 42 40 46 51 53 52 53 52 52 53
70 69 69 70 71 71 68 66 63 61 59 58 58 57 56 56 56 56 57 55 54 53 51 50 48 48 46 46 45 44 42 40 39 38 38 38 39 44 46 48 50 50 51

GFSSE_sfc_temp_021.txt.gz
Temp
71 73 74 75 75 75 74 74 74 74 75 75 75 75 74 75 74 74 75 75 76 77 77 77 76 76 75 75 74 73 73 73 73 74 75 76 78 77 76 76 76 77 75
72 74 73 74 75 75 75 74 74 74 75 75 75 74 74 74 74 74 74 75 75 76 77 76 75 75 74 73 73 73 73 72 72 72 74 75 76 77 76 75 75 74 75
73 75 75 73 74 75 75 75 75 75 75 75 75 74 74 74 74 74 74 74 75 75 76 76 75 74 73 72 72 72 72 72 71 72 73 70 72 76 74 74 74 74 74
75 74 74 73 74 74 74 74 74 75 75 75 75 75 74 74 74 74 73 73 74 74 74 74 74 73 72 71 71 71 71 71 70 71 68 72 76 72 71 69 74 75 75
71 72 73 72 72 73 73 73 73 74 74 74 74 74 74 74 74 73 72 72 73 74 74 73 72 71 70 69 69 69 69 69 69 69 65 69 69 72 71 69 74 74 74
67 68 70 70 72 73 73 73 73 72 72 72 73 74 74 73 73 72 72 72 72 72 72 72 71 70 69 68 69 69 68 68 68 64 66 70 70 73 72 72 74 73 73
66 68 70 70 71 72 73 73 72 72 72 72 72 72 73 72 72 71 71 71 71 71 71 70 70 69 68 68 68 68 67 67 66 63 65 66 68 75 74 74 73 72 72
68 68 70 71 71 71 72 71 71 71 71 71 71 71 72 71 71 71 70 70 70 70 69 69 69 68 68 68 68 67 66 67 67 62 67 66 72 74 74 74 72 72 72
71 67 67 69 71 70 69 69 69 70 70 70 70 70 70 70 70 70 70 70 70 69 69 68 68 68 68 68 67 66 66 66 63 63 70 65 72 74 74 73 72 71 71
72 71 67 67 68 66 66 68 69 69 69 69 70 69 69 69 69 70 69 70 70 69 69 69 68 68 67 67 66 66 65 66 63 63 63 64 71 73 73 72 71 71 71
75 73 70 69 68 67 66 69 69 69 69 69 69 69 67 66 67 68 67 68 69 69 68 68 68 67 66 66 66 66 66 61 62 63 62 67 71 72 72 71 71 70 70
72 72 73 72 69 69 76 68 66 69 67 67 68 67 66 65 65 69 67 68 69 68 68 67 67 67 66 62 62 65 61 62 63 63 62 67 70 71 71 70 70 70 70
74 74 72 72 72 72 71 66 66 66 66 66 68 68 68 67 65 64 62 63 61 65 62 65 63 62 62 61 63 62 63 63 61 61 64 66 69 70 70 70 70 70 70
72 74 73 72 72 70 69 68 68 68 67 67 67 68 65 63 63 63 63 63 62 61 60 61 60 63 62 64 64 63 63 62 61 60 59 65 67 69 70 70 70 70 70
74 74 74 72 70 72 70 67 68 66 67 67 66 67 65 64 63 63 62 63 62 62 62 61 61 63 63 64 64 63 63 63 62 61 58 63 65 67 69 70 71 71 70
75 74 72 67 69 71 69 69 67 66 67 66 65 66 67 64 62 62 61 62 62 62 61 61 61 60 60 61 62 63 63 62 62 62 60 58 63 65 67 69 70 70 70
72 72 66 65 63 68 67 69 67 66 68 65 65 66 66 66 64 63 61 60 61 61 61 61 60 60 59 62 60 61 61 61 61 62 62 59 58 62 64 66 67 68 69
72 73 71 71 63 64 64 67 67 66 65 65 64 64 65 66 64 61 60 59 60 60 60 59 58 58 57 57 57 58 59 60 61 61 63 61 59 61 61 63 65 66 67
71 70 68 67 65 64 64 66 64 66 66 65 64 63 65 64 63 60 59 58 58 58 57 57 57 55 55 57 61 62 57 57 58 64 60 61 59 59 58 61 63 63 65
68 68 68 66 63 64 64 65 63 63 63 63 62 63 64 62 62 59 59 57 57 56 55 54 53 55 53 54 61 61 58 57 57 57 59 62 60 60 59 58 59 60 61
67 68 65 63 62 63 62 60 60 59 61 62 63 64 63 62 61 59 57 56 55 54 53 53 52 51 54 53 54 55 52 54 56 58 58 57 58 61 61 59 58 58 59
62 63 64 64 63 63 61 60 60 58 60 60 60 61 61 59 59 60 55 54 54 52 52 51 50 50 49 50 47 49 46 51 52 55 54 56 56 56 59 62 60 58 57
60 61 64 63 63 61 61 60 59 59 58 58 58 59 58 57 58 56 54 52 51 51 50 49 49 48 45 47 47 44 41 41 44 52 53 54 50 52 53 54 57 59 57
58 60 62 63 63 62 61 58 57 54 54 55 54 54 55 55 55 56 54 52 50 50 48 48 50 46 45 42 44 48 44 45 41 40 46 49 47 48 47 49 51 53 54
60 60 61 63 62 61 60 59 55 54 54 54 52 52 51 52 53 54 54 50 48 48 46 45 45 47 47 45 43 43 43 40 38 35 35 39 43 44 44 45 46 48 52
60 59 59 61 61 60 61 58 54 53 53 50 49 48 48 49 49 50 50 48 47 45 45 45 46 45 44 44 44 43 41 39 39 38 36 36 36 39 42 42 44 46 49

GFSSE_sfc_temp_024.txt.gz
Temp
69 72 74 74 74 74 74 74 74 74 74 75 75 75 74 74 74 74 75 75 76 76 76 76 75 75 75 74 74 73 73 72 72 73 74 76 77 78 77 76 75 76 75
71 73 73 74 74 74 74 74 74 74 75 75 74 74 74 74 74 74 74 75 75 76 76 75 75 74 74 73 72 72 72 72 71 72 73 74 75 77 77 74 74 74 75
71 73 74 73 74 74 74 74 74 75 75 75 74 74 74 74 74 74 74 74 74 75 75 75 74 74 73 72 71 71 71 71 71 71 72 68 71 74 74 73 74 74 74
73 73 73 72 73 74 74 74 74 75 75 74 74 74 74 74 73 73 73 73 74 74 74 74 74 72 71 70 70 70 70 70 70 70 66 69 73 75 75 74 73 75 74
70 72 72 71 72 73 73 73 73 74 73 73 74 74 74 74 73 72 72 72 73 73 73 73 72 71 69 69 69 69 69 69 69 67 63 67 67 74 74 73 72 74 74
68 69 70 70 71 72 73 73 73 72 72 72 73 74 74 73 72 72 71 71 72 72 72 71 70 70 68 68 68 69 68 68 68 61 63 68 68 74 74 70 72 74 74
65 67 69 69 71 72 73 73 72 72 71 72 72 72 73 72 72 71 71 71 71 71 70 70 70 69 68 68 68 68 67 67 63 61 63 64 66 74 74 73 73 74 73
65 66 69 71 71 71 71 71 70 70 71 71 71 71 72 71 71 71 70 70 70 70 70 70 69 69 68 68 68 67 66 66 64 61 63 64 69 74 74 74 72 72 72
66 65 65 67 70 69 69 69 69 70 70 70 70 70 70 70 70 70 70 70 70 70 70 69 69 68 68 68 67 67 66 66 60 62 68 64 72 73 73 73 72 71 71
65 66 63 65 66 65 65 68 68 69 69 69 70 69 69 69 69 69 69 70 70 70 69 69 68 68 68 67 66 66 65 65 60 61 62 62 71 73 73 72 71 71 70
67 66 64 65 65 65 65 68 68 69 69 68 69 69 66 65 65 67 67 68 69 69 69 69 68 67 66 66 66 65 66 60 60 61 60 65 70 73 73 72 70 70 70
66 66 67 65 65 65 73 66 65 68 66 66 66 65 64 63 63 67 66 68 68 68 68 68 67 66 65 60 60 64 60 61 60 60 60 65 69 72 72 72 70 70 70
70 70 68 67 66 66 68 64 63 64 63 64 65 64 63 64 63 63 61 62 60 64 61 62 62 61 60 59 60 59 60 61 58 59 62 66 68 71 72 72 71 70 70
70 71 70 68 67 66 66 64 64 65 64 64 65 65 62 61 60 60 59 59 59 59 59 58 58 60 60 61 61 61 61 59 59 59 59 64 66 69 72 72 72 71 70
72 71 67 67 66 67 66 65 65 65 64 64 64 65 63 61 60 60 60 60 59 59 58 58 59 60 59 60 61 61 61 60 60 59 57 62 64 67 70 72 72 72 71
73 67 65 67 67 68 67 67 65 64 64 63 63 63 64 62 60 60 59 59 59 58 58 58 57 57 57 58 59 60 60 60 59 59 59 58 62 64 67 70 71 72 71
72 69 68 66 66 66 66 66 65 65 64 63 62 62 63 62 60 59 58 58 57 57 57 57 56 56 56 59 57 58 58 59 58 59 59 58 58 61 63 66 68 69 70
70 69 69 70 64 63 64 63 64 64 61 62 62 61 63 62 61 58 57 56 56 56 56 55 54 54 53 53 52 55 55 57 58 58 58 57 58 61 60 63 65 67 68
67 66 62 63 61 62 62 62 61 61 61 60 60 60 61 62 60 57 56 55 55 54 53 53 53 51 50 52 56 57 56 53 55 61 57 58 57 58 59 61 62 63 65
64 63 62 61 61 62 60 60 59 59 59 59 59 59 59 58 58 55 56 53 54 53 52 51 50 50 49 49 56 55 51 53 52 52 54 58 56 57 56 59 59 60 61
64 62 59 59 58 59 57 56 57 56 57 58 59 59 59 59 58 56 53 52 51 50 49 50 49 48 50 48 46 50 49 51 50 50 52 52 54 55 55 56 56 58 60
58 58 59 59 59 59 58 56 57 56 56 56 57 57 57 57 56 57 51 50 49 49 48 47 47 45 46 45 43 43 42 48 46 51 50 52 47 50 50 53 53 55 55
55 56 59 59 59 58 58 57 56 55 54 54 52 52 55 55 54 52 50 48 47 47 45 44 45 44 43 44 44 44 41 40 41 45 48 46 43 45 46 47 50 53 54
56 57 59 59 59 59 58 57 55 52 51 50 49 49 50 51 51 52 49 47 46 45 44 44 47 46 47 43 46 47 45 43 37 37 41 45 43 44 42 42 45 48 51
58 57 57 59 59 58 56 54 52 51 50 49 48 48 49 49 50 50 49 46 45 44 43 42 41 41 41 40 39 39 43 40 38 35 34 35 41 41 40 41 42 44 48
55 55 55 56 56 56 55 53 51 50 48 47 47 46 46 46 45 46 47 44 43 42 41 41 40 40 39 39 39 38 37 37 36 37 36 36 37 38 41 39 40 42 44

GFSSE_sfc_temp_027.txt.gz
Temp
70 71 73 74 74 74 73 73 73 74 74 75 75 74 74 74 74 74 74 75 75 76 76 75 74 74 74 73 73 73 72 72 72 72 74 75 76 77 77 75 75 75 75
70 71 72 73 74 74 74 73 73 74 74 74 74 74 74 74 74 74 74 74 75 75 75 75 74 74 73 72 72 72 72 71 71 71 73 73 74 77 76 75 74 73 75
70 72 73 72 73 74 74 74 74 75 75 74 74 74 73 73 73 73 73 73 74 75 75 74 74 73 72 71 71 71 71 70 70 70 71 67 68 75 76 74 74 74 74
71 71 72 72 73 73 73 74 74 75 74 74 74 73 73 73 73 73 72 73 73 74 74 74 73 72 71 70 70 70 70 70 69 69 64 67 70 75 75 74 74 75 74
69 71 71 71 72 73 73 73 73 73 73 73 73 73 73 73 73 72 72 72 73 73 73 73 72 71 70 69 69 69 69 69 68 65 61 65 67 73 74 73 73 74 74
70 70 69 70 71 72 73 73 73 72 72 72 73 73 73 73 72 72 71 71 72 72 72 72 71 70 69 68 69 68 68 67 66 59 61 65 67 73 74 73 72 72 73
69 68 69 69 71 72 73 73 72 71 71 71 72 72 72 72 72 71 71 71 71 71 71 71 70 70 69 68 69 68 67 66 62 59 60 63 65 72 75 74 73 73 73
67 66 68 70 70 71 72 71 70 70 70 71 71 71 72 72 71 71 71 70 70 70 70 70 70 69 68 68 68 67 66 66 63 60 62 63 68 72 75 74 73 72 72
65 64 65 66 69 69 69 69 69 69 70 70 70 70 70 70 70 70 70 70 70 70 70 70 69 68 68 68 67 66 65 66 59 60 64 62 68 73 74 74 73 72 71
63 63 63 64 64 64 64 68 68 69 69 69 69 69 69 69 69 69 69 69 70 70 70 69 69 68 67 67 66 66 65 64 59 60 60 60 69 72 73 72 72 71 70
64 62 62 62 63 63 63 67 68 69 68 68 68 69 66 64 64 65 67 68 69 69 69 69 68 67 66 65 65 65 65 59 59 59 59 64 68 72 73 73 71 70 70
63 63 62 62 63 63 70 65 64 66 65 65 65 64 63 62 62 65 65 67 68 67 67 67 67 66 64 59 59 62 59 59 59 59 58 65 68 71 73 72 72 71 70
66 66 65 64 63 63 66 63 62 63 63 63 64 63 62 63 61 61 60 59 59 63 59 61 60 59 59 58 58 58 59 59 57 58 60 65 68 71 73 73 72 71 71
65 67 66 64 64 63 63 63 62 62 64 63 63 63 60 59 58 58 58 58 57 57 57 57 56 58 58 58 59 58 58 58 57 58 58 63 66 70 72 73 73 72 71
66 68 66 64 64 64 63 62 63 63 64 64 63 63 61 59 58 58 58 57 57 57 56 56 56 56 56 57 57 57 58 58 58 57 56 62 63 66 70 72 73 73 72
69 68 65 64 63 64 63 63 63 62 63 62 62 62 62 60 58 58 57 57 56 56 55 55 54 54 54 55 56 56 57 56 57 57 57 56 61 63 66 68 71 73 73
70 71 64 64 63 63 63 62 61 62 62 61 61 61 61 60 58 56 55 55 54 54 54 54 54 53 52 54 53 54 54 55 57 56 56 56 57 60 62 64 67 69 71
69 65 63 66 63 61 61 60 60 60 59 59 59 58 58 58 57 54 53 52 53 53 52 52 51 50 50 49 48 50 51 53 54 55 55 54 54 58 59 61 63 66 67
65 62 61 60 61 60 59 58 58 57 58 57 57 57 56 56 55 53 51 51 51 51 50 50 50 48 48 50 52 53 50 49 50 55 53 54 54 54 55 57 59 60 63
59 60 59 61 61 59 56 57 58 59 58 57 55 56 55 55 54 53 53 53 52 51 50 49 47 48 47 46 52 51 48 49 49 47 48 53 51 51 51 52 52 54 57
57 58 58 58 57 57 55 55 55 52 53 53 55 54 53 56 55 51 50 49 48 47 46 46 45 45 45 45 43 48 46 47 46 46 47 46 48 49 49 50 50 51 53
56 57 58 58 59 57 57 55 55 53 52 52 51 52 54 53 52 51 47 47 46 46 45 44 43 43 43 43 40 40 38 45 44 49 45 49 41 45 47 48 48 49 50
55 56 58 57 58 57 57 55 54 54 52 50 49 48 50 50 50 49 47 46 45 44 43 42 42 41 40 42 41 39 35 33 39 42 46 42 40 41 42 43 46 47 48
54 55 56 57 57 57 56 55 54 52 49 48 47 47 48 49 48 48 47 46 44 43 42 42 43 40 40 37 39 43 40 38 37 34 38 42 40 41 39 40 41 43 46
55 53 54 55 55 55 54 53 51 50 49 48 47 47 48 47 47 47 46 44 43 42 41 41 40 39 39 39 37 37 36 37 35 36 33 36 43 39 38 38 39 41 44
54 52 52 53 53 53 53 52 51 48 47 46 45 45 44 44 44 44 45 43 42 41 41 40 39 39 38 37 37 36 36 37 37 37 35 35 36 37 37 37 37 39 41

GFSSE_sfc_temp_030.txt.gz
Temp
69 70 73 74 74 74 73 73 73 74 74 75 75 74 74 74 74 74 74 75 75 75 75 75 74 74 74 73 73 72 72 72 71 72 73 75 76 77 76 75 74 74 75
70 70 72 73 74 74 74 73 73 74 74 74 74 74 74 74 74 74 74 74 75 75 75 74 74 74 73 72 72 71 71 71 70 71 72 72 74 76 76 74 74 74 74
69 70 71 72 73 74 74 74 74 74 74 74 74 74 74 74 73 73 73 74 74 75 75 74 74 73 72 71 71 71 71 70 70 70 70 66 68 75 76 74 74 74 74
70 70 71 72 73 74 73 74 74 75 74 74 74 73 73 73 73 73 73 73 74 74 74 74 73 72 71 70 70 70 70 70 69 68 64 66 69 74 76 75 74 74 74
69 70 71 71 72 73 73 73 73 73 73 73 73 74 73 73 73 73 72 72 73 74 74 74 72 71 70 69 69 69 69 69 68 64 61 64 67 71 74 74 73 73 73
70 70 69 70 71 72 73 73 73 72 72 72 72 73 73 73 73 72 71 72 72 73 73 72 72 70 69 69 69 68 68 68 66 60 61 64 66 72 75 74 72 72 72
70 70 69 69 71 72 73 73 72 71 71 71 72 72 72 73 72 71 71 71 71 72 72 71 70 70 69 69 69 68 67 67 62 60 61 63 64 72 75 75 73 72 72
70 69 68 70 70 71 72 71 70 70 70 70 71 71 72 71 71 71 71 71 71 71 71 70 70 69 69 68 68 67 66 66 63 61 63 63 69 72 75 74 72 72 71
66 65 65 67 69 69 69 69 69 69 70 70 70 70 70 70 70 70 70 70 70 70 70 70 69 68 68 67 67 66 65 65 59 60 64 62 69 72 74 74 73 72 71
62 63 63 64 65 64 65 68 68 68 69 69 70 69 69 69 69 69 69 69 70 70 69 69 68 67 67 66 65 65 65 64 59 59 59 60 69 72 73 73 72 72 71
62 61 61 62 62 62 63 66 68 69 69 68 69 69 66 63 63 65 67 68 68 68 68 68 67 66 65 64 64 64 64 59 59 59 59 64 69 72 73 73 72 71 71
60 61 60 61 61 61 68 64 63 65 64 64 64 64 63 62 61 64 65 66 66 66 66 65 65 64 62 58 58 61 58 59 58 58 59 65 69 72 73 73 72 71 71
62 63 62 61 61 61 64 61 61 61 62 62 63 63 62 62 60 60 59 58 58 62 58 59 58 58 58 57 57 57 57 58 57 58 59 64 66 69 72 73 72 72 71
63 63 63 62 61 61 62 61 61 61 61 61 63 63 60 58 58 57 57 57 56 56 56 55 55 56 56 57 57 56 56 56 56 57 58 62 64 67 70 71 72 73 72
63 63 63 62 62 62 62 61 61 61 62 62 62 62 60 58 56 56 56 55 55 55 54 54 54 54 54 55 55 55 55 55 56 57 55 61 62 65 68 69 71 72 72
66 64 63 62 62 62 61 61 60 61 61 61 60 60 60 57 56 55 54 54 53 53 52 52 52 52 52 53 53 54 54 54 54 54 55 55 60 61 63 65 67 68 70
65 65 61 62 61 60 60 60 60 59 60 58 58 58 57 56 54 53 52 52 51 51 51 51 51 51 50 52 51 52 52 53 53 53 53 54 54 57 59 60 61 63 64
64 61 62 63 60 60 59 58 58 56 55 57 56 55 55 55 53 52 51 50 50 50 50 49 49 49 48 47 47 49 49 50 51 52 52 52 52 54 54 58 58 59 60
61 60 60 60 59 59 57 56 56 56 55 54 54 54 53 54 52 51 49 49 50 49 47 47 47 47 46 46 49 49 48 48 48 52 50 51 50 51 51 53 54 55 57
58 60 60 58 57 57 56 56 57 55 53 53 52 52 52 54 55 54 52 48 48 47 46 46 45 46 45 43 49 49 46 47 47 46 47 50 49 48 48 49 49 50 54
56 59 59 58 58 57 56 53 51 49 50 50 51 52 55 54 51 49 47 47 47 45 44 44 43 43 43 43 42 44 44 46 44 45 48 45 45 47 47 47 47 48 49
55 57 58 57 56 56 54 52 52 49 49 49 49 49 50 50 50 49 46 45 45 44 43 42 41 41 41 41 38 38 36 40 43 47 44 46 41 43 45 46 45 46 47
54 55 57 56 56 55 54 54 50 50 49 48 47 47 48 49 48 47 47 45 44 43 41 40 40 39 38 40 40 38 34 32 38 42 44 42 41 41 42 42 45 45 46
52 53 54 55 54 55 54 52 51 49 47 46 46 45 46 48 47 47 46 45 43 42 41 41 42 40 39 37 38 42 39 38 35 35 42 43 41 43 40 40 41 42 44
52 53 52 54 54 54 53 52 49 47 46 45 45 45 45 45 46 46 45 44 42 42 41 40 39 39 38 37 36 36 36 36 37 36 33 36 41 42 40 40 39 40 43
51 54 54 55 53 52 52 51 50 47 45 45 45 44 44 43 43 43 44 42 41 41 40 39 39 38 37 36 36 35 35 36 36 36 34 33 34 37 39 39 38 39 40

GFSSE_sfc_temp_033.txt.gz
Temp
74 77 74 74 74 74 74 73 74 74 75 75 75 75 75 75 74 74 75 75 75 76 75 75 75 74 74 73 73 72 72 72 71 72 73 74 76 77 76 75 75 81 75
76 78 72 74 74 74 74 74 74 74 75 75 74 74 74 74 74 74 74 75 75 75 75 75 74 74 73 72 72 72 71 71 70 71 72 75 75 77 76 74 74 79 75
75 78 78 72 73 74 74 74 74 75 75 74 74 74 74 74 74 74 74 74 75 75 75 75 74 73 73 72 71 71 71 71 70 70 71 81 80 75 76 74 74 75 75
76 78 79 72 73 74 74 74 74 75 74 74 74 74 74 74 74 73 73 73 74 75 75 75 74 73 72 71 71 71 71 70 69 69 79 79 80 74 75 75 75 74 75
76 78 77 72 72 73 73 73 73 73 73 73 73 74 74 74 73 73 73 73 74 74 74 74 73 72 71 70 70 70 70 69 68 75 79 78 79 76 75 75 75 75 73
75 77 73 71 72 73 73 73 73 72 72 72 73 73 74 74 73 72 72 72 73 74 74 73 72 71 70 69 69 69 68 68 71 80 79 77 78 74 75 75 73 73 72
74 76 76 70 71 72 73 73 72 72 71 72 72 73 73 73 72 72 71 72 72 72 72 72 71 70 69 68 68 68 67 67 76 79 80 79 77 73 75 74 73 72 72
73 74 75 71 71 71 72 71 71 70 71 71 71 72 72 72 71 71 71 71 71 71 71 70 69 69 69 68 68 66 66 66 76 78 78 79 72 73 75 74 72 71 71
73 72 75 76 74 70 69 69 69 70 70 70 70 70 70 70 70 70 70 71 71 70 70 70 69 68 68 67 66 66 65 65 76 76 76 79 70 73 74 74 73 72 71
69 73 73 74 75 75 74 68 68 69 69 69 70 69 69 69 69 69 69 69 70 69 69 69 68 67 67 66 65 65 64 67 75 76 77 77 69 73 74 74 73 72 71
68 70 70 72 72 72 73 72 69 69 69 69 70 69 68 75 74 74 68 68 68 68 68 67 67 65 65 66 64 64 67 75 75 75 76 66 68 72 73 73 72 72 71
68 69 70 70 71 71 73 73 73 74 75 74 74 73 74 72 73 73 69 66 66 66 66 66 65 66 69 73 73 69 73 72 74 73 75 65 67 70 71 72 72 72 72
70 71 71 70 70 71 72 72 73 74 73 73 72 72 72 72 72 73 72 71 70 67 71 70 71 71 69 70 70 70 70 72 72 73 71 64 66 69 71 71 71 72 72
70 72 71 70 69 68 73 73 72 73 72 73 73 71 71 71 68 68 68 69 68 69 68 69 69 67 67 67 67 68 68 70 71 71 70 62 63 66 68 69 70 71 71
70 71 71 70 69 69 69 70 70 70 72 71 71 69 70 69 66 68 66 67 67 68 67 67 67 67 66 67 67 67 67 67 67 69 69 61 60 62 64 66 67 67 68
72 71 70 69 69 70 70 69 69 68 68 68 66 66 67 68 66 66 65 65 65 66 66 66 65 66 65 65 65 65 65 66 66 65 67 67 59 59 60 62 63 64 64
73 69 68 67 67 66 66 64 63 62 64 62 63 63 64 65 64 64 64 64 64 64 64 64 64 65 64 64 63 64 64 64 64 63 64 64 64 60 57 59 60 61 61
71 69 68 66 64 63 62 60 58 57 58 59 61 62 63 62 63 63 63 62 62 63 63 62 61 62 61 61 61 63 63 64 62 61 62 62 63 63 61 57 57 58 58
70 67 64 64 63 61 57 55 54 58 59 61 62 63 62 61 60 62 61 61 61 61 60 60 60 59 58 58 60 62 61 63 62 62 60 60 59 60 60 57 55 55 55
66 66 64 61 59 56 55 56 57 59 59 62 63 63 63 63 61 61 61 59 60 60 58 58 57 58 56 55 57 58 59 61 61 59 59 60 59 57 58 57 58 58 54
63 63 63 57 56 57 57 57 60 59 61 61 63 62 61 61 61 61 60 59 59 57 55 55 56 54 56 54 54 55 57 58 57 58 59 58 57 57 57 57 57 57 58
61 58 60 63 61 64 66 65 65 63 62 61 61 60 61 60 60 60 59 58 57 58 55 54 53 53 54 53 49 51 49 53 57 55 55 56 54 56 56 55 55 55 55
61 63 65 65 65 66 65 63 61 60 60 60 60 61 60 59 59 59 58 59 58 58 57 55 54 51 51 53 51 49 45 44 46 53 52 54 53 54 54 54 54 54 54
61 63 65 65 65 64 63 63 62 64 62 61 60 61 61 58 58 59 57 57 56 57 55 55 56 53 51 49 51 52 49 47 41 41 51 51 50 51 51 52 52 52 53
62 63 64 64 63 63 64 63 63 60 59 59 59 57 57 57 56 56 56 56 55 55 54 53 52 50 51 49 48 48 47 47 47 41 38 41 48 51 51 51 51 51 52
62 61 61 64 61 62 62 61 60 59 58 60 59 59 58 58 57 56 55 55 54 54 52 52 51 50 49 49 49 48 46 43 43 39 39 38 40 45 49 50 49 50 51

GFSSE_sfc_temp_036.txt.gz
Temp
82 84 74 75 74 74 74 74 74 74 75 75 75 75 75 75 75 75 75 75 76 76 76 75 75 74 74 74 73 73 72 72 71 72 73 76 77 77 76 75 75 85 75
84 83 73 74 74 74 74 74 74 74 75 75 75 74 74 74 75 75 75 75 76 76 76 75 75 74 74 73 73 72 72 71 71 71 73 76 75 77 76 75 74 80 75
83 82 81 73 74 74 74 74 74 75 75 75 74 74 74 74 74 74 74 75 75 76 75 75 74 74 73 72 72 72 71 71 70 71 74 89 86 76 76 74 74 75 75
82 84 84 72 73 74 74 74 74 75 75 74 74 74 74 74 74 74 74 74 75 75 75 75 74 73 72 71 71 71 71 70 70 72 87 87 87 74 76 75 76 75 75
82 85 82 72 72 73 74 74 74 74 74 74 74 74 74 74 74 74 73 73 74 75 75 74 73 72 70 70 70 70 70 70 70 81 88 84 86 78 76 74 77 75 73
82 85 74 71 72 73 74 74 73 73 72 73 73 74 74 74 74 73 73 73 74 74 74 73 72 71 70 69 69 69 69 69 71 88 87 83 83 75 76 74 73 72 72
82 83 80 69 72 73 74 73 72 72 72 72 73 73 74 73 73 72 72 72 72 72 72 72 71 70 69 69 68 68 67 68 85 87 87 86 79 74 75 74 73 72 72
80 80 78 71 71 72 72 72 71 71 71 71 72 72 72 72 72 72 71 71 71 71 71 70 70 69 69 68 68 67 66 67 83 85 85 86 72 73 75 74 73 72 72
79 80 81 81 76 70 70 70 70 70 70 70 71 71 70 70 70 70 71 71 71 71 70 69 69 68 68 67 67 66 65 67 83 84 84 85 70 72 74 74 73 72 72
78 84 84 83 83 81 79 69 69 69 70 70 70 69 69 69 70 70 70 70 69 69 69 68 67 67 67 66 66 65 66 68 83 84 85 77 68 71 73 73 73 72 72
77 82 83 83 82 82 82 76 70 69 69 69 71 69 70 82 80 79 67 68 68 68 67 67 67 67 68 67 67 67 68 82 82 83 84 67 68 71 72 72 72 72 72
76 77 78 78 78 78 81 79 79 79 81 81 81 79 83 80 81 79 71 67 67 67 67 67 68 69 74 81 81 74 80 78 81 81 82 65 67 69 70 71 71 71 71
79 79 80 77 77 78 79 81 82 82 81 81 78 80 79 80 80 82 80 81 79 72 80 78 79 79 75 76 77 76 77 78 79 79 75 63 64 67 69 69 70 70 70
80 80 79 78 76 77 81 81 80 82 81 82 81 78 79 80 77 79 80 79 77 78 76 77 77 74 74 74 74 74 74 75 77 77 75 61 62 65 67 67 67 67 67
79 80 79 78 77 77 77 79 80 80 81 78 78 75 78 79 75 76 75 78 76 78 76 75 75 75 74 74 74 73 73 73 73 75 76 60 60 61 63 64 64 65 65
81 79 79 78 78 79 77 76 76 76 76 74 69 68 69 76 74 75 74 74 74 75 74 74 72 72 73 72 72 71 71 72 72 71 74 75 60 60 60 61 62 62 63
81 79 77 76 77 74 73 73 71 70 69 67 67 67 70 72 72 72 72 71 71 72 72 72 71 72 72 72 71 71 72 71 71 70 70 71 71 61 60 59 59 60 60
82 78 74 70 70 69 67 66 67 62 63 65 66 67 67 68 69 69 70 69 69 70 70 70 69 68 69 69 68 70 71 71 70 69 70 68 69 69 65 60 58 58 59
81 76 71 70 69 68 67 58 57 58 62 67 68 69 67 67 68 69 69 68 68 69 68 67 67 66 65 65 66 68 68 68 69 70 67 66 66 66 66 62 59 58 58
80 75 71 71 67 60 57 60 61 63 64 66 67 67 68 69 69 70 69 67 69 68 67 65 63 65 64 63 64 65 65 67 68 67 66 67 66 64 64 63 63 64 58
72 70 71 67 59 59 59 60 62 62 64 68 71 69 69 70 69 69 70 68 67 65 63 63 63 62 62 63 60 62 64 65 63 64 65 64 63 63 62 63 63 62 63
72 72 68 68 65 67 69 71 74 72 72 72 71 69 69 68 69 68 67 67 66 65 63 62 61 60 62 62 55 56 54 59 64 62 62 62 61 62 61 61 60 60 60
69 70 71 73 73 74 74 73 72 70 69 70 69 70 69 68 69 68 67 66 64 64 63 61 61 58 56 60 58 54 49 49 53 59 58 60 58 58 59 59 59 59 59
72 74 77 76 76 74 73 73 71 74 71 72 70 70 71 67 68 67 66 64 63 63 62 62 62 58 57 54 57 58 56 53 47 46 54 55 57 56 56 58 57 58 58
73 74 75 74 74 73 72 73 72 70 70 70 69 67 68 69 66 66 65 64 63 63 62 60 58 57 57 53 53 53 51 50 49 44 41 49 55 56 56 56 56 56 57
73 72 71 72 72 72 72 70 69 67 67 68 69 67 68 67 67 66 65 63 62 61 60 59 58 54 54 53 51 50 48 46 46 44 41 45 48 52 55 55 55 55 56

GFSSE_sfc_temp_042.txt.gz
Temp
78 76 74 75 74 74 74 74 74 74 75 75 75 75 75 74 75 75 75 75 75 76 76 76 75 75 75 74 74 73 73 72 72 74 76 76 77 77 76 74 76 76 75
78 78 73 74 74 74 74 74 74 74 75 75 74 74 74 74 74 75 75 75 76 76 76 75 75 75 74 73 73 73 73 72 72 73 75 76 76 77 76 74 74 75 75
80 77 76 73 74 74 74 74 75 75 75 75 74 74 74 74 74 74 74 74 75 76 76 75 75 74 73 72 72 72 72 72 72 72 74 72 75 76 76 74 74 74 74
81 80 77 72 73 74 74 74 74 75 75 74 74 74 74 74 74 74 74 74 75 75 75 75 74 73 72 71 71 71 71 71 71 72 76 77 77 75 75 75 75 74 75
81 81 74 72 72 74 74 74 74 74 74 74 74 75 75 74 74 74 73 73 74 75 75 74 73 72 70 70 70 70 71 71 72 76 75 73 73 76 75 73 73 73 72
76 74 71 71 72 73 73 73 73 73 73 73 74 74 74 74 74 73 73 73 73 74 74 73 72 71 69 69 69 70 70 70 72 75 73 72 71 75 75 73 72 72 72
72 72 72 70 72 73 73 73 72 72 72 73 73 73 73 73 72 72 71 72 72 72 72 72 71 70 69 69 69 68 68 68 73 74 71 68 68 74 74 74 72 72 72
69 70 72 72 72 72 72 72 71 71 71 72 72 72 72 72 72 71 71 71 71 71 71 70 70 69 69 69 69 68 68 68 74 73 74 68 71 73 74 73 72 71 71
68 69 72 73 71 70 70 70 70 70 70 70 70 70 70 70 70 71 70 71 71 70 70 70 69 69 69 69 70 69 68 68 68 72 75 67 71 72 73 72 72 71 71
68 69 71 72 73 71 71 69 69 69 69 70 70 70 69 70 70 70 69 70 70 70 69 69 69 69 69 69 69 70 68 70 72 71 66 64 71 72 72 71 71 70 70
67 70 75 74 73 72 71 70 69 69 69 69 69 69 68 72 70 72 68 68 69 68 69 69 69 69 69 68 68 71 69 69 70 69 64 67 70 72 71 70 69 69 69
65 71 77 74 74 73 76 71 71 71 71 72 72 69 71 71 71 73 68 68 68 68 68 69 70 70 71 69 68 70 67 67 68 68 61 66 69 70 70 68 68 67 67
76 75 76 73 72 74 72 72 72 72 72 73 72 72 73 73 71 68 66 67 65 67 69 69 70 69 69 67 67 66 66 66 65 66 63 65 67 69 68 67 67 66 66
76 76 75 74 73 72 75 75 74 76 73 71 72 72 70 69 70 70 69 70 69 69 67 67 66 66 66 67 67 66 66 65 64 64 61 63 65 67 67 66 66 65 65
76 75 75 74 73 74 74 73 72 70 69 68 68 68 66 68 68 69 69 68 67 66 65 64 63 64 64 66 66 66 64 64 64 63 61 62 63 64 65 65 65 65 64
77 75 74 74 73 74 71 70 68 68 68 68 68 67 68 68 68 68 66 65 64 64 63 63 61 61 62 63 63 64 63 62 63 62 62 60 62 62 63 63 64 64 64
77 76 74 73 73 70 69 68 68 68 68 66 65 66 66 66 63 63 62 62 62 63 62 61 61 61 60 63 61 61 61 61 61 61 60 61 59 61 61 62 63 63 64
78 75 75 75 71 68 67 67 66 65 64 63 63 63 65 65 65 63 62 61 61 61 60 59 58 57 57 57 56 57 57 60 60 60 61 59 59 61 61 62 63 63 63
78 76 71 69 66 65 64 62 59 60 59 61 61 63 63 64 64 62 61 60 60 60 58 58 56 54 53 54 57 56 55 57 58 64 60 60 58 57 56 61 61 61 61
77 73 70 67 64 63 62 61 61 59 59 61 62 62 63 64 65 63 61 60 60 59 57 56 54 54 53 53 60 57 53 54 57 57 57 61 57 56 56 56 53 55 59
73 68 68 65 65 63 63 61 61 60 61 62 63 63 64 65 65 62 61 60 59 57 56 56 54 52 51 52 50 51 51 53 53 54 54 53 54 56 54 54 52 52 53
72 71 67 66 66 66 69 68 66 64 63 64 65 64 66 65 65 63 60 59 58 56 56 55 53 50 51 51 46 47 43 47 50 53 50 52 50 53 54 55 52 53 51
71 68 69 67 67 68 70 70 68 66 65 64 64 63 64 65 65 64 62 59 57 56 53 53 52 51 47 49 50 46 42 38 44 47 48 49 47 47 49 51 53 53 52
71 69 70 70 71 72 71 69 66 66 63 65 64 65 63 64 64 65 62 59 57 55 54 53 56 51 49 46 48 53 46 44 38 38 44 45 47 49 47 47 48 50 51
70 70 70 72 73 72 71 69 66 66 64 65 64 62 63 61 62 62 61 58 56 55 53 52 51 50 49 47 45 44 44 42 42 38 36 39 45 46 46 47 46 47 50
71 71 72 73 72 72 70 69 67 65 64 62 62 60 61 61 60 60 59 55 54 53 52 50 50 49 48 47 46 44 42 41 40 37 36 37 38 42 44 45 45 47 46

GFSSE_sfc_temp_045.txt.gz
Temp
71 74 74 75 74 74 74 74 74 74 74 75 74 74 74 74 74 75 75 75 76 76 76 76 75 75 75 75 74 74 73 73 72 74 76 76 77 76 75 74 74 74 75
72 74 73 74 74 74 74 74 74 74 74 75 74 74 74 74 74 74 75 75 75 76 76 75 75 75 75 74 73 73 73 72 72 73 74 76 76 76 75 74 74 74 74
73 74 74 73 74 74 74 74 74 75 75 75 74 74 74 74 74 74 74 74 75 76 76 75 75 74 74 73 72 72 73 73 72 73 74 70 72 75 75 74 73 74 74
73 73 73 73 73 74 74 74 74 75 74 74 74 74 74 74 74 74 74 74 74 75 75 75 74 74 72 72 72 72 72 73 73 73 72 72 74 75 74 73 73 73 73
73 74 73 72 72 73 74 74 73 73 73 74 74 74 74 74 74 74 73 73 74 74 75 74 73 72 71 70 71 71 71 72 72 72 64 67 69 75 74 73 72 72 72
72 72 71 71 72 73 73 73 73 73 73 73 73 74 74 74 73 73 72 72 73 74 74 73 72 71 70 70 70 70 70 70 70 65 64 68 69 75 74 73 72 72 71
70 71 72 70 71 73 73 73 72 72 72 72 72 72 73 73 72 72 71 71 72 72 72 72 71 70 70 70 70 70 70 70 67 63 62 63 68 74 74 72 72 71 71
69 70 72 72 71 71 72 71 71 71 71 71 71 72 72 72 71 71 71 71 71 71 71 70 70 70 70 70 70 69 69 69 69 64 64 64 71 73 73 72 71 71 71
67 68 69 69 71 69 69 69 69 70 70 70 70 70 70 70 70 70 70 70 70 70 70 70 69 69 69 69 69 69 68 69 65 64 68 62 72 72 72 71 70 70 70
66 66 67 68 69 68 69 69 69 69 69 69 69 69 69 69 69 69 69 69 70 70 70 70 69 69 69 69 68 67 68 68 65 62 61 63 71 72 71 70 69 69 69
66 67 67 68 69 67 68 69 69 69 69 69 69 69 66 67 68 68 68 69 69 69 69 69 70 69 68 68 67 67 67 64 64 61 59 67 70 72 70 69 68 67 67
63 65 67 69 68 69 72 67 66 69 67 66 67 66 66 66 66 69 67 68 69 68 69 69 69 69 68 65 64 65 62 63 62 61 59 67 70 70 69 68 67 66 66
65 68 68 70 68 69 68 67 67 66 65 66 67 66 66 67 66 64 62 64 62 66 64 66 65 64 64 62 62 61 62 61 59 60 62 65 68 69 69 67 66 66 65
64 68 71 71 70 69 69 68 68 67 65 65 65 66 65 65 63 64 64 66 63 62 61 60 59 61 61 63 62 61 60 59 59 59 58 64 66 67 67 67 66 65 65
69 70 69 69 69 69 66 65 66 64 65 65 64 65 64 63 62 63 61 60 60 60 60 59 58 59 59 60 60 60 60 60 59 58 55 63 63 65 66 66 65 66 65
70 69 67 67 67 67 65 65 65 64 64 64 63 63 64 63 61 61 60 60 60 60 59 57 57 56 56 57 58 58 58 57 58 57 56 54 62 63 64 64 65 65 65
70 69 66 65 66 65 64 64 63 64 63 63 61 62 62 62 59 59 58 57 58 58 57 56 56 55 54 56 55 56 56 56 56 56 57 56 56 61 62 63 64 64 63
70 69 68 69 64 63 61 59 59 58 60 60 59 59 61 62 60 58 57 56 56 56 55 54 53 52 51 51 50 50 51 54 54 55 56 55 54 55 59 62 63 63 62
72 69 64 63 61 60 59 58 57 57 56 57 57 58 61 60 60 59 56 55 55 54 53 54 52 51 49 49 53 51 50 50 52 56 55 54 53 53 52 59 60 60 61
70 65 63 62 59 58 57 57 56 55 55 55 55 56 59 60 60 57 56 55 55 54 52 52 51 50 49 48 55 52 49 49 49 47 49 54 52 52 51 51 49 51 58
65 63 62 60 59 58 56 54 53 52 53 54 56 58 59 59 59 56 55 54 54 52 52 51 49 49 48 47 45 45 46 48 50 47 47 47 49 51 50 49 49 48 50
64 62 61 61 60 59 58 57 57 54 55 56 57 57 59 59 59 58 55 53 53 52 51 50 49 47 46 46 43 41 39 44 45 48 45 47 45 47 49 51 49 50 47
63 61 61 62 61 61 61 60 58 56 55 54 55 55 57 60 60 58 56 54 53 51 49 48 48 47 44 45 46 43 37 34 37 43 45 44 43 43 43 45 49 49 49
62 62 63 63 62 63 65 61 57 55 55 56 56 56 57 59 59 59 57 54 52 51 50 48 51 46 44 42 43 49 42 40 34 33 39 42 43 45 43 42 43 46 46
63 62 63 64 63 64 66 63 60 56 56 56 57 57 57 59 60 58 54 51 51 49 48 47 46 45 44 42 41 40 40 39 39 35 33 35 40 42 42 41 41 42 45
64 63 63 64 65 64 63 61 59 58 58 58 59 58 58 57 55 53 53 50 49 48 47 45 45 44 43 42 42 41 40 40 40 39 34 33 33 37 40 40 40 41 41

GFSSE_sfc_temp_048.txt.gz
Temp
70 74 74 74 74 74 74 74 74 74 74 74 74 74 74 74 74 74 75 75 75 76 76 76 76 76 76 75 75 74 74 73 74 74 75 76 76 76 74 74 73 73 74
72 74 73 74 74 74 74 74 74 74 74 74 74 74 74 74 74 74 75 75 75 76 76 76 76 75 75 74 74 73 73 72 73 73 74 75 75 75 74 73 73 73 74
73 73 74 73 74 74 74 74 74 74 75 74 74 74 74 74 74 74 74 74 75 76 76 76 75 75 75 74 73 73 72 72 72 73 73 67 71 74 74 73 73 73 73
74 74 73 73 73 74 74 74 74 75 74 74 74 74 74 74 74 74 74 74 74 75 76 76 75 75 74 72 72 72 72 72 71 70 67 67 73 74 74 73 73 73 72
73 73 72 72 73 73 73 74 73 73 73 73 74 74 74 74 74 74 73 73 74 75 75 75 75 74 72 71 71 71 71 70 69 67 62 65 68 74 73 72 71 72 71
71 72 71 71 72 73 73 73 73 73 72 73 73 74 74 74 73 73 72 73 73 74 74 74 73 72 70 71 71 70 70 69 67 60 61 67 68 74 73 72 71 71 71
70 71 71 70 71 72 73 73 72 72 72 72 72 73 73 73 73 72 71 72 72 73 73 72 72 71 70 70 70 70 69 68 62 60 61 63 67 73 73 71 70 70 70
67 69 71 71 71 71 72 71 71 71 71 71 71 72 72 72 71 71 71 71 71 71 71 70 70 70 70 70 69 69 68 68 65 61 62 62 71 72 72 71 70 69 69
66 65 65 67 70 69 69 69 69 70 70 70 70 70 70 70 70 70 70 71 71 70 70 70 69 69 70 69 69 67 67 66 60 61 66 61 72 71 71 70 69 69 68
65 65 65 66 67 67 68 68 68 68 69 69 69 69 69 69 69 70 69 70 70 70 70 70 69 69 69 68 67 66 66 66 59 59 59 62 71 71 70 69 68 67 67
63 64 65 65 66 66 67 69 69 69 69 68 69 68 67 66 66 66 67 69 69 69 70 69 69 68 67 66 67 66 65 60 59 58 58 67 70 70 69 68 67 66 65
62 63 65 66 66 67 70 66 66 69 66 65 66 65 65 64 65 67 67 68 69 68 68 68 67 66 65 62 61 63 59 60 59 57 57 67 70 70 68 67 66 66 65
65 65 65 66 66 65 67 64 63 63 63 64 65 63 63 65 63 61 61 62 61 65 63 63 62 61 61 59 59 58 58 57 54 56 59 65 68 69 68 67 66 65 64
63 65 67 67 65 63 66 64 64 65 63 63 64 65 62 62 62 61 60 60 60 59 58 58 57 58 58 59 58 57 57 55 54 55 56 63 66 68 67 67 66 66 64
64 67 68 68 66 65 64 63 63 63 63 63 62 63 63 61 59 60 60 59 58 58 57 56 56 56 55 57 56 56 56 55 55 54 52 61 63 66 66 66 66 66 64
67 67 68 67 64 65 63 63 62 63 62 61 61 61 62 61 60 59 57 57 56 56 55 54 53 52 52 53 54 54 54 54 54 54 52 51 61 64 65 65 64 65 64
69 68 67 63 63 62 61 63 61 61 61 59 60 60 60 60 58 57 56 55 55 55 54 53 52 52 51 53 52 52 52 52 52 52 52 52 54 60 62 63 63 63 63
68 67 65 67 62 61 59 59 59 58 58 58 58 58 59 59 58 56 55 54 54 53 52 51 50 50 49 48 48 47 49 51 51 52 52 51 50 52 57 61 62 61 62
68 64 62 62 61 60 58 57 56 57 56 56 56 57 58 58 57 56 55 53 52 52 51 52 49 48 47 47 50 47 47 48 47 53 50 50 50 49 49 58 59 60 60
68 65 62 61 60 57 56 56 54 54 54 54 55 56 58 57 58 54 53 52 52 51 50 49 48 48 47 46 53 50 46 47 46 46 46 51 49 49 48 49 47 48 58
63 62 61 59 57 57 55 53 52 52 53 53 54 57 57 57 56 54 52 51 51 51 49 50 48 47 46 44 43 43 44 44 46 45 45 45 47 48 47 47 45 45 47
61 61 60 59 58 57 57 54 55 53 53 54 54 55 56 56 55 55 52 51 51 50 49 48 46 44 44 44 42 39 38 41 42 46 43 45 42 44 46 48 46 46 44
60 59 60 59 59 58 58 57 54 54 52 52 52 53 55 56 57 55 53 51 51 49 48 46 45 44 42 42 43 42 36 33 35 40 43 42 41 41 41 43 45 45 45
60 60 60 60 59 59 58 57 55 53 53 52 52 53 54 56 56 56 54 51 49 48 47 47 47 43 42 40 41 46 40 39 34 34 38 41 41 42 40 39 40 43 43
60 59 60 60 60 61 60 59 56 52 53 53 52 53 53 54 55 54 51 49 48 47 47 46 43 42 41 40 39 38 38 37 36 33 32 33 38 40 40 39 39 40 42
60 59 60 60 60 60 60 59 57 55 54 53 52 52 52 51 50 52 51 48 47 47 46 45 42 42 41 39 38 38 38 37 36 39 37 38 36 35 38 40 39 39 39

GFSSE_sfc_temp_051.txt.gz
Temp
69 73 73 74 74 74 73 73 73 74 74 74 74 74 74 74 74 74 74 75 75 76 76 76 76 76 75 74 74 74 74 74 73 74 75 75 75 75 74 73 73 72 74
72 75 73 73 74 74 74 73 73 74 74 74 74 74 74 74 74 74 74 75 75 76 76 76 76 75 74 74 73 73 73 72 72 73 73 74 75 74 74 73 73 72 73
72 74 73 73 74 74 74 74 74 74 75 74 74 74 74 74 74 74 74 75 75 76 76 76 76 75 74 73 73 73 72 72 71 72 72 65 70 74 74 73 72 73 73
74 74 73 72 73 73 73 74 74 75 74 74 74 74 74 74 74 74 74 74 75 76 77 76 75 75 73 72 72 72 71 70 70 69 65 66 71 74 73 72 72 72 72
73 74 72 72 72 73 73 73 74 73 73 73 74 74 74 74 74 74 73 73 74 75 76 76 74 73 72 70 71 70 70 69 68 66 61 64 66 73 72 71 71 71 71
71 72 71 71 72 73 73 73 73 73 72 73 73 74 74 74 74 73 73 73 74 75 75 75 73 72 70 70 70 69 68 67 65 59 60 65 66 73 72 71 70 70 70
69 71 70 70 72 72 73 73 72 72 72 72 73 73 73 73 73 72 72 72 72 73 73 73 72 71 70 69 69 68 67 67 60 59 60 62 67 72 72 70 69 69 69
65 68 70 71 71 71 72 71 71 71 71 71 72 72 72 72 71 71 71 71 71 71 71 71 70 70 70 69 68 67 66 66 63 60 61 61 70 71 71 70 68 68 68
64 64 65 66 69 69 69 69 69 70 70 70 70 70 70 70 70 70 70 71 71 70 70 70 70 69 69 69 68 66 65 65 59 59 64 61 70 70 70 69 68 67 66
62 62 63 66 66 67 68 68 68 68 69 69 69 69 68 68 69 69 70 70 70 70 70 70 69 68 68 67 66 65 64 63 57 57 58 62 70 70 69 68 67 66 66
61 61 62 64 65 66 66 68 68 69 68 68 68 68 66 64 64 65 68 69 69 69 69 68 67 66 65 65 65 64 63 57 57 56 56 66 70 69 68 67 66 65 65
59 60 61 63 64 65 69 66 65 67 65 65 64 64 64 63 63 66 66 68 68 68 67 66 66 65 63 59 59 61 56 56 55 55 56 66 70 69 68 66 66 65 65
61 61 62 63 65 64 65 63 62 62 62 63 64 63 63 63 61 61 60 60 59 63 61 61 60 59 58 57 56 55 55 54 51 53 57 64 68 69 68 66 66 65 64
61 63 64 65 64 62 62 61 61 63 62 62 62 63 61 61 59 59 59 59 58 57 56 56 56 56 55 56 55 54 53 51 51 52 53 62 64 68 67 66 66 65 64
63 63 63 64 64 63 62 60 61 61 62 62 62 63 62 61 59 58 57 57 56 56 55 54 53 54 53 53 53 53 52 52 52 51 49 59 61 66 66 66 66 65 64
64 64 65 64 64 63 61 61 61 62 62 61 60 61 61 59 57 57 56 55 54 54 53 52 52 51 50 51 51 52 51 51 50 50 49 49 61 63 65 65 65 65 64
64 66 65 64 63 62 61 61 61 61 60 59 59 59 59 57 57 56 54 55 53 53 52 51 50 50 50 51 49 50 50 49 50 49 49 49 51 59 61 63 63 63 63
65 65 66 66 62 60 60 59 59 58 58 58 57 57 57 57 57 54 54 53 52 51 51 50 49 48 47 47 46 47 48 48 49 49 49 48 48 50 54 60 61 61 61
64 64 63 61 59 58 57 56 56 57 56 56 56 56 57 57 56 55 53 51 51 50 49 51 47 48 46 45 48 46 47 45 47 50 48 48 48 48 48 56 57 57 60
63 62 61 60 58 57 56 55 54 54 54 54 54 55 56 56 56 53 51 50 50 49 48 48 47 46 45 45 50 49 45 43 44 43 45 49 47 47 46 47 44 46 56
60 59 59 58 56 57 56 54 52 52 52 52 53 55 56 56 55 52 50 50 50 49 48 48 46 46 44 43 42 41 41 42 43 43 43 43 45 45 45 44 43 43 44
60 59 58 59 57 58 58 53 54 52 52 52 53 54 55 55 54 53 51 50 49 48 47 46 45 43 42 42 41 37 36 39 41 43 41 43 41 42 45 45 44 44 42
59 59 59 59 58 58 57 55 52 52 51 51 51 52 53 54 54 53 51 50 48 47 46 45 44 44 41 42 43 41 35 32 34 39 41 41 40 40 40 41 43 44 43
61 61 60 59 58 58 58 56 53 52 50 52 51 51 52 54 54 53 51 49 47 46 45 45 45 42 43 40 40 44 39 38 33 32 37 39 38 40 39 38 40 41 42
61 58 58 58 58 59 58 57 54 51 52 51 51 52 51 51 51 52 50 48 46 46 44 44 43 42 41 38 37 37 36 35 34 32 29 32 37 39 38 38 38 38 40
58 58 57 58 58 59 58 56 54 53 51 51 50 49 49 48 48 48 49 49 49 48 44 43 42 41 39 37 37 36 36 36 35 34 32 35 38 39 36 37 37 37 37

GFSSE_sfc_temp_054.txt.gz
Temp
70 72 73 74 74 74 73 73 73 73 74 74 74 74 74 74 74 74 75 75 75 76 76 76 75 75 75 75 75 74 73 73 73 74 75 75 75 74 74 73 72 72 74
73 73 73 74 74 74 73 73 73 74 74 74 74 74 74 74 74 75 75 75 76 77 76 75 75 75 75 74 74 73 73 72 72 72 73 74 74 74 73 72 72 72 73
72 73 73 73 73 74 74 74 74 74 74 74 74 74 74 74 74 75 75 75 76 76 76 76 76 75 75 73 72 72 72 71 71 71 71 66 70 74 73 72 72 72 73
73 73 72 72 73 73 73 74 74 74 74 74 74 74 74 74 74 74 75 75 75 76 76 76 75 74 73 72 71 71 71 70 69 68 65 66 71 73 72 72 72 72 72
72 73 72 72 72 73 73 74 74 73 73 73 74 74 74 74 74 74 74 74 75 75 76 75 74 73 71 70 70 70 69 69 67 65 62 65 67 72 72 71 70 70 70
71 71 70 71 72 73 73 73 73 73 72 73 73 74 74 74 74 74 73 74 75 75 75 74 73 71 70 69 69 69 68 67 65 60 61 66 66 72 71 70 70 69 69
67 70 70 70 72 73 73 73 72 72 72 73 73 73 74 74 73 72 72 72 73 73 73 73 72 70 69 69 69 68 67 66 60 59 60 63 66 71 70 69 68 68 68
65 65 69 70 70 71 72 72 71 71 71 72 72 72 73 72 72 72 71 71 71 72 72 71 70 70 69 69 68 67 66 65 62 60 61 62 69 70 70 69 68 67 67
64 63 63 65 66 69 69 69 69 70 70 70 71 71 70 70 70 71 71 71 71 71 70 70 69 69 68 67 66 65 65 65 57 59 63 62 70 70 69 68 67 67 66
63 61 62 63 65 66 68 68 68 68 69 69 69 69 68 68 69 69 69 70 70 70 70 69 68 67 67 66 65 64 63 62 56 57 58 63 70 69 68 68 67 66 66
61 61 63 61 63 65 66 68 68 69 68 68 68 68 65 63 64 65 68 69 69 69 68 67 66 65 64 64 64 63 60 54 55 56 57 66 70 69 68 67 66 66 65
58 60 63 64 65 65 68 64 64 67 64 64 64 63 63 62 61 65 66 67 68 67 66 66 65 64 61 57 57 58 53 54 54 55 56 65 69 69 67 66 65 65 65
59 61 62 65 64 65 64 63 63 63 60 61 62 62 62 62 60 60 59 60 59 62 59 59 59 57 56 55 54 52 52 52 51 52 56 63 66 69 67 66 65 65 64
60 62 61 62 62 63 63 61 61 62 61 60 61 62 61 59 58 59 59 58 57 55 55 54 54 54 53 54 53 52 51 50 50 51 52 61 63 68 67 67 66 64 64
58 61 61 61 61 61 61 61 61 60 61 60 61 62 61 59 57 57 56 56 55 54 54 52 52 52 51 51 51 51 50 50 50 50 48 57 62 66 67 66 66 65 64
61 62 62 62 61 61 60 59 59 60 61 61 61 61 61 59 57 56 55 54 53 52 52 51 50 49 49 50 50 50 50 50 49 49 49 51 61 63 64 65 65 65 64
63 64 63 62 61 60 60 60 59 60 60 59 59 59 59 57 56 54 53 52 51 51 51 52 49 49 49 50 49 49 49 49 49 48 48 50 51 58 61 63 63 63 63
60 61 62 64 60 59 59 58 58 59 58 58 57 56 56 57 56 53 53 51 51 51 51 49 48 48 47 47 46 47 47 48 48 48 48 48 49 51 55 60 60 61 61
60 60 60 59 58 58 57 56 57 57 57 56 56 56 56 56 55 54 55 52 50 50 48 50 47 47 46 45 47 46 45 45 46 50 48 48 48 48 48 53 55 56 58
60 60 59 58 57 56 55 54 54 54 54 54 54 54 55 55 54 52 51 50 50 48 47 47 47 45 45 44 49 48 43 44 44 44 46 49 47 47 46 47 46 47 54
59 59 59 57 56 56 56 54 52 52 52 52 54 55 55 54 53 52 50 49 48 48 47 47 45 45 43 43 43 42 42 42 43 43 44 44 46 46 46 45 45 45 45
59 59 58 58 56 57 57 53 54 52 52 52 53 53 54 54 53 52 50 48 48 47 46 46 45 43 42 42 41 38 37 40 42 43 42 44 43 43 44 45 44 45 44
58 58 59 58 57 57 56 54 51 52 51 51 50 51 52 53 53 52 50 48 47 46 45 44 44 44 41 41 42 40 35 34 35 39 41 41 41 41 41 42 43 44 44
61 59 59 58 57 57 56 55 53 52 50 51 51 51 52 52 52 51 49 48 46 45 44 44 45 42 41 40 40 43 40 39 35 33 38 39 40 42 40 40 41 41 42
60 58 59 58 57 57 56 56 54 52 52 51 51 51 50 50 50 50 48 46 45 44 43 43 43 42 40 40 38 38 37 36 35 34 33 35 41 42 41 40 39 40 40
56 56 56 57 57 57 57 56 54 53 52 51 49 50 48 47 47 47 47 45 46 45 44 45 44 43 41 39 37 37 37 36 35 34 31 33 39 38 41 40 39 38 38

GFSSE_sfc_temp_057.txt.gz
Temp
75 78 73 74 74 74 73 73 73 74 74 74 74 74 74 74 75 75 75 75 76 77 77 76 76 77 76 76 75 74 73 73 73 74 75 75 75 75 74 73 75 78 73
76 79 73 74 74 74 74 73 73 74 74 74 74 74 74 74 75 75 75 75 76 76 76 76 76 76 75 75 73 73 73 72 72 72 74 75 74 74 73 73 73 76 73
75 78 78 73 73 74 74 74 74 74 74 74 74 74 74 75 75 75 75 75 76 76 77 76 76 75 75 73 72 72 72 71 71 71 73 80 78 73 73 72 72 73 73
75 77 79 72 73 73 73 73 74 74 74 74 74 74 74 75 75 75 75 75 75 76 77 77 75 75 73 72 71 71 71 70 70 72 78 79 78 73 73 72 72 72 73
75 77 77 72 72 73 73 73 73 73 73 73 74 74 75 75 75 75 74 74 75 76 76 75 74 73 71 70 70 70 70 69 69 75 78 77 78 73 71 71 72 71 70
74 74 71 71 72 73 73 73 73 73 73 73 73 74 75 75 75 74 74 74 75 75 75 74 73 71 70 69 69 69 68 68 71 77 77 75 75 71 70 70 69 69 69
67 72 71 70 71 73 73 73 73 72 72 73 73 73 74 74 74 73 73 73 73 73 73 73 71 70 69 69 68 68 67 67 76 76 76 76 73 71 70 69 68 68 68
65 66 68 71 70 69 72 72 71 71 72 72 72 73 73 72 72 72 72 72 72 71 71 71 70 69 69 68 68 66 66 67 74 75 75 75 71 70 70 69 68 68 67
64 64 62 62 63 64 68 69 70 70 71 71 71 71 70 70 70 71 71 71 71 71 70 70 69 68 68 67 66 65 64 65 74 74 74 75 70 70 69 68 68 67 67
64 63 62 60 61 63 66 67 68 68 69 69 69 69 68 69 69 70 70 70 70 70 70 69 68 67 66 65 65 64 63 65 73 73 74 74 69 69 68 68 67 67 66
62 63 62 61 62 64 67 69 69 69 68 68 69 67 68 74 74 74 69 69 69 68 68 67 66 65 64 64 63 63 65 71 72 72 74 67 69 69 68 67 66 66 66
61 61 62 63 64 65 67 66 66 69 69 69 69 70 73 71 73 73 70 67 67 67 66 66 65 64 67 70 69 66 69 68 70 70 72 65 69 69 68 66 66 66 65
61 63 65 66 67 67 67 66 70 70 70 70 68 70 70 70 70 70 70 70 69 66 70 69 67 68 66 68 67 66 66 67 69 70 67 63 66 69 68 67 66 65 65
62 65 64 64 65 66 69 69 69 70 70 70 68 69 68 68 67 68 68 67 65 66 65 66 66 64 64 63 64 64 64 67 67 68 66 60 63 68 68 67 66 65 64
63 65 66 67 67 68 67 68 68 68 70 67 67 68 67 66 66 68 65 66 65 66 65 65 65 64 64 64 64 64 64 63 64 67 68 62 64 67 67 67 66 65 65
67 67 68 68 68 69 68 68 67 68 68 68 68 68 67 66 65 65 65 66 65 66 66 66 66 65 64 64 63 63 63 64 64 63 66 66 61 63 65 65 65 65 64
68 69 68 68 68 68 68 68 68 69 68 68 69 68 68 67 66 64 64 64 64 63 62 63 63 64 64 65 62 63 64 63 63 62 64 66 65 60 62 62 62 62 63
69 68 69 69 67 68 67 68 68 69 69 69 68 67 66 65 64 62 62 62 62 63 61 60 64 63 63 64 63 63 62 63 61 61 63 64 65 68 62 59 59 59 60
69 69 68 68 67 67 67 67 66 66 66 67 66 65 64 64 63 62 63 61 61 62 63 63 62 62 62 62 64 64 62 63 61 63 62 62 62 64 65 58 55 55 57
70 69 69 68 67 66 65 64 65 65 66 65 66 64 64 64 63 64 64 57 63 61 61 62 61 60 61 62 61 62 60 61 61 61 62 62 62 60 61 60 62 61 53
69 67 68 66 65 64 63 61 60 60 62 63 63 64 63 65 64 63 61 58 62 62 61 60 59 58 59 59 60 60 59 57 57 59 59 61 59 60 59 60 60 60 61
67 67 66 66 65 66 68 66 66 64 63 64 63 63 64 64 64 63 59 61 62 61 59 59 59 57 58 58 57 55 54 55 56 57 58 58 57 59 58 56 55 56 57
66 65 66 67 66 66 67 65 63 62 62 61 61 62 63 63 63 61 60 61 60 61 59 58 58 57 56 56 54 55 52 51 52 56 55 57 55 57 56 55 55 54 54
66 66 68 67 66 65 64 64 62 64 62 62 61 62 63 59 58 60 61 60 59 60 58 57 57 57 56 54 54 55 54 53 50 48 54 54 54 54 54 54 54 53 53
68 64 66 66 66 66 64 65 62 62 64 60 59 60 60 61 61 61 60 58 58 58 56 56 54 54 55 53 53 52 51 52 51 48 46 50 53 54 54 54 53 52 51
67 65 65 65 65 65 64 63 62 62 60 57 57 56 58 60 59 59 59 58 57 56 55 52 50 48 47 53 50 48 50 50 51 48 46 46 46 50 52 52 52 52 52

GFSSE_sfc_temp_060.txt.gz
Temp
78 84 73 75 75 75 74 74 74 74 74 75 75 75 75 75 75 75 76 76 76 77 77 77 77 77 76 75 74 74 73 73 74 75 75 75 75 75 74 73 77 80 73
81 84 73 74 74 74 74 74 74 74 75 75 74 74 74 75 75 75 75 76 76 77 77 77 76 76 75 74 73 73 73 72 72 74 75 75 74 74 74 73 73 77 73
81 83 81 73 73 74 74 74 74 74 75 74 74 74 75 75 75 75 75 75 76 77 77 76 76 75 74 73 72 72 72 72 72 73 77 85 80 74 73 73 73 73 73
82 81 81 72 73 73 73 74 74 75 74 74 74 75 75 75 75 75 75 75 76 77 77 76 76 74 73 72 72 71 71 71 72 75 85 85 82 73 73 72 72 71 72
82 80 78 72 72 73 73 74 74 74 73 74 74 75 75 75 75 75 74 75 76 77 76 76 74 73 71 70 70 70 70 71 72 80 84 82 81 73 71 71 72 71 70
79 79 72 71 72 73 73 73 73 73 73 73 74 75 75 75 75 74 74 74 75 75 75 74 73 71 70 69 69 69 69 70 73 84 83 78 77 71 70 70 69 70 69
67 74 73 70 72 73 74 73 73 73 73 73 73 74 74 74 74 73 73 73 74 74 74 73 72 70 69 69 68 68 68 70 83 83 83 80 75 70 70 69 69 68 68
62 63 68 69 70 69 70 71 71 72 72 72 73 73 73 73 72 72 72 72 72 72 71 71 70 70 69 68 68 67 67 69 81 82 81 78 71 70 70 69 68 68 68
62 62 61 61 64 65 66 68 69 70 71 71 71 71 71 71 71 71 71 71 71 71 70 70 69 68 68 67 66 65 65 68 81 81 81 79 69 70 69 68 68 68 67
63 63 61 59 60 61 63 66 68 68 69 69 69 69 69 69 70 70 70 70 70 70 69 69 68 67 66 66 65 64 66 69 80 81 80 76 69 69 69 68 68 67 67
61 61 62 62 62 61 63 66 68 68 68 68 69 68 70 76 78 77 71 69 69 68 68 67 66 65 64 64 64 65 68 80 80 80 78 68 69 69 68 67 67 67 66
59 60 63 65 63 62 66 68 70 71 74 72 73 75 78 76 79 78 71 67 67 67 67 66 66 66 72 79 76 70 78 76 78 79 76 65 69 69 68 67 66 66 66
61 62 63 63 64 68 70 68 70 73 72 72 72 76 76 77 77 77 74 75 73 71 75 73 74 78 74 76 74 74 75 76 78 79 70 63 66 69 68 66 66 66 65
60 61 62 66 68 68 69 68 69 73 73 74 75 76 76 77 76 76 77 76 75 77 74 75 74 71 71 71 72 71 71 75 76 77 69 62 64 68 68 67 66 65 65
62 64 66 65 65 68 71 75 75 74 75 75 76 75 77 76 74 76 76 76 76 75 74 73 72 73 72 72 72 71 71 71 72 76 73 63 65 68 68 67 66 66 65
66 64 65 68 71 75 75 74 75 75 76 76 77 76 74 75 74 75 73 74 74 76 75 74 73 73 73 72 70 70 70 72 71 71 75 69 61 64 65 65 65 65 65
70 72 72 74 75 75 75 75 77 76 77 77 77 75 74 75 73 74 74 73 73 73 72 72 72 72 73 74 70 71 73 70 70 70 75 74 68 60 62 62 63 63 63
77 75 75 76 75 75 75 76 78 78 77 78 77 77 74 74 74 72 70 70 72 71 72 71 72 72 72 73 72 74 73 72 69 69 71 73 74 74 61 59 59 59 60
76 75 75 75 75 75 75 77 76 76 77 79 78 77 75 74 71 70 72 71 69 71 68 70 71 71 70 72 73 73 72 72 68 71 68 68 68 70 70 60 57 56 57
77 76 77 76 75 75 75 75 76 76 77 78 77 77 74 72 70 71 71 70 70 71 70 70 68 70 71 72 71 70 70 69 69 68 67 68 68 66 66 65 66 66 55
77 76 76 76 75 75 74 74 74 73 75 76 77 74 72 71 70 70 71 69 70 70 68 68 68 66 67 69 67 68 67 65 64 67 67 67 66 65 65 64 64 66 65
77 76 76 77 77 76 77 77 76 75 76 77 76 73 73 71 70 70 71 69 66 70 67 67 66 66 67 67 64 63 62 64 64 64 66 65 64 65 64 63 61 61 62
75 76 77 78 77 77 78 78 77 76 75 73 73 68 70 70 71 71 68 67 66 69 67 66 66 65 64 64 62 60 60 59 61 66 62 63 62 62 63 63 62 61 60
75 77 77 78 78 77 77 77 73 74 72 74 73 70 71 70 70 71 66 65 65 68 68 66 67 66 64 61 59 57 60 61 57 56 63 61 61 60 60 61 61 60 59
77 76 76 77 77 77 76 75 74 72 76 76 71 69 67 67 66 66 66 62 63 68 67 66 64 63 59 54 53 56 57 60 58 54 53 59 62 62 62 60 59 59 58
79 77 75 75 76 77 75 73 73 72 73 69 68 67 67 67 66 66 64 62 64 67 65 64 62 57 56 49 49 52 53 56 57 56 54 55 55 58 60 59 57 58 58

GFSSE_sfc_temp_063.txt.gz
Temp
83 85 74 75 75 75 74 74 74 74 74 75 75 75 75 75 75 76 76 76 77 77 77 77 76 76 76 75 74 74 74 74 74 74 75 75 75 75 74 74 76 78 74
84 85 73 75 75 74 74 74 74 74 75 75 75 75 75 75 75 75 76 76 77 77 77 77 76 76 75 74 73 73 73 73 73 74 75 75 74 74 74 73 73 76 73
86 84 82 74 74 74 74 74 74 74 75 75 74 74 75 75 75 75 76 76 76 77 77 76 76 75 74 73 72 72 72 72 73 75 78 82 77 74 73 72 72 72 72
83 80 85 72 73 74 74 74 74 75 75 74 74 75 75 75 75 75 75 75 76 76 76 76 75 74 73 72 72 72 72 72 73 75 85 83 79 72 73 72 72 72 72
79 77 81 72 72 73 73 74 74 74 74 74 74 75 75 75 75 75 75 75 75 76 76 75 74 72 71 70 70 71 71 71 73 81 82 79 78 73 71 71 72 71 70
80 75 72 71 72 73 73 73 73 73 73 73 74 75 75 75 75 75 74 74 75 75 75 74 72 71 70 69 69 70 70 72 71 84 81 76 74 71 70 69 69 69 69
68 65 71 69 71 73 73 73 73 73 73 73 74 74 74 74 74 74 73 73 74 74 73 72 71 70 69 69 69 69 69 69 85 83 80 76 72 70 70 69 69 68 68
66 66 67 68 67 69 71 72 71 72 72 72 73 73 73 72 72 72 72 72 72 72 71 71 70 69 69 68 68 67 68 69 83 83 79 75 70 70 69 69 68 68 68
64 65 63 63 64 65 67 67 69 70 71 71 71 71 71 71 71 71 71 71 71 71 70 70 69 68 68 67 67 67 67 69 82 82 81 75 69 69 69 69 68 67 67
62 61 61 62 61 60 60 65 67 69 69 69 69 69 69 69 70 70 70 70 70 70 69 69 67 67 66 66 66 66 68 70 82 82 78 73 69 69 69 68 67 67 67
60 60 60 60 61 62 62 63 66 69 68 68 69 69 70 73 75 75 70 69 69 68 68 67 67 65 65 65 66 67 67 80 81 81 76 68 69 69 68 67 67 67 66
58 58 60 61 61 63 66 65 68 70 71 74 74 73 76 73 75 74 69 67 67 67 67 67 66 66 68 78 76 71 78 78 79 79 72 66 69 69 68 67 66 66 66
61 62 63 63 63 65 64 64 67 69 71 73 74 76 73 74 72 73 72 73 72 70 74 73 71 76 76 77 76 75 76 77 78 79 68 64 67 69 68 67 66 66 65
59 59 60 61 61 63 66 67 69 70 72 74 75 75 74 73 74 74 76 76 74 76 74 76 75 73 73 74 73 73 73 75 75 77 67 64 65 69 68 67 66 65 65
59 59 59 61 60 64 66 66 67 70 74 76 75 75 75 76 74 76 76 76 76 77 76 75 73 74 72 73 73 73 72 72 74 77 71 63 66 68 68 68 66 66 65
60 60 63 64 65 67 68 73 74 76 77 76 75 75 76 77 75 76 75 76 76 76 76 76 75 74 74 73 71 72 72 73 72 74 74 68 62 64 65 66 65 65 65
63 62 62 65 69 69 72 75 77 77 78 76 77 77 76 76 75 76 75 75 75 77 76 75 74 74 74 75 72 72 73 72 72 72 74 71 66 61 63 63 62 62 62
69 68 70 74 73 74 76 78 78 78 77 77 78 77 75 76 75 75 75 74 74 74 74 73 73 73 74 74 72 73 73 73 71 71 73 73 74 72 62 61 60 60 60
74 74 72 76 76 77 77 77 77 77 77 78 79 79 76 76 75 75 74 73 72 73 73 72 73 73 71 72 73 72 72 72 70 73 70 69 69 69 70 60 60 59 58
78 77 76 76 76 76 76 77 78 78 78 80 79 80 77 74 73 73 74 72 71 73 71 72 71 72 72 72 73 72 71 71 71 70 69 70 69 67 67 66 66 65 58
78 76 76 76 76 77 77 76 76 75 77 78 80 80 78 74 72 71 74 72 70 72 71 71 70 68 69 70 68 68 69 68 66 68 69 69 68 68 67 65 64 66 65
77 77 77 78 78 78 80 79 79 79 79 80 80 79 76 72 72 71 72 72 69 71 70 68 68 67 69 69 65 66 62 65 66 66 68 67 66 67 66 66 64 63 63
77 77 79 80 80 80 80 81 80 80 79 78 78 78 73 72 72 71 72 70 69 70 68 66 67 67 66 67 65 63 59 54 60 67 65 66 64 65 65 65 64 63 62
78 79 80 81 82 81 80 80 77 76 75 77 77 78 72 72 71 72 71 70 69 69 66 65 68 68 67 64 64 63 57 54 53 54 64 64 64 62 61 63 63 62 62
79 79 80 80 81 82 80 79 78 76 77 79 78 76 69 70 71 70 68 64 65 67 65 62 65 66 67 65 56 54 53 55 60 54 52 58 64 65 65 63 62 61 61
82 80 79 79 80 81 81 78 77 76 76 77 77 72 70 69 69 69 68 64 64 63 61 60 65 65 61 57 51 56 51 52 56 52 54 56 57 61 63 63 60 59 60

GFSSE_sfc_temp_066.txt.gz
Temp
79 79 74 75 75 75 74 74 74 74 74 75 75 75 75 75 75 76 76 76 76 77 77 77 76 76 75 75 75 74 74 74 74 74 75 75 75 75 74 74 74 74 74
70 80 74 75 75 75 74 74 74 74 75 75 75 75 75 75 75 75 76 76 76 77 77 76 76 75 75 74 73 73 73 73 73 74 75 74 74 74 73 73 73 74 73
65 77 77 74 74 74 74 74 74 75 75 75 75 74 75 75 75 75 76 76 76 77 76 76 75 75 74 73 73 73 73 73 73 74 75 72 71 73 73 72 72 72 72
66 76 78 72 74 74 74 74 74 75 75 75 75 75 75 75 75 75 75 75 75 76 76 75 75 74 73 72 72 72 72 72 72 75 74 72 72 72 73 72 71 72 71
76 80 77 73 73 73 73 73 74 74 74 74 74 75 75 75 75 75 75 75 75 76 75 75 74 72 71 70 70 70 71 71 71 73 69 69 68 71 70 70 70 70 70
74 76 70 72 72 73 73 74 73 73 73 73 74 75 75 75 75 74 74 74 75 75 74 73 72 71 70 69 69 70 69 70 72 72 68 69 68 70 70 69 69 69 69
68 68 67 66 70 73 73 73 73 73 73 73 73 74 74 74 74 73 73 73 73 73 73 72 71 70 69 69 69 69 69 69 75 71 68 65 66 70 70 69 68 68 68
64 64 64 66 64 69 71 71 71 72 72 72 72 73 73 73 73 73 72 72 72 71 71 70 69 69 68 68 68 68 68 68 75 70 68 65 69 70 69 69 68 68 68
66 64 62 61 62 64 65 67 70 70 71 71 71 70 70 71 71 71 71 71 70 70 70 69 68 68 68 68 68 67 67 68 70 71 71 65 69 69 69 68 68 67 67
65 64 62 61 61 60 62 65 67 68 68 69 69 69 69 69 69 70 70 70 70 70 69 68 67 67 67 67 67 67 68 67 71 69 66 65 69 69 69 68 68 67 67
59 61 62 60 60 60 60 63 64 69 68 68 69 68 68 69 69 70 68 68 69 68 68 67 67 66 66 66 67 67 68 67 69 68 65 68 69 69 68 68 67 67 66
57 59 60 60 60 62 63 63 63 68 68 69 70 69 70 68 69 69 67 67 67 67 67 67 66 66 67 64 64 67 65 67 67 65 61 67 69 69 68 67 67 66 66
58 59 59 59 60 62 63 65 67 68 67 69 69 70 69 68 67 65 65 65 64 66 65 65 64 65 67 65 64 63 65 66 64 63 63 65 68 68 68 67 66 66 66
58 59 59 60 60 60 61 62 63 64 67 68 69 69 68 67 67 66 65 66 65 65 63 65 64 65 65 65 65 64 64 63 63 61 60 64 66 68 68 67 66 66 65
57 58 58 60 59 60 60 62 63 64 68 68 70 70 69 68 67 67 66 66 66 67 66 65 64 64 64 64 64 65 64 64 65 64 58 63 65 68 68 68 67 66 65
58 57 58 59 60 61 60 61 62 66 68 69 69 69 70 68 67 67 67 66 66 67 67 66 64 63 63 63 64 64 64 64 64 63 60 58 63 65 66 66 66 66 65
57 58 58 60 61 61 63 66 67 68 70 69 69 70 70 70 68 68 66 66 66 67 66 65 65 64 63 65 63 63 63 63 63 64 62 59 58 62 63 64 64 63 62
61 60 61 64 64 63 67 69 70 71 70 69 69 68 69 70 69 68 66 66 66 65 65 63 62 62 61 61 60 60 62 63 63 63 62 61 60 61 60 62 62 61 61
64 63 63 65 64 64 68 71 70 69 68 70 69 69 68 69 68 67 66 65 65 64 63 64 62 61 60 60 62 60 61 60 61 66 61 61 59 59 57 60 61 60 60
68 66 67 67 67 68 70 69 69 69 69 69 69 71 69 68 68 67 66 64 64 63 62 62 61 62 60 60 68 64 59 59 59 58 59 63 60 59 58 57 53 55 59
69 68 69 68 70 70 69 68 68 67 69 69 72 71 70 69 68 66 64 65 63 62 61 61 61 60 59 59 57 57 57 58 57 57 57 57 59 59 57 56 54 53 54
70 70 71 72 72 72 72 72 70 70 70 71 70 72 71 68 68 68 66 66 63 62 61 61 60 57 59 58 54 54 50 52 54 57 57 58 55 57 58 58 56 56 54
70 70 72 72 72 73 74 74 73 72 70 70 71 69 70 68 68 68 66 65 63 63 61 61 60 60 58 58 56 53 48 47 48 56 57 55 54 53 54 55 57 56 54
71 72 74 74 74 74 74 74 71 70 68 69 68 71 70 69 67 69 66 64 62 61 60 60 62 60 59 56 54 56 51 50 47 47 54 55 53 55 52 52 53 55 55
74 72 73 75 76 75 75 73 72 68 69 70 69 68 68 66 65 67 65 63 60 59 57 59 59 58 58 56 54 48 48 50 51 45 45 48 52 52 52 51 51 50 53
76 74 73 74 75 76 75 73 70 69 68 67 67 66 65 65 65 65 65 61 60 57 57 56 56 55 52 49 49 49 48 48 49 48 43 45 46 50 52 52 49 49 50

GFSSE_sfc_temp_069.txt.gz
Temp
71 74 74 75 75 74 74 74 74 74 75 75 75 75 75 76 76 76 76 76 76 77 77 76 76 76 76 76 75 74 74 74 73 74 75 75 75 74 73 73 74 74 74
67 73 71 74 75 74 74 74 74 74 75 75 75 75 75 75 75 76 76 76 76 76 76 76 76 76 75 74 74 73 73 74 73 72 73 74 74 74 74 73 72 72 73
68 68 68 70 74 74 74 74 74 75 75 75 75 75 75 75 75 75 75 75 76 76 76 76 76 76 75 74 73 73 72 72 72 72 71 68 70 73 72 73 72 72 73
68 67 67 68 72 74 74 74 74 75 75 75 75 75 75 75 75 75 75 75 75 76 76 76 75 74 73 72 72 72 72 71 71 70 68 67 70 72 72 71 71 72 72
68 70 73 68 71 74 74 74 74 74 74 74 74 75 75 75 75 75 74 74 75 75 75 75 74 72 71 70 70 70 71 70 69 68 63 63 67 71 70 70 70 71 70
70 70 69 71 72 73 74 74 74 73 73 73 74 75 75 75 75 74 74 74 74 74 74 74 72 71 70 69 70 70 71 69 68 63 60 67 66 70 70 69 69 70 69
66 66 67 66 68 67 74 74 73 73 73 73 74 74 74 74 74 73 73 73 73 73 73 72 71 70 69 69 69 69 70 69 66 63 59 60 66 70 70 69 69 69 68
64 64 65 68 68 66 63 72 72 72 72 72 73 73 73 73 73 72 72 72 71 71 71 70 70 69 69 69 68 68 68 69 67 64 62 61 69 69 69 68 68 68 68
63 62 63 64 65 65 63 66 68 70 70 71 72 72 71 71 71 71 71 71 70 70 70 69 68 68 68 68 68 67 66 68 65 65 66 61 69 69 69 68 68 68 67
63 61 61 62 62 62 62 64 64 68 67 69 70 70 69 69 70 70 70 70 70 70 69 69 68 68 68 68 67 67 67 67 63 63 62 65 69 69 68 68 67 67 67
60 60 59 60 61 61 61 63 65 69 68 66 68 68 67 68 68 68 68 68 69 68 68 68 68 67 67 67 68 68 66 63 62 62 60 67 68 69 68 67 67 67 67
58 58 59 59 59 61 63 62 63 65 65 65 65 64 67 66 66 67 67 67 68 67 67 67 67 66 66 61 61 64 60 61 61 59 60 67 68 68 68 67 67 66 66
58 58 59 60 61 61 61 63 64 63 64 66 66 67 65 65 64 63 64 63 61 65 63 63 63 62 62 60 60 60 60 59 56 58 63 67 68 68 68 67 67 66 66
57 57 58 59 60 60 60 63 63 63 66 65 65 65 63 63 62 63 62 62 61 61 60 60 59 61 60 62 62 61 60 57 54 55 59 65 67 68 68 67 66 65 65
57 58 59 60 59 60 61 61 62 62 66 65 66 65 62 63 62 63 62 61 62 62 61 60 61 62 61 61 61 61 61 59 58 57 55 64 65 68 68 67 67 66 65
57 57 59 60 59 61 61 61 62 63 65 65 66 65 65 63 64 62 61 62 62 63 63 61 61 60 59 60 60 61 60 60 58 57 56 58 63 66 67 67 67 66 65
58 59 59 59 60 60 61 63 63 63 66 65 65 66 65 64 63 62 62 62 62 63 63 61 60 59 59 61 60 60 60 60 58 58 57 56 59 63 64 65 65 64 63
58 59 61 63 61 61 61 63 65 65 65 65 64 64 65 66 65 63 63 62 63 62 61 60 59 59 58 58 57 57 58 58 59 59 57 56 56 58 61 63 63 62 62
59 60 60 61 61 61 63 65 65 65 63 64 62 63 65 65 65 63 63 62 62 61 60 61 59 59 57 56 57 56 56 56 58 63 58 56 56 54 54 60 61 61 61
60 60 61 63 61 61 64 62 61 61 62 63 62 64 64 64 65 64 62 61 61 60 59 59 59 58 57 57 64 60 55 55 55 54 56 59 55 55 54 53 53 54 59
59 59 61 61 62 61 60 60 62 61 60 60 61 65 63 63 63 62 60 60 59 60 59 58 57 57 56 56 54 52 52 53 54 53 53 54 56 55 53 52 50 49 54
59 61 62 63 63 63 65 65 61 64 60 61 63 63 66 63 63 62 61 60 59 58 58 57 57 55 58 55 52 51 47 50 51 54 52 54 54 54 55 54 52 51 49
61 61 63 64 65 66 67 64 62 61 61 62 61 65 63 65 65 63 61 60 59 58 58 56 56 55 57 56 55 54 47 44 46 50 52 55 54 50 52 53 52 53 50
63 64 66 67 67 67 67 67 65 65 63 64 63 62 64 65 64 64 64 62 60 60 58 56 58 58 56 54 54 55 52 50 44 43 49 52 54 52 49 49 50 52 50
66 66 67 68 68 68 68 68 66 64 64 62 62 64 62 64 65 64 63 61 58 59 58 58 57 56 54 52 49 48 47 46 48 45 41 48 52 48 48 48 48 48 50
68 68 68 68 68 69 69 68 68 68 62 62 62 62 63 62 63 63 64 62 59 58 57 55 54 54 52 49 47 47 46 45 46 46 44 45 45 49 49 49 47 46 46

GFSSE_sfc_temp_072.txt.gz
Temp
72 73 74 75 74 74 73 74 74 74 75 75 75 75 75 76 75 75 75 75 76 76 77 76 76 76 76 75 74 74 73 73 73 74 74 75 75 75 73 73 73 74 74
72 74 73 74 74 74 74 74 74 74 75 75 75 75 75 75 75 75 75 75 76 77 77 76 76 75 75 74 73 73 72 72 72 72 73 74 74 74 73 72 72 72 73
69 72 74 73 74 74 74 74 74 75 75 75 75 75 75 75 75 75 75 75 76 76 76 76 75 75 74 73 72 72 71 71 70 71 71 68 69 73 73 73 72 72 72
68 67 70 70 72 73 73 74 74 75 75 75 75 75 75 75 75 75 74 74 75 76 76 76 75 74 73 72 72 72 71 70 69 68 65 66 70 72 72 72 71 72 71
67 67 68 70 71 72 72 72 74 74 74 74 75 75 75 75 75 74 74 74 75 76 76 75 74 73 71 70 71 70 69 69 68 65 59 62 66 70 71 71 70 70 71
69 67 69 70 70 70 72 71 73 74 74 74 74 74 75 75 74 74 73 74 74 75 75 74 72 71 70 70 69 69 68 67 65 58 58 67 65 70 70 70 69 69 69
65 65 68 67 68 66 67 66 72 73 73 73 74 74 74 74 74 73 72 73 73 73 73 72 71 70 70 69 69 68 67 66 61 57 58 59 65 70 70 69 69 68 68
63 64 66 67 67 66 65 67 70 72 72 73 73 73 73 73 72 72 72 71 71 71 71 70 70 70 69 69 69 67 66 66 63 59 59 61 68 69 69 69 68 67 67
62 63 63 64 65 66 65 65 68 69 71 72 72 72 72 71 71 71 71 71 70 70 70 70 69 69 69 68 67 66 65 65 61 62 64 60 69 69 69 69 68 67 67
60 61 61 62 62 62 62 63 63 66 69 70 71 70 69 69 69 69 69 69 69 69 69 69 69 68 68 67 67 66 65 65 58 58 59 64 69 69 69 68 68 67 66
59 59 61 61 61 61 62 63 63 64 68 68 68 68 67 68 67 67 68 68 69 69 69 68 68 66 65 66 66 65 64 59 58 57 58 67 69 69 68 67 67 67 66
57 58 59 60 61 62 63 61 61 63 63 64 64 63 65 65 66 67 67 67 68 68 68 68 67 65 63 59 59 63 58 58 57 57 59 67 68 68 68 67 67 66 66
57 58 58 59 61 61 62 63 62 62 62 62 63 64 65 65 65 63 64 62 62 65 63 63 60 59 59 58 57 56 56 56 55 57 63 66 68 68 68 67 66 66 66
57 58 59 60 59 60 62 62 63 63 63 63 63 64 63 61 59 59 61 59 60 60 59 58 58 58 58 59 59 57 56 55 54 55 60 65 67 68 68 67 66 66 65
56 58 59 59 59 60 60 61 62 62 65 65 64 63 63 61 59 59 59 59 60 59 59 59 58 58 58 59 59 59 57 56 56 56 55 64 65 67 68 67 66 66 65
58 58 59 59 60 61 61 62 62 64 64 66 65 63 62 61 60 60 60 60 60 59 60 59 60 59 58 59 59 59 58 56 56 56 55 58 64 66 67 67 67 67 66
58 59 58 59 60 61 62 63 64 67 65 66 65 64 63 61 59 60 59 58 59 59 60 59 58 58 57 59 58 58 57 57 56 56 56 56 58 63 65 66 66 65 64
58 58 60 61 60 60 62 65 64 65 65 66 65 63 63 62 61 60 61 59 60 60 59 58 57 56 55 56 55 55 55 56 56 56 56 55 55 58 61 63 64 63 63
59 58 60 60 60 60 62 60 62 63 63 65 64 63 62 63 63 61 61 60 59 59 57 58 56 56 54 54 55 53 54 55 55 59 55 54 54 54 54 61 62 62 62
59 60 60 60 60 62 62 61 61 62 62 63 62 62 63 63 62 61 60 59 58 58 57 57 57 56 55 54 61 58 52 53 53 52 54 56 54 54 53 53 53 54 60
59 60 60 60 61 61 62 60 61 61 57 58 59 62 61 61 62 60 60 58 58 59 58 57 56 55 54 53 53 51 50 51 51 51 51 51 53 53 51 51 49 49 53
56 57 58 59 59 59 61 61 62 59 57 62 60 61 63 61 61 60 59 59 57 57 56 55 55 53 54 53 51 53 50 51 49 51 49 52 50 51 52 51 50 50 49
56 56 58 60 60 61 61 60 58 58 58 58 57 59 61 62 62 62 60 59 58 56 56 54 54 54 52 53 55 53 47 47 48 51 51 50 51 49 51 51 51 51 50
56 58 60 62 62 62 62 63 60 63 60 63 60 60 60 62 62 63 62 59 57 56 55 55 55 54 54 53 51 50 48 48 45 46 51 51 52 53 52 50 49 50 50
59 59 61 62 63 64 64 64 62 61 62 59 58 59 60 61 62 63 62 60 58 58 57 56 54 54 54 52 50 46 46 46 46 44 43 48 51 51 52 50 46 46 48
61 61 61 61 63 64 64 64 63 63 58 58 60 59 57 60 62 62 62 62 60 57 56 56 55 55 53 52 49 48 47 46 45 44 43 44 45 49 52 51 45 46 45

GFSSE_sfc_temp_075.txt.gz
Temp
70 71 73 74 74 74 74 74 74 74 75 76 75 75 75 75 75 75 75 76 76 77 77 76 76 76 76 75 74 74 74 74 73 75 75 74 74 74 74 74 73 73 73
71 72 72 73 74 74 74 74 74 74 75 76 75 75 75 75 75 75 75 75 76 77 76 76 76 75 74 74 72 72 72 71 71 72 73 74 73 74 73 72 72 72 72
70 71 72 72 73 74 74 74 74 75 76 76 75 75 75 75 75 75 75 75 76 76 76 76 76 75 74 72 72 71 71 71 70 71 71 66 71 73 73 72 72 72 71
69 67 70 69 71 74 74 74 74 75 75 75 75 75 75 75 75 75 75 75 75 76 76 75 74 74 73 72 71 70 70 69 68 67 63 65 70 73 72 72 71 71 71
67 67 68 67 68 71 71 72 72 74 74 75 74 75 75 75 75 75 74 74 75 75 75 75 74 72 71 70 70 69 69 68 67 64 59 61 65 71 71 71 70 70 70
65 67 68 68 68 69 72 73 72 72 72 73 74 74 75 75 74 74 74 74 75 75 74 74 72 71 69 69 68 68 67 66 64 56 58 66 65 71 70 69 69 69 68
65 66 66 68 69 69 69 70 72 72 71 72 74 74 74 74 74 73 73 73 73 73 73 72 71 70 69 68 68 67 66 65 59 56 57 59 66 70 70 69 68 68 67
63 65 65 69 68 67 67 68 69 70 70 71 73 73 73 73 72 72 72 72 71 71 71 70 70 69 68 68 67 66 66 65 61 57 59 61 69 70 69 68 68 67 67
63 64 64 65 65 66 67 67 68 67 69 70 72 72 71 71 71 71 71 70 70 70 70 70 69 68 68 67 67 65 65 64 58 59 62 61 69 70 69 68 67 67 66
61 61 61 62 63 62 63 66 68 68 68 70 70 70 69 69 69 70 69 70 70 70 70 69 68 68 68 66 66 65 64 63 57 57 58 65 69 69 69 68 67 67 66
59 60 61 61 61 61 62 65 65 67 67 68 70 68 67 67 67 65 68 68 69 69 68 68 67 66 66 66 65 64 63 58 57 56 57 67 68 69 68 68 67 66 66
57 58 60 60 61 62 64 62 62 64 64 66 68 65 65 64 64 65 67 68 68 68 68 67 66 65 64 63 62 62 56 56 55 56 58 67 68 68 68 67 67 66 66
57 58 59 60 61 61 61 63 62 62 62 61 63 64 65 64 64 63 63 63 62 64 61 61 61 61 58 58 55 54 55 55 54 56 62 66 68 68 68 67 67 66 65
57 57 59 60 59 59 62 62 63 61 61 61 62 65 63 61 60 59 59 59 57 56 57 58 57 56 57 56 56 54 54 54 54 55 60 65 67 68 68 67 67 66 65
57 57 59 59 57 58 60 61 61 61 62 61 62 64 64 62 60 59 57 57 56 57 57 56 56 57 56 56 56 55 55 55 56 56 55 64 65 67 67 67 66 66 65
57 58 59 58 58 59 59 61 62 62 63 63 62 63 62 61 60 58 57 57 56 57 57 56 57 56 56 56 55 55 56 56 55 55 55 58 63 65 67 67 67 67 66
58 59 58 58 59 60 61 62 63 64 64 65 63 62 61 60 58 57 56 56 57 57 57 56 57 56 55 58 57 55 55 55 54 54 55 55 59 63 64 66 67 66 65
59 58 59 60 60 60 62 63 64 63 65 65 63 62 60 60 59 57 57 57 57 57 56 56 55 54 54 55 54 54 54 54 54 54 55 55 55 58 62 64 65 65 64
59 59 59 60 59 59 60 62 61 62 64 64 63 63 61 60 60 59 58 57 57 57 57 57 55 55 53 53 53 52 51 53 54 57 54 54 53 54 54 61 62 62 63
59 59 59 59 59 59 59 59 60 61 61 62 63 62 60 60 60 58 57 57 58 57 56 56 56 54 54 53 58 56 51 51 51 51 52 55 52 53 53 54 54 55 60
59 59 59 58 58 59 58 58 58 58 59 60 62 61 60 61 60 59 57 56 57 58 58 57 55 55 52 51 51 50 50 50 50 49 49 50 52 52 51 51 49 49 53
57 59 59 58 59 61 62 62 62 61 59 60 58 59 61 59 59 59 58 58 57 57 55 54 54 52 52 51 50 50 49 49 49 51 48 49 48 49 51 51 50 49 48
55 58 58 58 58 60 64 61 60 60 59 57 55 56 58 60 59 59 58 57 55 55 55 53 54 54 51 52 54 53 47 47 49 49 49 51 52 50 51 52 50 50 48
55 55 57 58 58 59 59 59 59 57 56 57 57 57 58 59 59 59 58 57 56 55 53 55 54 53 52 50 50 49 48 49 46 46 51 51 52 52 51 49 49 52 52
55 55 56 57 60 61 60 58 57 56 57 56 56 57 56 58 59 60 59 57 57 56 57 56 54 52 53 53 50 46 46 47 47 46 45 47 50 52 52 51 51 50 50
53 54 56 57 58 60 60 58 58 56 55 55 55 56 55 57 58 59 59 59 59 58 55 55 55 53 52 52 50 49 46 46 45 45 44 45 46 49 51 51 49 49 49

GFSSE_sfc_temp_078.txt.gz
Temp
68 71 73 74 74 74 74 74 74 75 76 76 75 75 75 75 75 75 76 76 76 77 77 77 76 76 76 75 75 74 74 74 74 74 75 75 75 75 75 73 73 73 73
70 72 72 73 74 74 74 74 74 75 75 75 75 75 75 75 75 75 75 76 76 77 77 76 76 75 75 74 73 72 73 72 72 73 73 74 75 74 73 72 71 71 72
70 73 72 72 73 74 75 74 75 75 75 75 75 75 75 75 75 75 75 75 76 77 76 76 75 75 74 73 72 71 71 71 70 71 72 69 71 73 73 72 72 72 71
69 69 69 71 73 73 74 74 74 75 75 75 75 75 75 75 75 75 75 75 75 76 76 76 75 74 72 71 71 70 70 69 68 67 64 65 71 73 72 71 71 71 71
67 68 68 69 69 69 70 68 73 74 74 74 74 75 75 75 75 75 74 74 75 76 75 75 74 73 71 70 69 69 69 68 67 64 61 63 69 71 71 71 71 70 70
66 67 67 69 70 71 71 69 68 72 73 73 74 74 75 75 75 74 74 74 75 75 75 74 73 71 69 69 68 68 68 66 64 58 61 68 66 71 71 70 69 69 69
65 65 67 67 68 70 70 70 69 70 72 73 74 74 74 74 74 74 73 73 73 74 73 72 70 69 68 68 68 67 66 65 59 57 59 62 67 70 70 69 68 68 68
64 65 66 69 69 69 71 71 70 71 72 72 72 73 73 73 73 73 73 72 72 71 71 70 69 69 68 68 67 66 65 65 61 58 60 64 69 70 69 68 68 67 68
62 64 64 66 66 67 67 68 69 70 71 71 72 72 72 71 71 72 71 71 71 70 70 69 68 68 68 67 66 65 64 64 58 60 63 65 69 70 69 68 67 67 67
61 62 63 63 61 61 64 67 68 70 70 70 70 70 70 69 70 70 70 70 70 70 70 69 68 67 67 66 65 65 64 63 58 59 60 66 69 69 69 68 67 67 66
60 60 61 61 61 61 62 65 67 69 68 67 69 69 67 67 67 66 68 69 70 69 68 68 67 66 66 65 65 64 62 58 58 58 60 68 69 69 68 68 67 67 66
58 59 60 60 61 62 63 64 66 66 66 65 67 66 65 65 66 66 67 68 68 67 67 67 67 66 64 61 62 62 57 57 57 57 60 67 69 69 68 67 66 66 66
58 59 59 59 61 62 61 63 64 63 63 63 64 64 64 64 64 63 64 64 62 63 63 64 63 60 59 58 57 56 56 56 56 57 63 66 68 68 68 67 67 66 66
57 58 59 60 59 60 62 63 62 62 62 61 62 63 63 63 62 60 61 58 56 56 57 57 57 56 56 56 56 55 55 54 55 57 62 65 67 68 68 67 67 66 66
57 57 58 59 59 59 58 60 61 62 62 62 62 64 64 62 60 60 59 58 56 57 57 55 57 57 56 56 55 55 54 54 55 56 58 64 65 67 68 68 67 66 66
57 58 58 58 58 59 58 61 61 62 61 61 61 62 63 63 61 60 59 58 57 58 55 56 56 56 55 55 54 55 55 55 55 56 57 61 64 65 67 67 67 66 66
58 59 58 58 58 59 60 61 62 62 62 61 61 60 61 61 61 60 58 57 57 57 57 55 55 55 53 55 54 55 55 55 55 56 57 57 61 63 64 66 67 67 66
59 58 59 60 58 59 61 62 62 61 61 61 61 60 60 60 59 60 59 57 57 57 57 55 55 54 54 53 52 53 55 55 55 54 55 56 57 59 62 64 66 66 65
59 59 58 59 58 59 60 61 60 61 61 61 60 60 60 60 59 59 58 57 56 56 55 55 54 54 53 53 53 52 52 53 54 57 54 54 55 56 57 62 63 63 64
60 60 59 58 59 59 59 59 59 59 60 61 61 61 61 58 58 57 57 56 55 55 55 55 55 54 54 53 58 54 51 51 51 51 53 55 54 54 55 56 57 57 61
59 59 59 58 58 58 57 57 57 58 59 60 61 61 58 60 59 58 56 55 56 56 55 55 55 55 52 52 52 51 50 51 50 50 50 51 52 53 53 53 53 53 56
58 59 59 58 58 59 60 59 58 58 58 61 61 61 62 59 58 58 56 56 56 55 54 54 54 51 52 51 50 49 48 51 49 52 52 52 52 53 53 53 52 52 52
57 58 59 59 59 60 61 58 58 58 57 57 56 57 57 58 58 58 57 56 56 55 55 53 53 53 51 50 51 51 46 46 47 50 52 52 52 51 53 53 53 53 52
57 60 60 60 59 61 62 60 58 59 58 59 56 57 57 58 58 60 59 58 57 55 53 54 54 52 52 49 49 50 49 50 47 48 49 52 51 52 52 51 53 53 52
58 56 55 57 57 59 60 62 59 56 58 57 57 56 56 57 58 59 58 56 55 55 55 53 52 52 52 51 49 46 46 47 48 47 48 47 50 51 52 52 51 50 52
55 54 53 55 56 58 58 56 58 55 56 55 55 56 57 56 57 57 58 57 57 56 54 55 53 52 52 51 49 49 49 48 47 46 45 47 47 50 51 51 50 50 50

GFSSE_sfc_temp_081.txt.gz
Temp
75 78 73 74 74 74 74 75 75 75 75 76 76 75 75 76 75 75 76 76 77 77 77 77 77 76 76 76 75 75 74 74 74 75 76 76 75 75 74 74 74 75 74
75 78 72 74 74 74 74 74 75 75 76 76 75 75 75 75 75 75 76 76 76 77 77 77 76 75 75 75 75 74 73 73 72 73 75 75 75 74 74 73 73 75 72
73 77 77 73 74 74 74 75 75 76 76 76 75 75 75 75 75 75 75 75 76 77 77 77 76 75 74 73 72 72 72 72 72 72 74 77 76 74 73 72 72 73 72
70 73 77 72 73 74 74 74 75 75 76 75 75 75 75 75 75 75 75 75 76 76 76 76 75 74 73 72 71 70 70 70 70 71 79 78 77 73 73 72 72 72 72
70 69 73 71 72 73 73 73 74 74 72 74 75 75 75 75 75 75 75 75 75 76 76 75 74 73 71 70 70 70 70 69 70 75 78 76 75 73 72 72 71 71 71
71 69 69 69 71 72 73 73 73 72 71 73 74 75 75 75 75 75 74 74 75 76 75 75 72 71 69 69 69 69 68 68 71 78 76 74 75 72 71 70 70 70 70
69 67 68 69 70 71 73 72 71 70 69 72 74 74 74 75 74 74 74 74 74 74 74 73 71 69 69 68 68 68 67 68 75 75 76 75 74 71 70 69 69 69 69
67 67 67 68 69 70 72 71 69 70 70 71 72 73 74 74 73 73 73 73 72 72 72 70 69 69 68 68 67 66 66 68 74 75 75 75 70 70 70 69 69 68 68
65 66 67 68 71 69 69 69 68 69 70 70 72 72 72 72 72 72 72 72 72 71 70 69 68 68 68 67 66 65 65 67 74 74 75 74 70 70 69 69 68 68 68
63 65 65 65 64 65 68 67 68 68 69 68 70 71 70 70 71 71 70 70 71 70 69 69 68 67 67 66 65 65 64 66 73 74 75 73 69 70 69 68 68 67 67
61 61 64 63 63 64 66 66 68 69 69 69 69 69 68 71 72 71 70 69 70 69 68 68 67 66 66 65 65 64 66 72 73 74 75 68 70 70 69 68 67 67 66
59 60 61 63 62 63 65 68 70 68 69 68 67 67 67 69 70 70 69 68 69 68 68 67 66 65 68 71 69 65 71 71 72 72 73 68 69 69 69 68 67 67 66
60 60 60 61 62 63 66 66 67 66 66 64 64 65 65 67 69 70 67 68 70 69 72 70 69 71 70 70 70 70 69 70 72 72 70 67 69 69 68 68 67 67 66
59 59 60 60 60 60 62 64 64 65 63 63 63 65 66 68 67 68 65 65 67 70 71 70 70 68 68 68 68 67 68 70 71 72 70 66 68 69 68 68 67 67 66
59 59 59 60 61 63 62 62 62 62 62 62 63 68 68 66 64 64 63 64 64 65 67 67 67 67 67 68 68 68 67 68 69 71 72 65 66 68 68 68 68 67 66
59 59 59 59 60 63 61 61 61 61 61 61 63 67 66 65 63 63 62 63 63 67 66 65 66 68 68 69 67 67 67 68 68 68 71 69 64 66 67 68 68 67 66
59 60 58 59 61 62 61 61 61 61 61 61 63 64 66 65 64 63 63 61 63 66 62 65 65 67 67 68 67 67 67 67 68 67 69 71 68 63 65 66 67 67 66
60 59 59 60 60 61 61 61 61 62 62 61 63 65 64 65 65 65 65 64 64 63 64 64 65 66 66 66 66 66 67 66 66 66 68 69 69 70 65 65 66 66 66
61 59 58 59 60 61 60 61 61 60 61 61 64 64 64 65 65 65 66 64 63 61 63 64 64 65 64 65 65 65 65 65 65 66 65 66 67 68 70 64 63 64 65
61 61 59 58 60 61 60 60 60 60 60 61 65 66 65 66 66 66 66 60 61 61 65 65 64 64 65 65 67 64 63 64 65 65 65 66 66 66 67 68 69 67 62
60 60 59 57 58 59 58 58 58 58 59 59 62 63 65 66 66 65 66 64 62 65 64 63 64 62 62 63 62 63 63 63 63 65 66 65 65 66 64 65 68 70 63
59 60 59 59 59 60 59 59 60 59 59 60 60 61 65 66 65 66 65 65 65 66 64 63 63 63 65 63 64 64 61 63 64 65 66 64 58 56 57 56 62 58 58
58 60 59 60 60 60 60 58 58 58 58 58 59 60 65 65 67 67 66 66 65 65 65 63 64 64 64 63 63 66 59 59 62 64 62 63 62 58 57 59 55 57 56
60 60 61 60 60 61 59 59 58 60 58 61 60 64 67 66 66 67 66 66 65 65 65 64 64 64 64 61 59 60 61 62 60 59 58 62 62 62 63 60 57 56 55
61 60 60 61 61 62 61 61 59 59 62 65 64 65 65 65 66 67 66 65 65 65 65 64 63 62 63 63 61 59 58 58 58 57 54 53 61 60 64 57 56 53 54
61 60 60 60 62 63 63 63 61 62 63 62 62 65 65 66 65 66 66 66 65 65 64 63 63 63 62 62 63 60 61 57 55 55 50 52 59 62 64 59 57 52 52

GFSSE_sfc_temp_087.txt.gz
Temp
89 87 75 76 75 76 76 75 75 75 75 76 76 76 76 76 76 76 76 76 76 77 78 77 77 76 77 76 76 75 74 74 74 75 76 76 76 76 76 75 76 77 74
88 91 73 74 75 75 76 75 75 75 75 76 75 75 75 75 75 76 76 76 77 78 78 77 77 76 76 75 74 74 74 74 74 74 74 75 75 74 74 73 74 75 74
84 87 83 74 75 75 76 75 75 75 76 76 76 75 75 75 75 76 76 76 76 77 77 77 76 76 75 74 73 74 74 73 73 74 75 78 76 74 73 72 73 73 73
82 83 85 73 74 75 75 75 75 76 76 75 75 76 76 76 76 76 76 75 76 76 77 77 76 75 73 72 72 72 73 73 73 74 77 77 78 73 73 73 73 72 72
84 84 83 73 73 74 74 75 75 75 75 75 75 76 76 76 76 75 75 75 75 76 76 76 75 73 71 71 71 72 72 73 74 78 82 79 79 75 73 73 73 73 72
86 84 76 71 72 73 74 75 75 74 74 73 74 75 75 75 75 74 74 74 75 76 76 75 73 71 70 70 70 71 71 72 71 84 81 78 77 72 72 71 71 71 71
83 82 79 71 72 73 74 73 71 71 70 67 67 72 74 74 74 74 74 74 74 75 74 73 71 70 69 69 70 70 70 71 85 83 81 78 74 72 72 71 70 70 70
80 80 76 72 70 72 72 71 71 70 69 69 68 72 73 73 72 73 73 73 73 73 72 70 70 69 69 69 69 69 69 70 83 83 80 77 71 71 71 70 69 69 69
78 78 78 75 73 69 70 70 70 69 69 70 69 72 73 71 70 72 73 72 72 71 70 69 69 68 68 68 68 68 68 70 84 81 79 76 71 71 71 70 69 69 69
76 76 76 76 74 73 75 68 68 69 69 70 70 69 68 69 70 71 72 71 70 70 69 69 68 67 67 67 67 67 67 69 82 81 79 74 70 71 71 70 69 69 69
73 75 74 75 74 73 74 73 69 69 68 70 68 66 62 67 72 75 73 69 69 69 68 68 67 66 65 66 66 67 67 83 83 81 77 69 70 71 70 69 69 68 68
74 74 73 70 73 73 74 74 73 73 71 71 68 68 66 66 70 75 70 68 68 68 67 67 66 65 69 74 74 68 79 82 82 79 74 68 70 71 70 69 68 68 67
77 74 71 66 65 71 71 71 72 70 69 67 67 66 65 66 66 71 68 71 70 69 71 71 69 75 75 75 75 78 80 81 81 78 71 68 70 70 69 68 68 67 67
72 70 70 65 63 64 64 67 71 69 69 66 65 65 64 64 65 68 71 72 72 72 72 71 75 76 76 76 76 77 78 81 81 76 70 67 68 70 69 69 68 67 67
76 67 68 67 63 64 63 65 65 69 69 66 65 65 64 64 64 66 71 74 74 75 74 74 77 77 76 76 77 76 78 79 78 77 73 66 67 69 69 69 68 68 67
79 69 68 68 66 66 63 62 66 67 67 66 65 64 64 62 63 66 69 72 75 76 75 76 75 76 76 76 76 77 77 78 78 76 75 70 65 67 68 69 68 68 67
78 72 67 67 66 67 66 64 64 65 63 63 61 61 62 62 62 63 66 70 72 75 75 73 73 76 76 77 75 76 77 77 78 77 75 73 69 64 66 67 68 68 67
79 72 67 66 65 65 64 63 62 61 61 61 61 61 60 61 62 61 65 69 72 73 73 71 71 72 74 75 74 75 76 77 76 76 77 75 73 73 65 65 66 67 67
78 72 66 63 63 63 62 62 60 60 59 60 59 60 60 62 62 63 67 68 68 70 69 71 71 69 70 74 74 75 76 76 75 77 76 76 75 75 73 64 64 64 65
78 70 65 62 62 63 61 61 60 59 59 59 60 61 62 63 64 67 67 64 66 66 68 70 69 73 73 74 76 75 75 76 76 75 75 76 76 75 75 72 68 67 63
75 66 64 61 60 61 59 58 58 58 59 60 61 61 62 66 68 67 67 67 68 69 69 70 71 69 69 74 73 72 72 74 74 75 76 75 74 74 73 74 72 72 65
72 69 63 62 62 61 61 60 59 59 60 61 62 66 70 67 68 71 71 70 71 71 68 69 70 69 71 71 69 70 65 67 71 72 74 73 72 74 73 73 72 71 70
70 68 65 63 65 64 61 60 60 60 59 59 59 63 67 68 70 71 72 71 69 68 67 69 71 69 69 70 71 70 64 62 66 71 70 72 72 72 73 73 71 70 70
71 70 69 66 63 65 62 60 59 58 57 61 61 65 65 67 67 67 67 68 67 69 69 69 73 72 72 69 70 71 71 70 64 61 70 70 72 71 70 71 72 70 68
75 69 67 65 64 64 64 60 59 58 60 62 63 64 67 66 67 69 68 69 72 73 71 71 72 71 72 72 71 70 69 69 69 65 63 65 69 72 69 65 67 69 71
75 71 66 64 63 63 62 61 59 58 60 60 61 61 63 64 63 66 71 73 73 72 72 73 72 71 70 71 71 71 70 68 67 66 64 66 61 63 67 66 61 62 69

GFSSE_sfc_temp_090.txt.gz
Temp
86 80 75 75 76 76 75 75 75 75 76 75 75 75 75 75 75 75 76 76 77 77 78 77 77 77 76 76 75 75 74 74 74 75 76 76 76 76 75 75 74 74 74
86 81 74 75 75 76 75 75 75 75 75 75 75 75 75 75 75 75 75 76 76 77 77 77 77 76 76 75 74 74 73 73 73 74 74 75 75 75 74 74 73 74 73
85 78 79 74 75 75 76 75 75 75 76 75 75 75 75 75 75 75 75 76 76 77 77 77 76 76 75 74 74 74 73 73 73 74 74 73 73 74 74 73 73 73 73
83 83 80 74 74 75 75 74 75 76 76 75 75 75 75 75 75 75 75 75 76 76 77 76 76 75 74 73 73 73 73 73 73 74 73 74 74 73 73 72 73 73 72
84 84 77 73 73 74 74 74 74 75 75 75 75 75 75 75 75 75 75 75 75 76 77 76 75 73 72 71 72 72 73 72 73 75 73 71 73 73 73 73 73 72 72
85 83 73 72 73 74 74 75 74 74 74 74 67 64 75 75 75 75 74 74 75 76 76 75 73 71 70 70 71 71 71 72 72 75 72 72 71 73 72 71 71 71 71
82 80 77 72 72 73 74 75 74 72 71 69 67 66 67 74 74 74 74 74 74 75 74 73 71 70 70 70 70 70 70 71 75 73 71 68 70 71 72 71 71 71 70
79 78 76 72 71 72 73 72 71 70 69 68 68 66 66 70 71 72 73 73 73 73 72 71 70 70 70 69 69 70 69 69 76 73 70 68 70 71 71 70 70 70 70
77 77 74 74 71 71 70 70 69 70 67 69 69 66 67 68 69 70 71 72 72 71 70 69 69 68 69 68 69 68 68 70 75 72 71 70 70 71 71 70 70 69 69
76 75 75 74 70 71 69 70 69 68 68 68 69 68 67 68 70 70 70 71 70 70 69 69 68 68 68 68 67 68 68 68 74 72 69 68 71 71 71 70 70 69 69
73 74 74 73 71 70 71 69 68 69 68 68 68 68 66 66 69 68 68 69 69 68 68 68 67 66 66 66 67 67 66 73 73 70 67 69 71 72 71 70 69 68 68
72 73 74 70 71 70 73 68 70 69 68 67 66 64 65 64 66 68 69 68 68 67 67 67 66 66 68 66 65 66 67 74 71 68 66 68 70 71 70 69 69 68 68
77 75 73 68 67 69 68 68 67 67 66 66 65 65 64 65 65 66 65 66 66 66 65 65 65 67 66 67 67 66 68 74 70 68 66 68 70 70 70 69 68 68 67
74 74 72 66 66 66 68 66 67 66 66 65 65 65 64 64 64 64 64 65 65 66 64 64 65 67 65 67 67 68 70 72 68 66 65 66 68 70 70 69 68 68 67
73 70 68 66 65 64 64 66 64 65 66 66 65 65 64 64 63 64 64 66 66 66 66 66 67 69 67 67 68 69 69 71 68 67 63 65 66 69 69 69 68 68 67
73 69 67 65 65 65 64 64 65 65 65 65 65 65 65 64 64 63 63 67 68 68 67 68 69 68 69 67 67 68 69 70 68 66 64 62 65 66 68 68 68 68 67
77 70 66 64 65 66 64 64 64 65 64 64 64 65 65 65 64 64 64 67 67 69 67 67 67 67 66 69 66 67 67 68 69 67 65 63 62 64 65 67 68 68 68
77 68 67 67 66 66 63 64 64 63 63 62 61 63 64 64 64 63 64 65 65 66 66 66 65 64 65 65 64 64 66 67 68 67 67 65 64 65 63 65 66 67 67
77 68 64 65 64 63 62 61 60 60 60 61 60 60 62 62 62 63 63 63 65 65 64 66 64 64 63 63 65 65 66 65 66 71 68 66 65 65 63 63 64 64 65
76 66 63 63 63 62 60 59 59 58 58 58 59 59 60 60 61 61 60 61 62 63 63 63 63 64 63 63 71 68 65 64 65 64 66 69 66 66 65 63 62 62 62
69 65 61 62 61 60 58 57 56 56 56 57 57 59 59 59 61 60 59 59 61 61 63 63 63 63 63 64 61 61 62 64 63 63 64 64 65 65 64 66 62 63 62
68 63 61 62 62 60 60 59 59 58 58 57 57 58 59 59 60 60 59 60 61 61 61 62 62 60 61 62 60 60 54 58 61 63 62 64 62 64 64 64 63 63 63
66 62 61 63 63 61 60 59 58 58 57 56 57 57 59 59 60 61 60 63 60 62 62 61 62 61 59 61 63 59 55 52 55 60 60 61 61 61 62 65 65 64 61
68 64 63 63 63 61 61 59 58 57 55 57 58 61 64 63 63 65 64 65 64 65 63 63 65 63 62 60 60 62 59 59 55 53 60 62 61 62 61 61 61 62 63
70 65 63 63 63 62 61 60 58 57 59 58 59 60 62 63 64 65 66 65 63 64 64 62 63 63 62 60 59 58 58 58 58 55 52 55 61 61 61 60 60 59 63
71 67 63 62 62 62 61 61 59 58 58 57 58 59 61 63 63 63 65 63 63 64 63 65 62 63 62 61 61 61 60 57 57 55 53 55 55 57 61 59 57 59 60

GFSSE_sfc_temp_093.txt.gz
Temp
73 73 74 75 75 75 75 75 75 74 75 75 75 75 75 75 75 76 76 76 76 77 77 77 77 77 77 76 75 75 75 75 75 76 76 77 76 75 75 74 74 73 74
75 75 73 74 75 75 75 75 76 76 75 75 75 75 75 75 75 75 76 76 77 77 77 77 76 76 76 75 74 74 74 73 73 74 75 75 75 75 74 73 73 73 73
74 74 75 74 75 75 75 75 75 76 76 75 75 75 75 75 75 75 75 76 76 77 77 77 76 76 75 74 73 73 73 73 73 73 73 71 72 74 73 72 72 73 73
74 74 73 73 74 75 75 75 75 76 76 75 75 75 75 75 75 75 75 75 76 76 77 77 76 75 74 73 73 73 73 73 72 72 72 72 73 73 73 73 73 73 72
76 75 74 73 73 74 74 74 75 75 75 74 74 69 69 74 75 75 75 75 75 76 77 76 76 74 73 72 72 73 73 73 72 71 71 71 71 73 73 72 72 72 72
76 74 71 72 73 73 74 74 74 74 74 70 71 69 67 67 73 75 74 75 75 76 76 75 74 72 71 71 71 72 72 72 71 69 69 72 71 72 72 71 71 71 71
71 70 71 71 72 73 74 74 74 74 73 69 69 68 68 66 65 74 73 74 75 75 74 73 72 71 71 70 70 70 70 71 69 67 66 68 70 71 72 71 70 70 70
71 69 69 71 71 72 73 73 72 72 70 69 69 68 68 66 66 71 72 73 74 73 72 71 71 71 70 70 70 69 69 70 70 66 66 68 70 71 71 71 70 70 70
70 68 68 69 71 71 71 70 69 69 69 69 69 68 68 66 67 70 70 72 72 71 71 70 70 69 69 69 68 68 68 69 68 68 69 68 70 71 70 70 69 69 69
68 68 67 67 68 67 67 68 68 68 68 68 68 67 66 67 67 68 69 71 71 70 70 69 69 68 69 68 68 67 69 68 68 66 67 68 70 71 71 70 70 69 69
66 66 67 68 68 68 66 69 68 68 68 68 68 67 65 65 67 67 68 69 69 69 68 68 68 67 67 67 67 67 68 68 67 66 66 70 71 72 71 70 69 69 68
63 64 66 68 67 68 69 64 64 66 66 65 65 65 64 64 64 67 67 68 68 68 67 67 67 66 66 62 63 66 69 67 66 65 65 69 71 71 70 69 69 68 68
65 64 63 64 65 67 66 65 63 64 64 64 64 64 63 64 65 65 65 65 65 66 64 64 65 64 64 62 63 64 68 66 65 66 67 68 70 71 70 69 68 68 67
66 63 62 62 64 64 66 65 65 64 64 64 64 63 62 63 63 64 63 64 64 62 60 62 61 61 62 64 65 64 67 64 64 63 66 67 69 70 70 69 68 68 67
65 62 60 62 63 63 63 64 64 63 64 64 64 63 64 64 63 63 62 63 63 62 62 62 59 62 62 64 64 67 66 64 64 63 60 65 66 69 69 69 69 68 67
64 61 60 61 62 62 59 60 61 63 64 64 64 64 64 64 64 63 61 63 62 62 64 63 64 62 62 64 64 67 66 64 64 62 61 63 65 66 68 69 68 68 67
64 62 60 60 63 62 59 60 60 61 63 64 64 64 64 64 64 62 61 63 64 64 64 62 64 62 61 64 65 65 66 64 63 62 61 60 63 64 65 67 68 68 67
62 60 61 63 63 63 60 60 60 62 63 64 64 64 64 64 64 62 61 64 64 64 64 65 65 62 60 62 60 61 65 64 63 63 62 62 59 62 63 65 66 67 67
62 61 59 60 62 61 61 60 59 61 62 61 63 64 64 64 64 62 62 63 63 65 64 65 60 64 62 61 62 61 62 64 63 65 63 62 60 59 58 63 64 64 65
61 60 59 59 61 60 59 59 58 58 58 60 61 62 64 64 64 62 62 63 64 64 63 64 63 62 63 63 69 63 61 63 64 63 62 64 62 61 61 60 61 61 62
59 58 58 58 59 59 57 57 56 55 56 57 59 60 61 63 62 62 61 60 66 64 63 63 61 62 60 61 60 59 59 60 61 60 63 62 61 62 60 61 60 60 61
58 58 58 59 60 59 58 58 57 56 57 56 57 57 58 60 61 60 60 59 62 63 60 60 61 58 60 59 58 56 53 57 57 59 59 62 61 63 62 61 60 60 59
57 57 58 60 60 60 59 58 57 56 56 55 54 55 57 58 60 59 58 58 59 60 59 59 60 60 59 57 61 57 50 49 53 56 57 58 58 57 61 62 61 60 60
57 58 59 61 60 60 59 57 55 55 53 55 56 56 56 57 58 59 59 59 58 59 59 60 61 60 58 57 56 60 58 56 51 50 55 57 57 58 57 57 60 61 61
58 57 59 62 60 59 59 58 56 55 56 57 56 55 56 57 58 58 59 59 59 60 60 60 59 59 58 56 56 56 56 55 55 53 50 53 55 56 58 60 59 61 61
59 58 59 61 60 60 59 59 56 55 56 56 56 57 57 59 60 60 60 61 60 62 61 62 59 59 58 58 58 58 57 54 53 52 50 51 52 54 58 59 58 58 57

GFSSE_sfc_temp_096.txt.gz
Temp
70 71 73 74 75 74 74 73 73 74 75 75 75 75 75 76 76 76 76 76 77 77 78 77 77 77 77 77 76 75 75 75 75 75 76 77 76 76 75 74 74 73 74
72 73 73 74 74 75 75 74 74 74 75 75 75 75 75 75 75 75 76 76 76 77 78 77 77 77 77 75 74 74 74 73 74 74 75 75 75 75 74 73 73 73 74
72 73 74 73 74 75 75 75 75 75 75 75 75 75 75 75 75 75 75 75 76 77 77 77 77 76 75 74 73 73 73 72 72 72 73 71 72 74 74 73 73 73 73
72 72 72 73 73 74 74 75 75 76 75 75 75 75 75 75 75 75 75 75 76 77 77 77 76 75 74 73 73 72 72 72 72 72 71 71 73 74 73 73 73 73 73
72 72 73 72 73 74 74 74 75 75 74 74 73 73 72 74 75 75 75 75 75 76 77 77 76 74 73 72 72 72 71 71 70 70 69 70 71 73 73 72 72 72 71
73 72 71 71 72 73 74 74 74 74 73 71 72 72 72 72 71 74 73 74 75 76 76 76 75 73 71 71 71 71 70 70 69 69 70 71 71 73 73 72 71 70 71
69 69 70 70 72 73 74 74 74 73 71 71 70 70 69 70 71 69 70 72 74 75 74 74 73 71 71 71 71 70 69 69 68 67 68 69 70 72 72 72 71 71 70
68 68 69 71 71 72 73 73 72 72 70 70 69 69 69 68 69 68 66 70 73 72 73 72 71 71 70 70 70 69 68 68 68 66 67 68 70 71 71 71 70 70 70
67 67 67 68 71 71 70 70 70 70 69 69 69 68 69 68 68 68 69 69 72 71 71 71 70 70 70 69 69 68 67 68 67 67 68 67 71 71 71 71 70 69 70
65 65 65 66 67 68 68 68 68 68 68 68 68 68 68 67 68 68 69 68 71 71 70 70 69 69 69 68 67 67 67 67 66 65 65 68 70 71 71 71 70 69 69
64 64 64 65 66 65 65 68 68 68 68 68 68 67 65 63 65 68 69 68 70 70 70 69 68 68 67 67 67 67 67 67 66 65 66 68 70 71 71 70 70 69 69
61 62 63 64 65 65 67 66 66 66 65 64 64 64 61 63 64 66 67 68 70 69 68 68 68 67 66 64 67 67 66 66 66 65 67 69 71 71 71 69 69 69 69
63 62 62 63 64 64 63 63 64 65 63 62 63 62 62 63 64 65 65 66 66 67 66 66 65 63 61 62 65 65 64 65 65 65 67 68 70 71 70 69 69 69 68
61 62 61 61 61 63 63 64 64 64 64 64 64 63 62 63 62 63 64 64 65 64 61 60 59 60 61 64 65 64 63 64 64 64 66 67 69 70 70 70 69 68 67
61 61 60 60 60 61 62 62 63 63 64 64 64 63 63 62 62 64 63 62 63 62 61 57 57 59 59 61 65 63 62 63 62 64 64 65 67 69 70 70 69 68 67
63 60 59 59 60 61 60 61 62 63 62 64 64 63 64 63 62 62 62 61 61 62 62 60 58 58 59 61 64 63 62 63 63 61 63 63 64 67 68 69 69 68 68
62 61 59 59 59 60 58 60 62 62 64 64 63 62 64 64 63 61 60 59 61 62 60 58 58 59 58 62 63 62 62 63 62 61 60 59 62 64 65 67 68 68 67
61 59 60 62 59 59 58 58 59 60 63 64 64 63 64 64 64 61 60 60 62 62 61 59 61 59 57 61 62 62 61 62 62 61 60 59 58 61 63 65 66 67 67
61 59 59 59 59 59 60 61 58 61 63 63 64 63 64 64 63 61 60 62 60 62 61 61 61 62 57 59 61 61 60 60 61 63 60 59 58 59 57 63 64 64 65
60 60 59 59 59 59 60 59 59 59 60 62 63 63 64 64 63 61 60 62 63 62 61 62 62 61 60 60 64 61 61 59 60 60 61 62 61 59 58 58 59 60 62
59 58 58 58 59 59 58 57 57 57 57 58 60 62 63 64 63 61 61 61 64 63 63 63 62 61 59 59 58 57 57 59 59 60 61 59 60 59 57 58 58 56 59
57 58 57 58 58 59 59 58 57 57 56 57 57 59 62 63 62 62 61 61 64 63 62 62 62 57 58 60 59 55 52 55 57 58 58 58 57 60 59 59 58 58 58
56 56 57 57 58 59 58 57 56 55 55 54 55 56 58 62 62 62 61 62 63 63 62 63 63 62 60 57 62 56 50 49 53 56 56 58 58 57 59 59 59 59 58
56 57 57 58 59 59 57 57 55 54 53 55 55 55 56 59 61 61 61 62 62 63 61 62 62 61 62 59 55 58 56 54 51 50 55 56 57 58 58 59 59 59 59
56 56 57 58 60 59 57 57 56 55 56 55 55 55 55 56 58 60 60 60 59 60 59 60 58 57 58 55 55 55 55 55 55 52 50 52 55 57 58 58 59 58 59
56 56 56 58 59 58 58 57 56 55 55 54 54 54 55 56 56 57 58 58 59 58 57 58 58 58 57 57 57 56 56 55 54 53 51 51 53 53 55 55 56 57 58

GFSSE_sfc_temp_099.txt.gz
Temp
69 71 73 74 74 74 73 74 74 74 75 75 75 76 76 76 76 76 76 76 76 77 78 78 77 77 77 77 76 76 76 76 76 76 76 77 76 76 75 74 73 73 75
71 72 72 73 74 74 74 73 74 74 75 75 75 75 75 75 75 75 76 76 76 78 78 77 77 77 77 76 75 74 74 74 74 75 75 76 76 75 74 73 73 73 74
71 72 72 73 74 74 74 74 74 75 75 75 75 75 75 75 75 75 75 75 77 78 78 77 77 77 76 74 73 73 73 73 73 73 73 72 73 75 74 73 73 74 74
71 71 72 72 73 74 74 74 74 75 75 75 75 75 75 75 75 75 75 75 76 77 78 77 77 76 74 73 72 72 72 72 71 71 70 70 72 74 74 74 74 73 73
70 71 71 72 73 74 74 74 74 74 74 74 74 75 75 75 75 75 74 74 75 76 78 77 76 75 72 71 71 71 71 70 70 69 66 69 71 73 73 73 73 73 73
70 70 70 71 72 73 74 74 74 73 73 73 73 74 75 75 75 74 73 74 75 76 77 76 74 72 71 71 70 70 70 69 68 65 68 71 70 73 73 72 71 71 71
68 68 69 69 71 73 74 74 73 73 71 72 72 73 73 74 74 73 73 73 74 75 76 74 72 71 71 70 70 69 69 68 65 65 66 67 70 73 73 72 71 71 70
68 67 68 71 71 72 73 73 72 71 71 70 70 71 72 72 72 72 73 72 73 73 73 72 71 71 70 70 69 68 67 68 66 66 66 68 71 72 73 72 70 70 70
67 67 67 68 70 70 70 70 70 70 70 69 69 69 69 69 68 70 71 71 71 71 72 71 71 69 69 69 68 67 66 67 65 65 67 68 71 71 71 71 70 70 69
65 65 65 66 67 69 69 69 68 69 69 68 69 69 68 68 68 68 69 69 70 71 71 70 70 69 68 68 67 66 66 66 64 64 66 68 71 71 71 70 70 69 69
63 64 64 64 64 65 67 67 69 69 68 68 68 68 66 64 64 66 67 68 69 69 71 69 69 68 67 67 66 66 66 64 64 64 64 69 71 72 72 69 69 68 68
60 62 63 63 63 64 66 66 66 67 67 67 66 65 63 61 63 65 67 68 69 69 69 68 68 66 66 65 66 66 64 64 65 64 66 68 70 71 70 69 69 69 70
62 62 62 63 63 63 63 63 65 65 64 64 64 63 62 62 62 63 64 66 66 68 67 67 65 63 64 65 64 62 63 64 64 64 66 68 70 72 70 69 69 69 69
60 62 61 62 62 62 62 62 65 65 63 63 63 62 60 62 63 63 64 64 64 64 64 63 60 61 61 62 62 62 63 64 62 61 64 67 69 71 69 69 70 69 68
59 61 61 60 61 62 62 62 63 65 63 63 63 62 62 62 63 64 64 64 64 63 64 60 60 61 60 61 62 62 62 61 61 63 61 66 67 69 70 70 69 69 68
62 60 60 60 60 61 62 61 62 63 64 64 63 63 63 63 62 63 62 63 62 62 63 62 59 60 59 61 60 62 60 59 59 59 63 64 65 67 69 69 69 69 68
63 61 59 59 59 60 60 60 61 61 63 62 63 62 63 63 62 63 62 60 61 60 62 61 59 59 56 61 59 58 60 59 58 58 59 60 62 64 66 68 68 68 68
61 60 60 62 59 58 58 58 59 62 63 63 63 63 64 63 62 60 62 60 58 58 61 61 60 58 58 59 58 58 59 60 58 58 60 60 59 60 63 65 66 67 67
61 60 59 59 58 58 57 57 57 61 63 63 63 62 63 63 62 60 60 59 58 59 60 61 59 60 59 59 58 57 58 59 58 61 59 59 59 59 58 63 64 64 65
60 60 59 59 58 58 58 58 58 60 62 62 63 63 63 64 62 60 58 57 58 59 60 61 59 58 60 60 62 57 56 58 59 58 60 61 59 59 59 59 59 59 62
59 58 58 57 59 60 58 58 58 58 58 60 62 63 63 63 62 60 58 57 59 60 61 61 60 58 55 61 57 54 53 56 56 57 58 58 58 59 57 57 56 56 57
58 58 57 58 60 60 60 59 56 57 57 58 59 61 63 63 62 61 59 57 61 61 60 60 61 55 55 60 58 55 50 53 55 55 56 57 56 58 57 56 56 55 55
58 57 57 60 60 60 57 55 55 55 55 55 56 58 59 63 62 61 60 59 61 62 60 62 62 61 58 56 61 55 49 48 51 52 53 54 56 55 56 57 57 57 56
57 57 58 59 59 59 57 55 55 55 53 55 55 56 57 60 62 62 61 60 62 62 61 62 63 62 62 58 55 57 56 54 50 47 52 55 55 55 55 55 57 57 57
58 56 58 59 58 57 57 54 54 55 56 55 55 55 56 57 60 61 60 59 59 60 62 62 59 58 62 56 57 54 55 54 54 52 48 49 52 55 57 57 57 57 58
58 57 58 59 58 58 57 54 53 55 54 53 54 54 55 56 57 59 59 58 59 58 59 59 57 58 56 56 56 56 56 55 54 53 50 50 51 53 57 57 57 58 57

GFSSE_sfc_temp_102.txt.gz
Temp
69 70 73 74 74 74 74 74 74 74 75 76 76 76 76 76 75 76 76 76 77 78 79 78 77 77 78 77 76 76 75 76 75 76 76 76 77 76 75 74 74 74 75
70 70 72 74 74 74 74 74 74 74 75 76 76 75 75 75 75 75 76 76 77 78 78 77 77 77 77 76 75 75 75 74 74 75 75 75 75 75 74 74 73 74 74
69 72 72 73 74 74 74 74 74 75 76 76 76 75 75 75 75 75 76 76 77 78 78 78 77 77 76 75 74 74 74 73 73 74 74 73 73 75 74 74 74 74 74
70 72 71 72 73 74 74 74 74 75 75 75 75 75 75 75 75 75 75 75 76 77 78 78 77 76 75 73 73 73 73 72 71 72 72 73 74 75 74 74 74 74 74
69 72 71 72 72 73 73 74 74 75 74 75 75 75 75 75 75 75 75 75 76 78 77 77 76 74 72 72 71 71 71 71 70 68 69 71 73 74 74 74 73 73 73
68 69 70 70 72 73 74 74 74 74 73 73 74 75 75 75 75 75 74 75 75 76 76 76 75 72 71 70 70 70 70 69 68 66 67 71 70 74 73 73 72 72 72
67 67 69 70 71 73 74 74 73 73 72 73 73 74 74 75 74 74 73 73 75 75 75 75 72 71 70 70 70 69 68 68 65 64 65 67 70 73 73 72 72 72 71
67 66 68 70 71 72 73 73 72 72 71 72 72 73 74 74 73 73 73 74 74 74 74 72 71 70 70 69 69 68 67 68 66 64 66 67 72 73 73 72 71 70 70
66 66 66 68 70 70 70 70 70 70 70 70 71 71 70 70 71 72 72 72 73 72 72 71 70 70 69 69 68 67 66 66 65 65 67 68 72 73 72 71 71 70 70
65 65 65 66 67 68 69 69 69 69 69 69 68 68 68 68 69 69 70 71 72 72 72 71 69 69 68 67 67 66 66 65 62 63 65 69 71 72 72 71 70 70 70
65 65 64 65 65 66 67 69 69 69 68 68 69 68 66 66 66 67 68 69 70 71 70 71 68 67 67 66 66 66 65 62 61 62 65 69 72 72 71 71 70 69 69
65 65 64 63 63 63 66 68 68 68 68 68 67 67 65 64 64 66 66 68 69 70 70 69 68 67 66 65 65 65 62 61 61 62 65 69 71 72 71 70 69 69 69
64 64 63 62 62 62 66 66 66 67 67 66 66 65 63 63 64 64 63 64 65 69 67 67 66 66 64 64 62 59 60 61 61 62 66 68 70 72 71 69 69 69 68
59 62 62 61 61 61 65 65 65 64 65 64 64 63 63 62 62 63 63 65 64 65 66 64 63 64 63 63 60 60 61 61 60 62 65 67 68 70 70 70 69 70 68
59 60 61 61 62 61 62 63 64 63 63 63 63 62 62 62 62 63 63 63 63 64 63 61 60 63 61 61 62 62 61 61 60 62 63 66 67 69 69 70 69 70 68
63 59 61 61 62 62 62 63 64 65 63 63 62 62 62 61 63 63 63 63 62 62 62 60 61 62 62 61 60 60 59 60 61 61 62 65 65 67 69 70 70 70 69
63 63 61 61 61 63 64 61 63 63 63 63 63 62 62 61 62 63 62 62 62 61 60 59 59 61 61 61 58 58 59 60 60 60 60 61 65 64 66 68 69 69 69
64 60 61 62 60 61 63 61 61 62 63 63 63 63 63 63 63 62 61 61 63 61 60 59 59 59 59 58 56 57 58 59 58 58 59 60 61 62 64 65 67 67 67
65 61 59 60 59 59 58 61 61 62 61 63 63 62 63 63 62 61 62 61 61 59 58 58 58 58 57 57 57 55 56 56 57 60 58 59 60 60 61 64 64 65 66
63 60 60 60 59 58 58 59 59 60 62 62 62 62 63 63 61 60 59 58 59 58 57 57 57 59 59 57 60 55 54 55 56 56 57 60 59 60 60 61 62 61 63
57 58 59 59 58 58 59 59 58 59 60 61 62 63 63 63 61 60 58 57 57 57 57 58 56 57 57 59 55 52 53 55 56 56 57 57 59 59 59 59 60 60 61
57 58 60 59 59 59 60 60 59 59 58 59 61 62 63 63 61 60 59 57 57 56 56 57 58 57 57 59 56 53 50 53 55 56 56 56 55 58 58 58 58 57 57
57 59 60 58 60 60 60 58 56 56 56 56 57 59 61 63 61 61 59 57 57 57 56 57 58 59 56 58 60 54 49 48 51 54 55 56 56 55 57 57 57 57 57
57 60 60 58 59 60 59 57 56 54 53 55 57 57 58 61 61 61 59 57 56 58 58 60 61 61 60 56 59 57 56 54 50 48 53 54 56 56 55 56 57 57 58
57 59 59 60 59 59 58 57 56 57 57 55 55 56 57 58 60 61 59 57 56 58 61 61 60 59 61 59 58 54 54 54 54 52 48 50 53 56 57 56 57 57 58
58 58 60 59 58 58 57 57 55 53 54 54 54 54 56 57 59 60 60 59 57 58 59 61 59 59 58 60 57 56 56 55 54 53 51 51 52 52 55 56 56 57 58

GFSSE_sfc_temp_105.txt.gz
Temp
77 79 74 75 75 74 74 74 74 75 76 76 76 76 76 76 76 76 76 76 77 78 78 78 78 78 78 78 77 76 76 75 75 76 77 77 77 76 75 75 76 80 75
80 79 73 75 76 74 74 74 74 75 76 76 76 76 75 75 75 76 76 76 77 78 78 78 77 78 77 76 75 75 75 74 74 75 75 76 76 76 75 74 75 78 75
78 78 77 73 74 74 75 74 74 75 76 76 76 75 75 75 76 76 76 76 77 78 78 78 78 77 76 75 75 74 74 74 73 74 75 80 78 75 75 74 74 74 74
78 77 78 73 73 74 74 74 74 76 76 76 76 76 76 76 76 76 76 76 77 77 78 78 78 77 75 74 73 73 73 73 72 73 82 79 77 75 75 74 74 75 74
78 78 77 72 72 73 74 74 74 75 75 75 75 76 76 76 76 76 75 75 76 77 78 78 77 75 73 72 72 71 72 71 71 78 80 80 79 76 75 74 74 74 74
76 78 73 71 72 73 73 74 74 74 74 74 74 75 76 76 76 74 74 75 76 76 77 77 75 73 71 71 71 71 70 70 72 80 78 78 80 75 74 73 72 72 72
75 73 73 70 71 73 74 74 74 73 73 73 74 74 75 75 75 75 74 75 75 75 76 75 73 71 71 70 70 69 69 69 80 79 78 80 77 74 74 73 72 72 72
74 74 75 72 71 72 73 73 72 72 72 72 73 73 74 74 74 74 74 73 73 74 74 73 71 71 70 69 69 68 67 70 77 79 79 79 74 74 73 73 71 71 72
74 73 74 74 74 70 70 71 70 71 71 71 72 71 72 72 71 73 73 73 74 73 73 71 70 70 69 69 68 67 66 69 78 78 78 79 72 73 73 72 71 71 71
74 74 74 74 74 75 76 69 69 69 69 70 70 70 69 69 70 71 70 71 73 72 72 71 70 69 69 68 67 66 66 68 77 78 78 78 72 73 73 72 71 70 70
69 73 73 74 74 73 75 75 69 69 69 69 70 69 68 75 75 74 73 68 71 71 71 70 68 67 67 66 66 65 67 76 76 77 77 70 72 73 72 71 71 70 70
68 68 73 73 73 74 75 75 71 72 72 70 72 74 73 72 73 74 72 69 70 69 68 69 67 66 66 65 69 67 76 74 75 76 76 69 72 73 72 71 70 71 69
73 70 68 69 72 73 73 74 71 70 69 69 72 69 69 67 68 70 70 71 71 69 72 67 67 67 67 66 69 73 74 74 75 76 73 68 71 72 71 70 70 70 69
71 71 69 69 70 71 72 72 72 69 67 68 68 70 70 67 66 66 66 67 69 72 72 66 67 67 65 69 69 71 72 74 75 76 73 67 69 71 71 71 70 70 69
71 71 69 69 70 70 68 68 69 68 66 67 69 67 70 69 65 68 66 66 70 70 69 64 65 64 64 69 70 70 71 72 73 75 75 65 67 69 70 71 71 70 69
72 73 71 70 70 71 67 66 67 66 66 66 67 67 68 69 68 65 65 66 66 65 66 63 61 61 61 70 67 70 71 72 72 72 75 71 65 67 69 70 70 70 69
74 75 69 70 70 70 69 65 67 67 67 65 65 66 68 68 66 65 65 65 65 62 62 61 60 60 60 68 67 69 70 70 71 72 73 73 67 64 66 68 69 69 68
75 73 71 70 69 68 67 65 66 66 67 67 66 66 67 67 67 67 65 63 63 60 59 60 58 58 59 65 64 68 70 70 71 71 72 71 68 70 65 66 67 68 68
76 74 71 69 68 66 67 65 65 65 65 66 66 65 67 66 67 68 65 63 62 60 57 58 58 58 60 62 64 67 68 69 69 70 69 70 70 72 73 65 65 65 66
77 74 71 69 68 66 64 63 64 63 63 65 64 65 66 64 65 65 63 61 61 59 58 58 58 58 60 60 66 65 68 69 69 69 70 71 72 71 72 71 71 69 63
70 69 68 67 67 64 61 60 61 61 62 62 64 64 64 64 64 63 62 60 62 59 57 58 58 57 58 65 62 60 63 65 66 68 70 70 69 70 67 69 69 70 68
69 67 66 67 65 67 65 64 65 64 63 63 64 64 64 64 64 62 60 58 59 59 57 57 58 56 57 60 61 61 52 56 63 66 68 68 67 70 69 69 69 69 70
66 65 65 67 64 68 67 65 65 62 61 60 60 62 63 65 62 62 59 58 57 57 56 57 58 58 56 58 63 64 54 53 58 64 63 67 66 66 68 68 68 69 68
66 66 65 65 63 66 65 63 63 63 61 61 61 62 63 63 62 62 60 59 58 58 56 57 58 58 57 56 61 64 64 60 58 53 61 62 65 65 65 67 68 68 68
67 65 65 63 63 64 64 64 63 61 63 62 63 61 61 62 62 61 60 58 58 58 57 58 57 57 59 59 60 59 59 60 62 61 59 60 64 65 67 66 67 66 66
65 65 64 60 61 62 63 62 59 59 62 62 60 59 60 59 59 61 60 59 58 58 57 58 59 59 60 62 63 63 60 60 57 59 61 60 59 59 64 66 64 66 66

GFSSE_sfc_temp_108.txt.gz
Temp
91 91 74 75 75 75 74 74 75 75 76 76 76 76 76 76 76 76 76 77 77 78 79 78 77 78 78 77 77 76 75 75 75 76 77 78 77 77 77 76 77 83 75
93 89 73 75 75 75 75 74 75 75 76 76 76 76 76 76 76 76 76 77 77 78 79 78 77 78 78 77 76 75 75 74 74 75 76 76 77 77 77 76 77 79 75
90 88 81 75 75 75 75 75 75 76 76 76 76 76 76 76 76 76 76 77 77 78 78 78 78 78 77 76 74 74 74 74 74 74 76 86 82 76 75 74 74 75 75
90 87 85 73 74 74 74 75 75 76 76 76 76 76 76 76 76 76 76 76 77 78 78 78 78 77 76 75 74 74 73 73 73 74 84 82 83 75 75 75 75 75 75
89 89 86 73 73 74 74 74 75 75 75 75 75 76 76 76 76 76 75 75 76 77 77 78 77 75 74 73 73 72 72 72 73 77 85 81 86 77 75 75 74 74 75
89 89 76 72 72 73 74 74 74 74 74 74 75 75 76 76 76 76 75 75 76 77 77 77 76 74 72 72 71 71 71 72 72 90 83 81 81 75 75 73 73 73 73
87 87 81 70 72 73 74 74 74 74 73 73 74 75 75 76 76 75 74 75 75 76 76 75 74 72 71 71 70 70 70 71 86 88 82 78 78 74 74 73 72 72 72
84 82 82 73 72 72 73 73 73 72 72 73 73 74 75 75 74 74 74 74 74 75 74 73 72 71 70 70 70 69 69 70 82 82 80 81 74 74 74 73 72 71 72
84 82 82 80 77 71 71 71 71 71 72 72 72 72 73 72 73 74 73 73 73 73 73 72 71 70 70 69 69 68 68 71 83 80 80 77 73 73 73 72 72 72 71
84 83 82 82 81 79 79 70 70 70 70 71 71 71 70 70 72 72 72 72 72 73 72 72 69 69 68 68 67 67 67 69 84 80 79 75 72 73 73 72 72 71 71
83 84 84 83 80 79 80 78 70 70 70 69 72 70 68 81 81 79 75 72 72 72 72 71 68 68 66 66 66 66 68 82 81 81 77 70 72 73 73 72 71 70 71
82 83 86 84 83 81 84 83 80 79 78 79 79 80 80 81 82 82 77 69 70 69 70 70 68 66 67 66 65 66 78 79 81 79 74 69 72 73 72 71 71 71 70
86 86 85 82 82 81 83 85 79 75 81 78 80 80 80 78 78 78 79 80 80 72 79 73 68 69 68 65 64 65 75 78 81 82 72 69 71 72 72 71 71 70 70
88 87 84 82 81 81 85 84 85 73 74 75 77 74 76 76 75 76 75 81 80 80 77 75 66 69 68 65 65 69 73 81 80 79 72 67 70 72 72 71 71 70 69
88 86 84 76 79 80 79 83 83 81 75 73 74 75 74 73 73 75 72 71 77 75 76 67 71 66 66 67 66 73 74 80 80 82 76 66 68 70 71 72 71 70 70
88 87 84 79 77 81 79 73 78 80 81 76 74 72 73 75 70 74 74 71 74 75 74 68 70 68 66 68 67 73 76 79 79 80 79 74 65 67 70 71 71 70 70
88 89 84 81 80 80 80 76 78 78 76 75 73 70 72 71 73 73 72 69 74 69 68 68 66 66 65 66 69 75 75 77 79 79 75 72 71 64 66 68 69 69 69
90 88 86 84 81 79 80 79 76 73 72 70 70 70 71 71 72 72 71 71 68 68 65 63 61 60 60 62 66 73 73 76 77 77 75 72 74 77 66 66 67 68 68
90 89 86 83 80 79 79 78 72 70 69 74 73 70 68 71 72 72 72 67 66 64 62 61 60 60 59 60 64 73 73 75 76 79 78 76 74 76 72 65 65 65 66
90 88 86 84 80 79 78 73 70 69 68 72 75 75 74 73 71 72 70 66 63 60 58 59 59 59 59 59 63 69 71 75 76 72 77 73 75 73 71 70 71 70 64
84 83 82 81 79 77 70 67 65 63 66 67 70 72 74 72 73 69 66 64 61 59 59 60 59 57 57 59 60 62 66 69 71 70 75 76 73 71 73 75 76 77 71
81 81 80 80 79 77 71 69 71 66 67 68 68 72 71 72 70 66 64 63 61 59 60 61 59 57 58 61 59 58 54 58 65 69 75 74 70 73 73 75 73 73 75
79 79 79 80 79 77 76 68 70 68 67 64 65 67 68 70 68 65 64 63 61 60 58 58 58 58 56 60 63 62 55 54 61 65 68 74 68 71 75 74 74 75 75
78 79 79 79 79 77 76 67 68 68 65 70 67 68 66 68 66 66 66 65 61 60 58 58 59 58 59 57 60 62 69 67 63 57 64 71 72 69 71 75 74 74 75
79 77 76 76 77 74 73 68 70 72 75 75 73 70 64 65 66 66 63 60 59 59 59 59 58 58 58 58 58 60 64 65 68 64 59 64 71 73 73 73 74 74 74
79 77 75 73 74 71 67 68 70 73 74 72 68 64 62 63 64 63 62 61 60 60 59 59 59 58 57 58 58 60 63 63 63 63 63 61 65 69 73 75 73 74 75

GFSSE_sfc_temp_114.txt.gz
Temp
84 77 74 75 76 76 75 76 75 75 75 76 76 76 76 76 76 76 76 77 77 78 79 78 78 78 78 78 76 75 75 75 75 76 77 78 78 78 77 76 76 76 75
84 80 73 74 75 75 75 75 75 75 76 76 75 75 75 75 76 76 76 77 77 78 78 78 77 78 77 76 75 75 74 74 74 75 76 77 77 78 77 75 75 74 74
84 78 77 73 74 75 75 76 76 76 76 76 76 75 75 76 76 76 76 76 77 78 78 78 78 78 77 75 74 74 74 74 74 75 76 77 74 76 76 74 74 74 74
84 82 78 73 74 75 75 75 75 76 76 76 76 75 75 76 76 76 76 76 77 78 78 78 78 77 75 74 73 73 73 74 74 74 76 77 77 75 75 74 74 74 74
86 86 78 73 73 74 74 75 75 75 75 75 75 76 76 76 76 76 76 75 76 77 78 78 78 75 74 73 73 73 73 73 73 76 78 76 74 75 75 75 74 73 74
88 87 72 72 73 74 74 75 75 75 74 74 74 75 76 76 76 76 75 75 76 77 77 78 77 75 73 72 72 72 72 72 71 73 75 77 73 75 75 74 73 73 72
85 78 76 71 73 74 75 75 74 74 74 74 74 75 75 75 75 75 74 75 75 76 76 76 75 73 71 71 71 71 71 70 74 70 75 73 70 75 75 73 72 72 72
80 79 75 73 72 73 74 74 73 73 73 73 74 74 74 74 74 74 74 74 74 75 75 74 73 72 71 71 71 70 69 69 74 69 73 72 73 74 74 73 71 71 71
83 79 75 75 74 72 72 72 72 72 72 73 73 73 73 72 72 73 74 73 74 74 72 72 71 71 70 70 70 68 68 67 68 71 74 71 73 74 74 72 71 71 71
83 80 77 76 75 74 73 71 71 71 71 71 72 72 71 71 71 72 72 73 73 74 72 72 70 69 69 68 68 67 67 67 67 71 73 71 72 74 73 73 72 71 71
82 81 80 79 77 76 76 74 70 70 70 70 71 71 69 73 74 74 73 73 73 72 71 70 69 69 67 67 67 66 65 70 69 67 71 70 72 74 73 72 71 71 71
81 81 82 80 79 79 82 75 74 74 73 73 74 73 73 74 75 76 74 71 71 71 70 69 69 67 67 66 65 66 66 69 67 67 67 70 72 74 73 72 71 71 71
85 84 84 80 79 80 80 78 78 77 75 74 74 74 74 75 74 73 71 71 69 70 71 68 66 68 68 67 65 65 67 67 66 67 67 69 72 74 73 72 71 71 70
86 86 85 82 79 78 82 80 80 78 76 75 75 74 74 74 72 72 72 71 71 70 70 70 68 69 69 68 67 66 66 65 65 65 66 68 70 73 72 72 71 71 70
88 86 85 82 79 79 78 79 78 77 76 76 76 75 75 74 72 72 71 71 72 72 72 68 68 67 69 67 68 66 65 65 65 64 65 66 68 71 72 72 72 71 70
88 87 84 83 80 81 78 77 77 77 75 75 75 75 75 74 73 71 70 71 70 70 69 68 67 67 67 66 66 66 65 65 65 64 65 66 66 68 70 71 72 71 71
86 87 82 81 80 79 79 78 78 77 76 75 74 74 75 74 73 72 71 69 69 69 69 67 67 66 65 66 65 64 64 64 65 65 65 67 66 65 67 69 70 70 70
89 86 85 86 81 78 78 78 79 78 76 76 75 74 73 74 74 71 70 69 69 68 67 65 65 64 64 63 63 62 64 64 64 65 67 68 67 68 65 66 68 69 69
89 85 83 81 78 76 76 78 77 76 75 76 76 75 74 73 73 72 71 70 69 67 65 65 65 64 63 63 62 62 62 63 63 68 69 69 67 66 66 65 65 65 67
88 85 83 81 80 77 76 76 78 76 76 76 75 75 73 73 72 70 70 69 69 67 65 65 64 64 63 62 62 61 61 62 63 65 69 69 68 67 66 65 65 64 64
82 81 82 81 78 77 76 74 75 74 74 74 74 73 71 71 70 70 69 67 67 65 63 64 62 60 60 61 60 59 59 61 62 64 68 65 67 66 64 65 64 64 63
80 80 81 81 80 78 78 77 76 76 73 73 71 73 74 72 71 70 68 65 65 64 62 61 60 58 59 61 58 58 54 56 59 61 64 66 65 67 66 67 66 65 64
78 78 80 80 80 78 78 77 74 69 68 67 67 70 73 72 71 69 67 65 64 63 61 61 60 59 57 58 59 57 52 52 56 59 62 65 64 64 66 67 66 67 66
77 79 79 79 79 80 77 76 69 66 65 67 67 69 71 70 70 69 68 64 63 62 60 60 60 60 59 57 58 58 58 57 54 52 59 60 65 65 64 62 65 67 68
78 76 77 77 77 77 77 74 69 68 69 69 67 66 67 69 69 69 68 64 62 61 61 60 59 59 60 59 58 56 56 57 57 55 53 56 62 65 65 64 64 63 67
78 74 75 75 76 76 75 74 71 67 68 67 67 65 66 66 67 68 66 64 62 61 60 60 60 60 59 59 59 58 57 56 56 56 55 55 57 61 63 64 65 65 65

GFSSE_sfc_temp_117.txt.gz
Temp
73 73 74 75 75 75 75 75 75 74 75 76 76 76 76 76 76 76 76 76 77 78 78 78 77 77 78 77 76 76 76 75 75 76 77 78 78 77 76 75 75 75 75
74 74 73 74 75 75 75 75 75 75 75 76 75 75 75 75 76 76 76 76 77 78 78 78 77 77 77 76 75 75 74 74 74 75 76 77 78 77 76 74 74 74 75
73 74 74 73 75 75 75 75 75 75 76 76 75 75 75 76 76 76 76 76 77 78 78 78 77 77 76 75 74 74 74 74 74 74 74 72 74 76 75 74 74 74 75
74 74 73 73 74 74 74 75 75 76 76 75 75 75 75 76 76 76 76 76 77 78 78 78 78 76 75 74 73 74 74 73 73 74 73 73 75 75 75 74 74 74 74
76 74 74 72 73 74 74 74 74 75 74 75 75 76 76 76 76 76 75 75 76 77 78 78 77 75 73 72 72 73 73 73 72 74 70 72 72 75 75 74 74 74 73
77 74 71 71 72 74 74 74 74 74 76 74 74 75 76 76 76 76 75 75 76 77 77 77 76 74 72 72 72 72 72 71 69 69 67 72 69 75 74 73 72 72 72
73 71 71 71 72 73 74 74 74 75 75 73 74 74 75 75 75 75 74 74 74 76 76 76 74 72 72 71 71 71 70 69 68 66 67 67 71 75 75 74 72 72 72
71 71 71 72 72 72 73 73 73 73 73 73 73 73 74 74 74 74 74 74 74 74 74 74 72 72 71 71 71 68 69 68 69 67 69 66 72 75 74 73 72 71 71
72 70 69 70 72 71 71 71 71 71 72 72 72 72 72 72 72 73 73 73 72 72 72 72 71 70 70 70 70 68 67 68 66 66 68 68 72 74 74 72 72 71 71
71 70 69 69 69 68 69 70 70 70 71 72 72 72 71 71 71 71 72 72 73 72 72 72 70 69 70 69 68 68 66 67 67 68 68 67 72 74 74 73 72 71 71
72 70 69 69 69 68 68 70 70 70 70 70 71 74 69 70 70 71 70 71 72 71 71 71 69 68 68 67 67 66 66 68 65 66 66 70 72 74 73 72 71 71 71
70 70 71 69 69 69 74 68 68 70 69 70 69 69 69 69 69 72 71 70 71 70 70 69 68 67 66 64 64 66 64 66 65 65 64 70 72 74 73 72 71 71 70
74 74 72 71 71 70 73 68 68 68 68 68 69 69 68 70 69 70 67 68 67 70 67 67 66 65 65 63 63 63 64 65 65 64 66 68 71 74 73 72 71 71 70
75 75 74 73 72 72 71 70 70 69 68 68 68 69 68 67 67 67 67 67 67 65 65 65 64 64 65 64 64 63 64 64 64 64 65 66 69 73 73 72 72 71 70
77 77 76 75 74 74 71 72 72 71 70 70 69 70 69 68 67 67 66 67 67 67 66 64 64 64 64 64 64 63 63 63 64 63 64 65 66 70 73 73 72 71 70
80 79 78 77 76 76 75 71 71 72 71 70 69 71 69 68 67 67 66 66 66 66 65 65 65 64 63 63 64 64 62 62 63 62 63 64 63 67 70 72 72 71 71
76 81 78 76 76 76 76 72 69 72 72 69 70 69 71 69 68 67 67 65 66 66 65 64 63 63 63 65 63 65 62 62 63 64 64 64 64 64 66 69 70 71 71
76 75 78 79 76 75 75 74 72 70 71 70 68 68 70 70 69 67 67 65 65 64 64 64 64 62 62 62 61 61 61 62 64 64 64 64 64 68 65 66 68 69 69
77 78 77 76 75 74 71 73 70 69 69 70 68 68 68 69 68 68 67 65 65 64 63 63 61 62 62 62 61 62 61 61 62 65 64 64 65 65 65 65 65 66 67
79 77 75 77 76 74 73 70 70 68 67 68 70 70 68 69 68 67 66 66 65 63 62 62 62 60 62 63 62 61 61 61 62 62 63 65 65 65 64 64 65 63 64
70 72 70 72 73 71 68 67 65 69 68 65 67 69 69 70 70 68 67 66 66 64 63 63 63 62 60 61 60 59 60 61 61 61 64 64 65 65 64 64 62 64 64
70 70 70 71 70 71 71 71 68 66 67 70 66 66 68 67 67 69 68 65 64 63 63 62 61 59 59 61 58 57 54 56 59 61 61 63 64 65 63 63 63 61 62
68 70 71 70 70 69 71 68 64 64 63 62 63 64 66 67 67 67 67 65 64 62 61 61 61 60 58 59 60 57 53 52 56 58 59 62 62 63 63 63 63 63 62
67 68 69 70 70 71 69 66 64 63 60 61 62 63 68 67 68 68 67 64 62 61 61 62 61 60 59 57 59 58 56 56 53 52 57 60 62 63 63 63 64 63 63
66 65 67 69 69 70 68 66 64 62 64 61 61 62 63 66 68 68 67 63 62 61 59 61 60 60 60 58 58 57 56 56 56 55 52 54 59 61 63 63 63 63 64
64 63 63 63 65 66 66 65 63 62 62 60 61 61 63 65 65 65 66 63 63 62 61 60 60 59 59 59 59 58 57 57 56 56 54 55 55 58 62 62 62 63 63

GFSSE_sfc_temp_120.txt.gz
Temp
72 73 74 75 75 75 74 74 74 74 75 75 76 76 76 76 76 76 76 76 77 78 78 78 77 78 78 78 77 77 76 76 75 76 77 77 78 77 76 75 75 75 75
73 74 73 74 75 75 75 74 74 75 75 75 75 75 75 75 76 76 76 76 77 78 78 77 77 77 77 76 75 75 75 74 74 75 76 77 77 76 75 74 74 74 75
72 73 74 73 75 75 75 75 75 75 75 75 75 75 75 76 76 76 76 76 77 77 78 77 77 77 76 75 74 74 74 74 73 73 74 70 74 76 75 74 74 74 74
72 73 73 73 74 74 74 74 75 75 75 75 75 75 75 76 76 76 76 75 76 77 78 78 77 76 75 74 74 74 73 73 72 73 70 71 74 75 75 74 74 75 75
72 73 73 72 73 74 74 74 74 75 74 74 75 75 76 76 76 76 75 75 76 78 78 78 77 75 73 72 72 73 73 72 71 71 66 69 70 75 75 74 74 74 73
72 73 71 71 72 74 74 74 74 74 73 74 74 75 75 76 76 75 74 75 76 77 77 77 75 73 72 72 72 72 72 70 69 67 67 71 69 75 74 73 72 72 72
70 70 71 70 72 73 74 74 74 73 73 73 74 74 75 75 75 74 74 74 75 75 76 75 74 72 71 71 71 70 69 69 68 66 66 66 70 74 74 73 72 72 72
69 69 70 71 72 72 73 73 73 73 72 72 73 73 74 74 74 74 73 74 74 74 74 73 72 72 71 71 70 68 67 70 68 66 66 66 72 75 74 73 72 71 72
69 68 68 70 71 71 70 71 71 71 71 71 72 72 72 72 72 73 73 73 73 73 73 72 71 71 71 70 70 66 66 68 65 64 68 68 73 74 74 73 71 71 71
68 68 68 67 69 70 71 70 70 70 70 70 71 71 70 70 71 72 72 72 72 72 72 71 70 70 70 69 68 66 66 67 64 64 65 67 72 73 74 73 72 71 71
67 67 67 67 67 66 68 70 70 70 70 70 70 70 69 69 70 70 70 70 72 71 71 71 69 68 68 68 67 65 66 65 64 65 65 69 72 74 73 72 71 71 71
66 66 67 67 67 66 71 70 70 71 71 70 70 72 69 68 68 70 70 69 71 70 70 70 68 68 67 65 64 66 64 64 64 63 64 69 72 74 73 72 71 71 70
69 68 68 67 67 67 69 67 68 69 70 70 69 68 68 68 68 67 66 68 67 69 67 67 66 65 65 63 62 62 63 63 63 64 66 68 71 74 73 72 71 71 70
68 69 68 68 68 68 67 67 67 67 68 68 69 68 67 67 66 66 65 65 65 65 65 64 63 63 63 63 63 62 63 63 62 62 65 67 70 72 73 73 72 71 70
71 71 69 69 69 69 68 68 67 67 67 67 67 68 68 67 67 66 65 65 65 64 64 63 63 63 63 63 62 62 62 62 63 62 62 65 67 70 73 73 72 72 70
75 73 72 70 71 71 70 69 68 68 68 67 67 68 68 68 67 66 65 65 65 64 64 64 63 62 62 62 62 62 62 62 62 62 62 64 64 67 69 72 72 72 71
75 76 73 72 72 72 71 70 69 69 69 68 68 68 68 68 67 67 65 65 65 65 64 63 62 61 62 62 61 62 62 61 62 61 61 63 64 63 64 67 70 71 71
77 75 75 76 72 72 73 70 70 70 69 69 69 69 69 68 68 66 66 65 65 65 64 63 62 62 62 62 60 61 63 63 61 62 63 63 63 65 63 65 67 69 70
72 76 75 75 72 72 74 72 70 69 70 70 69 69 69 69 68 67 66 65 65 64 63 63 62 63 61 61 62 61 62 62 61 63 62 63 63 65 66 64 65 66 67
72 72 75 75 73 74 74 73 67 67 68 69 68 69 67 69 68 67 66 65 65 63 61 62 62 59 62 63 62 62 61 62 62 61 62 63 63 63 64 64 65 64 64
68 66 72 73 73 73 70 69 66 66 65 66 68 69 68 68 68 66 66 66 66 64 62 62 62 61 61 63 60 60 60 61 61 61 62 62 63 63 64 64 64 62 64
67 66 69 72 72 73 71 71 66 65 65 67 66 67 69 67 67 68 66 65 66 64 61 62 63 60 60 62 58 57 54 57 60 61 61 62 62 63 63 64 63 62 63
64 63 66 68 69 70 70 65 63 63 62 62 62 64 66 67 67 68 66 66 65 65 63 63 63 61 59 60 60 58 53 53 56 59 59 61 61 61 63 63 62 62 62
61 65 67 66 65 67 65 64 62 64 65 62 64 64 64 66 66 67 65 65 65 64 63 63 62 62 60 58 59 59 57 57 53 52 57 59 61 62 62 62 62 61 61
60 60 61 63 63 64 63 64 63 63 63 61 61 63 64 65 67 67 66 66 64 63 62 62 61 60 61 59 59 57 56 56 56 54 52 55 57 60 62 62 62 62 62
57 59 59 60 59 60 60 59 59 60 61 60 60 61 61 62 65 66 66 65 65 63 61 61 61 61 60 59 59 58 58 57 55 55 53 55 56 57 59 60 60 62 62

GFSSE_sfc_temp_123.txt.gz
Temp
70 72 74 74 75 74 74 74 74 74 75 76 76 76 76 76 76 76 76 76 77 78 78 78 78 78 78 78 77 77 76 76 75 76 77 78 78 77 76 75 75 75 75
72 73 73 74 74 74 74 74 74 74 75 76 76 75 75 75 76 76 76 76 77 78 78 78 78 78 77 76 76 75 75 74 74 75 76 77 77 76 75 74 74 74 75
72 73 73 73 74 74 75 75 75 75 76 76 75 75 75 75 76 76 76 76 77 77 78 77 77 77 76 75 74 74 74 73 73 74 73 70 73 76 75 74 74 74 75
72 72 73 73 74 74 74 74 75 75 75 75 75 75 75 76 76 76 75 75 76 77 78 77 77 76 75 74 73 73 73 72 72 72 69 70 75 75 75 74 74 75 74
72 72 72 72 73 74 74 74 74 74 74 74 75 75 76 76 76 76 75 75 76 77 77 77 76 75 73 72 72 72 72 71 71 69 66 67 72 75 75 74 74 74 73
70 72 71 71 72 73 74 74 74 74 73 73 74 75 76 76 76 75 74 75 76 77 77 76 75 73 72 71 72 71 70 70 69 67 67 70 68 75 75 73 72 72 72
69 70 70 70 72 73 74 74 73 73 72 73 74 74 75 75 75 74 74 74 75 76 75 74 73 72 71 71 71 70 69 69 66 66 66 66 69 74 74 73 72 72 72
68 69 70 71 71 72 73 73 72 72 72 72 73 73 74 74 74 74 73 73 74 74 73 73 72 72 71 71 70 68 68 69 67 65 66 66 72 74 74 73 72 71 72
68 68 69 70 71 71 70 70 70 71 71 71 72 72 72 72 72 72 73 73 73 73 73 72 71 70 71 70 68 67 66 68 64 65 67 67 73 74 74 72 72 72 71
67 67 69 70 71 71 70 69 70 70 70 70 71 70 70 70 71 71 71 72 72 72 72 72 70 70 70 68 67 67 66 67 63 65 65 66 72 74 74 73 72 71 71
65 66 68 69 70 71 72 70 70 70 70 69 70 70 68 69 70 70 70 70 71 71 71 70 69 68 67 67 66 67 66 64 62 63 64 69 72 74 74 73 71 71 70
64 65 67 68 68 69 72 72 71 72 71 71 70 70 69 67 68 69 69 69 70 70 70 69 69 67 67 64 64 66 63 63 63 63 63 68 71 74 74 72 71 71 70
66 66 66 67 67 68 70 71 70 71 71 70 69 68 68 68 67 67 67 67 67 68 67 67 66 65 64 63 62 62 63 63 63 62 64 68 71 74 73 72 71 71 70
66 66 66 66 66 66 67 69 70 70 70 70 70 66 67 69 67 65 66 65 65 65 65 64 63 63 63 62 62 61 62 62 62 62 63 66 69 72 73 72 72 71 70
67 67 66 66 66 67 66 67 69 69 69 69 70 68 67 69 68 66 65 65 65 64 64 63 62 62 62 62 61 61 61 62 62 61 61 65 67 70 73 73 73 72 71
70 68 68 67 67 67 67 66 66 66 67 67 68 69 68 68 68 65 65 64 64 64 63 63 62 61 61 61 61 61 61 61 61 61 61 63 65 67 70 72 72 72 71
71 71 68 68 68 67 67 66 66 67 66 66 66 67 68 67 66 65 65 64 64 63 63 62 61 61 60 61 61 61 61 61 61 61 61 61 62 62 64 69 69 70 71
73 71 70 72 69 68 68 67 67 67 66 67 66 66 67 67 67 65 65 64 64 63 63 62 61 59 60 60 59 60 62 61 61 60 60 61 61 63 63 63 66 67 69
74 73 69 70 69 69 69 69 67 67 67 67 66 66 67 67 67 66 65 64 64 63 63 62 60 61 61 61 60 60 61 62 62 63 61 61 61 62 64 63 63 63 66
72 74 72 71 70 70 70 67 65 65 65 66 67 67 67 67 67 66 65 64 64 63 62 62 62 61 61 62 62 61 61 62 62 62 62 63 62 63 63 63 63 63 63
69 68 69 69 70 69 69 66 64 65 66 65 67 67 67 67 67 66 65 64 65 64 62 62 61 61 61 63 60 60 60 61 61 61 62 62 62 62 62 64 64 63 64
65 67 68 69 70 70 71 71 68 68 65 67 66 67 67 67 67 67 66 65 66 65 63 62 63 60 61 62 59 58 55 57 60 60 61 62 62 62 62 63 63 62 63
62 60 68 70 70 70 70 65 63 63 62 62 63 65 67 66 67 67 66 65 64 64 63 63 63 62 59 61 60 57 53 52 54 59 60 61 61 61 61 61 63 63 63
54 59 60 61 61 63 64 63 63 63 61 64 65 66 65 66 66 67 66 65 65 65 64 63 64 63 62 59 60 59 58 56 53 52 58 60 61 60 61 60 61 62 63
57 58 58 59 59 60 60 62 61 61 61 61 61 62 62 64 65 66 67 65 65 64 64 64 62 62 62 60 59 58 56 54 56 54 52 55 59 61 61 60 61 61 62
56 56 56 56 56 56 56 56 56 55 56 58 60 60 61 62 64 65 66 65 66 64 63 63 62 62 61 61 60 59 58 56 55 54 53 55 56 57 59 60 60 61 61

GFSSE_sfc_temp_126.txt.gz
Temp
70 72 73 74 74 74 74 74 74 75 75 76 76 76 76 76 76 76 76 76 77 78 78 78 78 78 78 78 77 77 76 76 75 76 77 77 77 77 76 75 75 75 75
72 73 73 74 74 74 74 74 74 75 76 76 76 76 76 76 76 76 76 76 77 78 78 78 77 78 78 77 75 75 75 74 74 75 75 76 76 76 75 74 74 75 75
71 72 73 73 74 74 75 75 75 75 76 76 75 75 75 76 75 75 76 76 77 78 78 78 77 77 77 75 74 74 74 74 73 74 74 71 74 76 75 74 74 74 74
72 72 72 73 73 74 74 74 75 76 76 75 75 75 75 75 75 75 75 75 76 77 77 77 77 76 75 73 73 73 73 72 72 71 70 72 75 75 75 75 75 75 75
72 72 72 72 73 74 74 74 74 75 75 75 75 75 76 76 76 75 75 75 76 77 77 77 76 75 73 72 72 72 72 71 70 69 68 71 73 75 75 75 74 73 73
70 71 71 71 72 73 74 74 74 74 73 74 74 75 76 76 75 75 74 74 75 77 77 76 75 73 72 71 71 71 70 70 69 68 68 72 71 75 75 73 73 73 72
69 70 71 70 72 73 74 74 73 73 73 73 74 74 75 75 75 74 74 74 75 75 75 74 73 72 71 71 70 70 69 69 67 67 67 68 70 75 75 73 73 72 72
68 69 70 71 72 72 73 73 72 72 72 72 73 73 74 74 73 73 73 73 73 74 73 73 72 71 71 70 70 69 68 69 68 66 67 68 72 75 75 73 72 72 73
67 68 68 70 71 71 70 71 70 71 71 72 72 72 72 72 72 73 73 73 73 73 72 72 71 70 71 69 69 68 67 68 66 66 67 67 73 74 75 73 73 72 72
65 66 68 68 70 70 71 69 69 70 70 70 71 71 70 70 71 71 72 72 72 72 72 71 70 70 70 68 67 66 66 67 65 66 66 67 73 75 75 73 73 72 72
66 68 69 70 72 72 72 70 69 70 70 69 70 70 68 70 70 70 70 71 71 71 71 70 69 68 68 66 67 66 66 65 64 64 65 69 72 75 74 73 72 71 71
64 67 69 70 71 72 73 72 70 71 71 71 70 70 69 68 68 69 69 70 70 70 70 69 68 67 66 65 64 66 63 64 63 64 64 68 72 75 74 72 71 71 71
65 65 69 70 71 71 72 72 72 72 71 72 71 70 69 67 67 68 66 68 67 69 67 67 66 65 64 65 63 63 63 63 63 63 65 67 71 75 73 72 72 71 70
64 64 68 69 69 70 72 72 72 71 71 70 70 69 69 69 67 66 66 66 66 65 65 65 64 64 63 62 62 62 63 62 62 62 63 66 69 73 74 73 72 72 71
63 64 65 67 67 69 70 71 71 71 71 72 72 68 69 70 69 66 65 65 65 64 64 63 63 62 62 62 61 62 62 62 62 62 62 64 66 70 73 73 72 72 71
66 64 65 65 66 67 68 70 70 71 71 70 70 70 68 70 70 67 65 64 63 64 63 63 63 61 61 61 61 61 62 62 62 62 62 63 64 64 70 72 72 72 72
68 68 65 65 65 65 66 67 68 69 70 69 70 70 70 70 69 68 66 64 63 63 63 62 61 61 60 61 60 60 61 62 62 62 62 62 63 61 63 69 70 71 71
71 69 68 69 66 65 66 65 65 66 67 67 68 69 69 69 68 65 65 64 63 62 62 61 60 59 59 60 61 61 61 61 61 61 61 62 63 64 63 64 66 68 68
71 70 68 68 66 66 66 66 65 64 64 64 64 65 68 68 65 64 64 63 63 62 61 61 59 60 61 61 60 61 62 62 62 63 62 61 61 63 63 63 63 63 64
72 72 70 69 68 67 66 65 64 64 65 65 65 65 65 66 66 65 64 63 64 63 62 61 62 61 62 62 62 61 61 63 62 62 63 63 61 62 63 64 63 62 61
72 71 69 68 68 67 66 64 64 64 66 65 66 66 66 66 66 66 65 63 63 63 63 63 63 61 61 62 60 60 60 62 61 62 63 63 63 63 63 63 63 63 63
67 69 69 69 69 68 69 68 64 66 66 66 67 66 66 66 66 66 66 64 64 63 63 63 63 60 61 62 59 59 56 57 60 61 62 62 62 63 62 63 63 63 63
61 64 67 68 70 68 69 65 61 62 63 64 64 65 66 66 66 66 66 65 64 64 63 63 63 62 60 61 61 59 53 52 56 59 60 62 62 62 63 62 62 63 63
53 56 59 61 62 63 64 65 63 64 63 63 65 66 66 66 66 67 66 65 65 65 63 63 64 64 63 59 61 59 59 56 51 52 58 59 61 61 61 61 61 61 61
53 53 55 56 56 58 60 63 62 60 61 60 61 63 63 64 65 66 66 65 65 65 64 63 63 63 63 62 60 58 57 56 56 55 52 55 59 61 61 61 61 61 62
53 52 53 53 54 55 56 56 57 57 57 60 61 60 61 62 64 64 65 65 66 66 65 64 64 63 62 63 62 60 58 58 55 54 52 53 56 58 61 61 60 60 60